<?xml version="1.0" encoding="UTF-8" standalone="no" ?>
<gpx xmlns="http://www.topografix.com/GPX/1/1" xmlns:xsi="http://www.w3.org/2001/XMLSchema-instance" xsi:schemaLocation="http://www.topografix.com/GPX/1/1 http://www.topografix.com/GPX/1/1/gpx.xsd" version="1.1" creator="VisuGPX - https://www.visugpx.com">
  <metadata>
    <name>Paiharès St Félicien 220819</name>
  </metadata>
  <trk>
    <name><![CDATA[2019-08-22 09:13:43]]></name>
    <trkseg>
      <trkpt lat="45.07805" lon="4.56657">
        <ele>693.91</ele>
        <time>2019-08-22T07:13:44.000Z</time>
      </trkpt>
      <trkpt lat="45.0781" lon="4.56644">
        <ele>694.03</ele>
        <time>2019-08-22T07:13:54.000Z</time>
      </trkpt>
      <trkpt lat="45.07819" lon="4.5663">
        <ele>693.92</ele>
        <time>2019-08-22T07:14:04.000Z</time>
      </trkpt>
      <trkpt lat="45.07823" lon="4.56616">
        <ele>693.64</ele>
        <time>2019-08-22T07:14:14.000Z</time>
      </trkpt>
      <trkpt lat="45.07829" lon="4.566">
        <ele>693.3</ele>
        <time>2019-08-22T07:14:24.000Z</time>
      </trkpt>
      <trkpt lat="45.07836" lon="4.5659">
        <ele>693.27</ele>
        <time>2019-08-22T07:14:34.000Z</time>
      </trkpt>
      <trkpt lat="45.07844" lon="4.5658">
        <ele>693.5</ele>
        <time>2019-08-22T07:14:44.000Z</time>
      </trkpt>
      <trkpt lat="45.07853" lon="4.56573">
        <ele>693.85</ele>
        <time>2019-08-22T07:14:54.000Z</time>
      </trkpt>
      <trkpt lat="45.07848" lon="4.56566">
        <ele>693.51</ele>
        <time>2019-08-22T07:15:04.000Z</time>
      </trkpt>
      <trkpt lat="45.07843" lon="4.56559">
        <ele>692.96</ele>
        <time>2019-08-22T07:15:25.000Z</time>
      </trkpt>
      <trkpt lat="45.07833" lon="4.56552">
        <ele>691.83</ele>
        <time>2019-08-22T07:15:35.000Z</time>
      </trkpt>
      <trkpt lat="45.07828" lon="4.56548">
        <ele>691.06</ele>
        <time>2019-08-22T07:15:45.000Z</time>
      </trkpt>
      <trkpt lat="45.07823" lon="4.56537">
        <ele>689.8</ele>
        <time>2019-08-22T07:15:55.000Z</time>
      </trkpt>
      <trkpt lat="45.0782" lon="4.56529">
        <ele>688.99</ele>
        <time>2019-08-22T07:16:05.000Z</time>
      </trkpt>
      <trkpt lat="45.07818" lon="4.56523">
        <ele>688.21</ele>
        <time>2019-08-22T07:16:15.000Z</time>
      </trkpt>
      <trkpt lat="45.07817" lon="4.56516">
        <ele>687.47</ele>
        <time>2019-08-22T07:16:29.000Z</time>
      </trkpt>
      <trkpt lat="45.07812" lon="4.56518">
        <ele>686.95</ele>
        <time>2019-08-22T07:16:56.000Z</time>
      </trkpt>
      <trkpt lat="45.07806" lon="4.56519">
        <ele>686.19</ele>
        <time>2019-08-22T07:17:06.000Z</time>
      </trkpt>
      <trkpt lat="45.07801" lon="4.5652">
        <ele>685.58</ele>
        <time>2019-08-22T07:17:16.000Z</time>
      </trkpt>
      <trkpt lat="45.07789" lon="4.5652">
        <ele>683.94</ele>
        <time>2019-08-22T07:17:26.000Z</time>
      </trkpt>
      <trkpt lat="45.07781" lon="4.56522">
        <ele>682.88</ele>
        <time>2019-08-22T07:17:36.000Z</time>
      </trkpt>
      <trkpt lat="45.07768" lon="4.56527">
        <ele>681.76</ele>
        <time>2019-08-22T07:17:46.000Z</time>
      </trkpt>
      <trkpt lat="45.07757" lon="4.56529">
        <ele>680.39</ele>
        <time>2019-08-22T07:17:56.000Z</time>
      </trkpt>
      <trkpt lat="45.07742" lon="4.5653">
        <ele>678.31</ele>
        <time>2019-08-22T07:18:06.000Z</time>
      </trkpt>
      <trkpt lat="45.07727" lon="4.56533">
        <ele>676.38</ele>
        <time>2019-08-22T07:18:16.000Z</time>
      </trkpt>
      <trkpt lat="45.07714" lon="4.56534">
        <ele>674.35</ele>
        <time>2019-08-22T07:18:26.000Z</time>
      </trkpt>
      <trkpt lat="45.077" lon="4.56538">
        <ele>672.72</ele>
        <time>2019-08-22T07:18:36.000Z</time>
      </trkpt>
      <trkpt lat="45.07688" lon="4.56549">
        <ele>672.13</ele>
        <time>2019-08-22T07:18:46.000Z</time>
      </trkpt>
      <trkpt lat="45.07679" lon="4.56564">
        <ele>672.65</ele>
        <time>2019-08-22T07:18:56.000Z</time>
      </trkpt>
      <trkpt lat="45.07671" lon="4.56578">
        <ele>672.48</ele>
        <time>2019-08-22T07:19:06.000Z</time>
      </trkpt>
      <trkpt lat="45.07663" lon="4.56593">
        <ele>671.78</ele>
        <time>2019-08-22T07:19:16.000Z</time>
      </trkpt>
      <trkpt lat="45.07656" lon="4.56609">
        <ele>670.91</ele>
        <time>2019-08-22T07:19:26.000Z</time>
      </trkpt>
      <trkpt lat="45.07649" lon="4.56627">
        <ele>669.39</ele>
        <time>2019-08-22T07:19:36.000Z</time>
      </trkpt>
      <trkpt lat="45.07645" lon="4.56643">
        <ele>668.31</ele>
        <time>2019-08-22T07:19:46.000Z</time>
      </trkpt>
      <trkpt lat="45.07638" lon="4.56659">
        <ele>665.58</ele>
        <time>2019-08-22T07:19:56.000Z</time>
      </trkpt>
      <trkpt lat="45.07632" lon="4.56677">
        <ele>662.42</ele>
        <time>2019-08-22T07:20:06.000Z</time>
      </trkpt>
      <trkpt lat="45.07628" lon="4.5669">
        <ele>660.04</ele>
        <time>2019-08-22T07:20:16.000Z</time>
      </trkpt>
      <trkpt lat="45.07624" lon="4.56707">
        <ele>656.59</ele>
        <time>2019-08-22T07:20:26.000Z</time>
      </trkpt>
      <trkpt lat="45.07621" lon="4.56719">
        <ele>654.11</ele>
        <time>2019-08-22T07:20:36.000Z</time>
      </trkpt>
      <trkpt lat="45.07619" lon="4.56737">
        <ele>650.8</ele>
        <time>2019-08-22T07:20:46.000Z</time>
      </trkpt>
      <trkpt lat="45.07617" lon="4.56753">
        <ele>648.17</ele>
        <time>2019-08-22T07:20:56.000Z</time>
      </trkpt>
      <trkpt lat="45.07616" lon="4.56764">
        <ele>646.43</ele>
        <time>2019-08-22T07:21:06.000Z</time>
      </trkpt>
      <trkpt lat="45.07616" lon="4.56772">
        <ele>645.28</ele>
        <time>2019-08-22T07:21:16.000Z</time>
      </trkpt>
      <trkpt lat="45.07618" lon="4.56792">
        <ele>643.3</ele>
        <time>2019-08-22T07:21:26.000Z</time>
      </trkpt>
      <trkpt lat="45.07622" lon="4.56812">
        <ele>642.15</ele>
        <time>2019-08-22T07:21:36.000Z</time>
      </trkpt>
      <trkpt lat="45.07626" lon="4.5683">
        <ele>640.89</ele>
        <time>2019-08-22T07:21:46.000Z</time>
      </trkpt>
      <trkpt lat="45.07632" lon="4.5685">
        <ele>640.38</ele>
        <time>2019-08-22T07:21:56.000Z</time>
      </trkpt>
      <trkpt lat="45.07639" lon="4.56867">
        <ele>639.95</ele>
        <time>2019-08-22T07:22:06.000Z</time>
      </trkpt>
      <trkpt lat="45.07643" lon="4.56886">
        <ele>638.25</ele>
        <time>2019-08-22T07:22:16.000Z</time>
      </trkpt>
      <trkpt lat="45.07646" lon="4.56905">
        <ele>635.94</ele>
        <time>2019-08-22T07:22:26.000Z</time>
      </trkpt>
      <trkpt lat="45.07649" lon="4.56923">
        <ele>633.62</ele>
        <time>2019-08-22T07:22:36.000Z</time>
      </trkpt>
      <trkpt lat="45.07655" lon="4.56939">
        <ele>631.75</ele>
        <time>2019-08-22T07:22:46.000Z</time>
      </trkpt>
      <trkpt lat="45.07663" lon="4.56955">
        <ele>630.17</ele>
        <time>2019-08-22T07:22:56.000Z</time>
      </trkpt>
      <trkpt lat="45.0767" lon="4.56968">
        <ele>628.85</ele>
        <time>2019-08-22T07:23:06.000Z</time>
      </trkpt>
      <trkpt lat="45.07675" lon="4.56983">
        <ele>626.82</ele>
        <time>2019-08-22T07:23:16.000Z</time>
      </trkpt>
      <trkpt lat="45.07673" lon="4.57003">
        <ele>622.74</ele>
        <time>2019-08-22T07:23:26.000Z</time>
      </trkpt>
      <trkpt lat="45.07669" lon="4.5702">
        <ele>619.07</ele>
        <time>2019-08-22T07:23:36.000Z</time>
      </trkpt>
      <trkpt lat="45.07662" lon="4.57036">
        <ele>615.36</ele>
        <time>2019-08-22T07:23:46.000Z</time>
      </trkpt>
      <trkpt lat="45.07655" lon="4.57052">
        <ele>612.04</ele>
        <time>2019-08-22T07:23:56.000Z</time>
      </trkpt>
      <trkpt lat="45.07648" lon="4.57068">
        <ele>608.93</ele>
        <time>2019-08-22T07:24:06.000Z</time>
      </trkpt>
      <trkpt lat="45.0764" lon="4.57084">
        <ele>605.91</ele>
        <time>2019-08-22T07:24:16.000Z</time>
      </trkpt>
      <trkpt lat="45.07635" lon="4.571">
        <ele>603.65</ele>
        <time>2019-08-22T07:24:26.000Z</time>
      </trkpt>
      <trkpt lat="45.07631" lon="4.57116">
        <ele>602.01</ele>
        <time>2019-08-22T07:24:36.000Z</time>
      </trkpt>
      <trkpt lat="45.07627" lon="4.57132">
        <ele>600.52</ele>
        <time>2019-08-22T07:24:46.000Z</time>
      </trkpt>
      <trkpt lat="45.07625" lon="4.57146">
        <ele>599.45</ele>
        <time>2019-08-22T07:24:56.000Z</time>
      </trkpt>
      <trkpt lat="45.07622" lon="4.57165">
        <ele>597.6</ele>
        <time>2019-08-22T07:25:06.000Z</time>
      </trkpt>
      <trkpt lat="45.07621" lon="4.57184">
        <ele>595.65</ele>
        <time>2019-08-22T07:25:16.000Z</time>
      </trkpt>
      <trkpt lat="45.07622" lon="4.57203">
        <ele>594.1</ele>
        <time>2019-08-22T07:25:26.000Z</time>
      </trkpt>
      <trkpt lat="45.07624" lon="4.57217">
        <ele>593.07</ele>
        <time>2019-08-22T07:25:36.000Z</time>
      </trkpt>
      <trkpt lat="45.07627" lon="4.57237">
        <ele>591.62</ele>
        <time>2019-08-22T07:25:46.000Z</time>
      </trkpt>
      <trkpt lat="45.0763" lon="4.57252">
        <ele>590.46</ele>
        <time>2019-08-22T07:25:56.000Z</time>
      </trkpt>
      <trkpt lat="45.07635" lon="4.5727">
        <ele>589.18</ele>
        <time>2019-08-22T07:26:06.000Z</time>
      </trkpt>
      <trkpt lat="45.0764" lon="4.57287">
        <ele>587.2</ele>
        <time>2019-08-22T07:26:16.000Z</time>
      </trkpt>
      <trkpt lat="45.07647" lon="4.57301">
        <ele>585.77</ele>
        <time>2019-08-22T07:26:26.000Z</time>
      </trkpt>
      <trkpt lat="45.07655" lon="4.57315">
        <ele>584.57</ele>
        <time>2019-08-22T07:26:36.000Z</time>
      </trkpt>
      <trkpt lat="45.07666" lon="4.57327">
        <ele>583.74</ele>
        <time>2019-08-22T07:26:46.000Z</time>
      </trkpt>
      <trkpt lat="45.07674" lon="4.5734">
        <ele>582.84</ele>
        <time>2019-08-22T07:26:56.000Z</time>
      </trkpt>
      <trkpt lat="45.07684" lon="4.5735">
        <ele>582.3</ele>
        <time>2019-08-22T07:27:06.000Z</time>
      </trkpt>
      <trkpt lat="45.07692" lon="4.57365">
        <ele>581.47</ele>
        <time>2019-08-22T07:27:16.000Z</time>
      </trkpt>
      <trkpt lat="45.07699" lon="4.57385">
        <ele>580.56</ele>
        <time>2019-08-22T07:27:26.000Z</time>
      </trkpt>
      <trkpt lat="45.07702" lon="4.57401">
        <ele>579.71</ele>
        <time>2019-08-22T07:27:36.000Z</time>
      </trkpt>
      <trkpt lat="45.07704" lon="4.57416">
        <ele>578.67</ele>
        <time>2019-08-22T07:27:46.000Z</time>
      </trkpt>
      <trkpt lat="45.07705" lon="4.57433">
        <ele>577.15</ele>
        <time>2019-08-22T07:27:56.000Z</time>
      </trkpt>
      <trkpt lat="45.07703" lon="4.57452">
        <ele>575.19</ele>
        <time>2019-08-22T07:28:06.000Z</time>
      </trkpt>
      <trkpt lat="45.07699" lon="4.5747">
        <ele>573.09</ele>
        <time>2019-08-22T07:28:16.000Z</time>
      </trkpt>
      <trkpt lat="45.07695" lon="4.57489">
        <ele>570.6</ele>
        <time>2019-08-22T07:28:26.000Z</time>
      </trkpt>
      <trkpt lat="45.07693" lon="4.57498">
        <ele>569.25</ele>
        <time>2019-08-22T07:28:36.000Z</time>
      </trkpt>
      <trkpt lat="45.07691" lon="4.57504">
        <ele>568.3</ele>
        <time>2019-08-22T07:29:03.000Z</time>
      </trkpt>
      <trkpt lat="45.07687" lon="4.57521">
        <ele>565.39</ele>
        <time>2019-08-22T07:29:13.000Z</time>
      </trkpt>
      <trkpt lat="45.07683" lon="4.57537">
        <ele>562.35</ele>
        <time>2019-08-22T07:29:23.000Z</time>
      </trkpt>
      <trkpt lat="45.07675" lon="4.57553">
        <ele>558.88</ele>
        <time>2019-08-22T07:29:33.000Z</time>
      </trkpt>
      <trkpt lat="45.0767" lon="4.57564">
        <ele>556.73</ele>
        <time>2019-08-22T07:29:43.000Z</time>
      </trkpt>
      <trkpt lat="45.07674" lon="4.57583">
        <ele>554.56</ele>
        <time>2019-08-22T07:29:53.000Z</time>
      </trkpt>
      <trkpt lat="45.07685" lon="4.57595">
        <ele>554.1</ele>
        <time>2019-08-22T07:30:03.000Z</time>
      </trkpt>
      <trkpt lat="45.07698" lon="4.57604">
        <ele>554.51</ele>
        <time>2019-08-22T07:30:13.000Z</time>
      </trkpt>
      <trkpt lat="45.0771" lon="4.57613">
        <ele>554.93</ele>
        <time>2019-08-22T07:30:23.000Z</time>
      </trkpt>
      <trkpt lat="45.07721" lon="4.57625">
        <ele>555.01</ele>
        <time>2019-08-22T07:30:33.000Z</time>
      </trkpt>
      <trkpt lat="45.07734" lon="4.57633">
        <ele>555.48</ele>
        <time>2019-08-22T07:30:43.000Z</time>
      </trkpt>
      <trkpt lat="45.07745" lon="4.57643">
        <ele>555.43</ele>
        <time>2019-08-22T07:30:53.000Z</time>
      </trkpt>
      <trkpt lat="45.07756" lon="4.57652">
        <ele>554.97</ele>
        <time>2019-08-22T07:31:03.000Z</time>
      </trkpt>
      <trkpt lat="45.07768" lon="4.57662">
        <ele>554.6</ele>
        <time>2019-08-22T07:31:13.000Z</time>
      </trkpt>
      <trkpt lat="45.0778" lon="4.57673">
        <ele>554.07</ele>
        <time>2019-08-22T07:31:23.000Z</time>
      </trkpt>
      <trkpt lat="45.0779" lon="4.57687">
        <ele>552.9</ele>
        <time>2019-08-22T07:31:33.000Z</time>
      </trkpt>
      <trkpt lat="45.07796" lon="4.57701">
        <ele>551.54</ele>
        <time>2019-08-22T07:31:43.000Z</time>
      </trkpt>
      <trkpt lat="45.07801" lon="4.57716">
        <ele>550.03</ele>
        <time>2019-08-22T07:31:53.000Z</time>
      </trkpt>
      <trkpt lat="45.07809" lon="4.5773">
        <ele>548.97</ele>
        <time>2019-08-22T07:32:03.000Z</time>
      </trkpt>
      <trkpt lat="45.07821" lon="4.57742">
        <ele>548.34</ele>
        <time>2019-08-22T07:32:13.000Z</time>
      </trkpt>
      <trkpt lat="45.0783" lon="4.5775">
        <ele>547.89</ele>
        <time>2019-08-22T07:32:23.000Z</time>
      </trkpt>
      <trkpt lat="45.07839" lon="4.57759">
        <ele>547.25</ele>
        <time>2019-08-22T07:32:33.000Z</time>
      </trkpt>
      <trkpt lat="45.07853" lon="4.57769">
        <ele>547.02</ele>
        <time>2019-08-22T07:32:43.000Z</time>
      </trkpt>
      <trkpt lat="45.07867" lon="4.57772">
        <ele>547.89</ele>
        <time>2019-08-22T07:32:53.000Z</time>
      </trkpt>
      <trkpt lat="45.07883" lon="4.57779">
        <ele>548.88</ele>
        <time>2019-08-22T07:33:03.000Z</time>
      </trkpt>
      <trkpt lat="45.07897" lon="4.57782">
        <ele>550.3</ele>
        <time>2019-08-22T07:33:13.000Z</time>
      </trkpt>
      <trkpt lat="45.07911" lon="4.5778">
        <ele>552.13</ele>
        <time>2019-08-22T07:33:23.000Z</time>
      </trkpt>
      <trkpt lat="45.07923" lon="4.57777">
        <ele>553.6</ele>
        <time>2019-08-22T07:33:33.000Z</time>
      </trkpt>
      <trkpt lat="45.07934" lon="4.57776">
        <ele>554.83</ele>
        <time>2019-08-22T07:33:43.000Z</time>
      </trkpt>
      <trkpt lat="45.07945" lon="4.57782">
        <ele>555.67</ele>
        <time>2019-08-22T07:33:53.000Z</time>
      </trkpt>
      <trkpt lat="45.07947" lon="4.57795">
        <ele>555.18</ele>
        <time>2019-08-22T07:34:03.000Z</time>
      </trkpt>
      <trkpt lat="45.0795" lon="4.57814">
        <ele>554.58</ele>
        <time>2019-08-22T07:34:13.000Z</time>
      </trkpt>
      <trkpt lat="45.07954" lon="4.57831">
        <ele>553.96</ele>
        <time>2019-08-22T07:34:23.000Z</time>
      </trkpt>
      <trkpt lat="45.07961" lon="4.57848">
        <ele>553.58</ele>
        <time>2019-08-22T07:34:33.000Z</time>
      </trkpt>
      <trkpt lat="45.07975" lon="4.57858">
        <ele>555.19</ele>
        <time>2019-08-22T07:34:43.000Z</time>
      </trkpt>
      <trkpt lat="45.07988" lon="4.57861">
        <ele>557.17</ele>
        <time>2019-08-22T07:34:53.000Z</time>
      </trkpt>
      <trkpt lat="45.07998" lon="4.57864">
        <ele>558.31</ele>
        <time>2019-08-22T07:35:03.000Z</time>
      </trkpt>
      <trkpt lat="45.08011" lon="4.5787">
        <ele>559.35</ele>
        <time>2019-08-22T07:35:13.000Z</time>
      </trkpt>
      <trkpt lat="45.08024" lon="4.57877">
        <ele>559.88</ele>
        <time>2019-08-22T07:35:23.000Z</time>
      </trkpt>
      <trkpt lat="45.08036" lon="4.57888">
        <ele>559.82</ele>
        <time>2019-08-22T07:35:33.000Z</time>
      </trkpt>
      <trkpt lat="45.08045" lon="4.57902">
        <ele>559.15</ele>
        <time>2019-08-22T07:35:43.000Z</time>
      </trkpt>
      <trkpt lat="45.08055" lon="4.57917">
        <ele>558.34</ele>
        <time>2019-08-22T07:35:53.000Z</time>
      </trkpt>
      <trkpt lat="45.08067" lon="4.57926">
        <ele>558.39</ele>
        <time>2019-08-22T07:36:03.000Z</time>
      </trkpt>
      <trkpt lat="45.08078" lon="4.57934">
        <ele>558.37</ele>
        <time>2019-08-22T07:36:13.000Z</time>
      </trkpt>
      <trkpt lat="45.08089" lon="4.57942">
        <ele>558.32</ele>
        <time>2019-08-22T07:36:23.000Z</time>
      </trkpt>
      <trkpt lat="45.08101" lon="4.57953">
        <ele>558</ele>
        <time>2019-08-22T07:36:33.000Z</time>
      </trkpt>
      <trkpt lat="45.08114" lon="4.5796">
        <ele>558.14</ele>
        <time>2019-08-22T07:36:43.000Z</time>
      </trkpt>
      <trkpt lat="45.08126" lon="4.57968">
        <ele>558.08</ele>
        <time>2019-08-22T07:36:53.000Z</time>
      </trkpt>
      <trkpt lat="45.08139" lon="4.57972">
        <ele>558.71</ele>
        <time>2019-08-22T07:37:03.000Z</time>
      </trkpt>
      <trkpt lat="45.08152" lon="4.57978">
        <ele>559.38</ele>
        <time>2019-08-22T07:37:13.000Z</time>
      </trkpt>
      <trkpt lat="45.08162" lon="4.57991">
        <ele>559.33</ele>
        <time>2019-08-22T07:37:23.000Z</time>
      </trkpt>
      <trkpt lat="45.08166" lon="4.58008">
        <ele>558.15</ele>
        <time>2019-08-22T07:37:33.000Z</time>
      </trkpt>
      <trkpt lat="45.08169" lon="4.58029">
        <ele>556.59</ele>
        <time>2019-08-22T07:37:43.000Z</time>
      </trkpt>
      <trkpt lat="45.08172" lon="4.58048">
        <ele>555.16</ele>
        <time>2019-08-22T07:37:53.000Z</time>
      </trkpt>
      <trkpt lat="45.08176" lon="4.58067">
        <ele>554.13</ele>
        <time>2019-08-22T07:38:03.000Z</time>
      </trkpt>
      <trkpt lat="45.08182" lon="4.58084">
        <ele>553.59</ele>
        <time>2019-08-22T07:38:13.000Z</time>
      </trkpt>
      <trkpt lat="45.08184" lon="4.58094">
        <ele>553.13</ele>
        <time>2019-08-22T07:38:23.000Z</time>
      </trkpt>
      <trkpt lat="45.08181" lon="4.5809">
        <ele>552.92</ele>
        <time>2019-08-22T07:38:35.000Z</time>
      </trkpt>
      <trkpt lat="45.08186" lon="4.58096">
        <ele>553.24</ele>
        <time>2019-08-22T07:38:45.000Z</time>
      </trkpt>
      <trkpt lat="45.08182" lon="4.58092">
        <ele>552.89</ele>
        <time>2019-08-22T07:38:59.000Z</time>
      </trkpt>
      <trkpt lat="45.08173" lon="4.58081">
        <ele>552.39</ele>
        <time>2019-08-22T07:39:09.000Z</time>
      </trkpt>
      <trkpt lat="45.08175" lon="4.58094">
        <ele>551.41</ele>
        <time>2019-08-22T07:39:19.000Z</time>
      </trkpt>
      <trkpt lat="45.08178" lon="4.58109">
        <ele>550.77</ele>
        <time>2019-08-22T07:39:29.000Z</time>
      </trkpt>
      <trkpt lat="45.08179" lon="4.58123">
        <ele>549.75</ele>
        <time>2019-08-22T07:39:39.000Z</time>
      </trkpt>
      <trkpt lat="45.08183" lon="4.58137">
        <ele>549.31</ele>
        <time>2019-08-22T07:39:49.000Z</time>
      </trkpt>
      <trkpt lat="45.08186" lon="4.58156">
        <ele>548.28</ele>
        <time>2019-08-22T07:39:59.000Z</time>
      </trkpt>
      <trkpt lat="45.08188" lon="4.58172">
        <ele>547.35</ele>
        <time>2019-08-22T07:40:09.000Z</time>
      </trkpt>
      <trkpt lat="45.08187" lon="4.58188">
        <ele>545.89</ele>
        <time>2019-08-22T07:40:19.000Z</time>
      </trkpt>
      <trkpt lat="45.08185" lon="4.58208">
        <ele>543.98</ele>
        <time>2019-08-22T07:40:29.000Z</time>
      </trkpt>
      <trkpt lat="45.08183" lon="4.58226">
        <ele>542.33</ele>
        <time>2019-08-22T07:40:39.000Z</time>
      </trkpt>
      <trkpt lat="45.08179" lon="4.58243">
        <ele>540.37</ele>
        <time>2019-08-22T07:40:49.000Z</time>
      </trkpt>
      <trkpt lat="45.08176" lon="4.58258">
        <ele>538.8</ele>
        <time>2019-08-22T07:40:59.000Z</time>
      </trkpt>
      <trkpt lat="45.08174" lon="4.58277">
        <ele>536.97</ele>
        <time>2019-08-22T07:41:09.000Z</time>
      </trkpt>
      <trkpt lat="45.08171" lon="4.58291">
        <ele>535.5</ele>
        <time>2019-08-22T07:41:19.000Z</time>
      </trkpt>
      <trkpt lat="45.08166" lon="4.58309">
        <ele>533.6</ele>
        <time>2019-08-22T07:41:29.000Z</time>
      </trkpt>
      <trkpt lat="45.0816" lon="4.5833">
        <ele>531.48</ele>
        <time>2019-08-22T07:41:39.000Z</time>
      </trkpt>
      <trkpt lat="45.08157" lon="4.58349">
        <ele>529.83</ele>
        <time>2019-08-22T07:41:49.000Z</time>
      </trkpt>
      <trkpt lat="45.08155" lon="4.58372">
        <ele>527.97</ele>
        <time>2019-08-22T07:41:59.000Z</time>
      </trkpt>
      <trkpt lat="45.08157" lon="4.58389">
        <ele>527.23</ele>
        <time>2019-08-22T07:42:09.000Z</time>
      </trkpt>
      <trkpt lat="45.08149" lon="4.5839">
        <ele>526.12</ele>
        <time>2019-08-22T07:42:19.000Z</time>
      </trkpt>
      <trkpt lat="45.0814" lon="4.5838">
        <ele>525.29</ele>
        <time>2019-08-22T07:42:29.000Z</time>
      </trkpt>
      <trkpt lat="45.08136" lon="4.58366">
        <ele>525.6</ele>
        <time>2019-08-22T07:42:39.000Z</time>
      </trkpt>
      <trkpt lat="45.08137" lon="4.58347">
        <ele>526.84</ele>
        <time>2019-08-22T07:42:49.000Z</time>
      </trkpt>
      <trkpt lat="45.08139" lon="4.58332">
        <ele>527.92</ele>
        <time>2019-08-22T07:42:59.000Z</time>
      </trkpt>
      <trkpt lat="45.08132" lon="4.58318">
        <ele>527.45</ele>
        <time>2019-08-22T07:43:09.000Z</time>
      </trkpt>
      <trkpt lat="45.0812" lon="4.58312">
        <ele>525.68</ele>
        <time>2019-08-22T07:43:19.000Z</time>
      </trkpt>
      <trkpt lat="45.08105" lon="4.58315">
        <ele>524.16</ele>
        <time>2019-08-22T07:43:29.000Z</time>
      </trkpt>
      <trkpt lat="45.08092" lon="4.58316">
        <ele>524.28</ele>
        <time>2019-08-22T07:43:39.000Z</time>
      </trkpt>
      <trkpt lat="45.08084" lon="4.58317">
        <ele>525.24</ele>
        <time>2019-08-22T07:43:49.000Z</time>
      </trkpt>
      <trkpt lat="45.08078" lon="4.58316">
        <ele>526.5</ele>
        <time>2019-08-22T07:43:59.000Z</time>
      </trkpt>
      <trkpt lat="45.08072" lon="4.58327">
        <ele>528.18</ele>
        <time>2019-08-22T07:44:09.000Z</time>
      </trkpt>
      <trkpt lat="45.08066" lon="4.58341">
        <ele>529.69</ele>
        <time>2019-08-22T07:44:19.000Z</time>
      </trkpt>
      <trkpt lat="45.08062" lon="4.58355">
        <ele>530.24</ele>
        <time>2019-08-22T07:44:29.000Z</time>
      </trkpt>
      <trkpt lat="45.08057" lon="4.5837">
        <ele>531.18</ele>
        <time>2019-08-22T07:44:39.000Z</time>
      </trkpt>
      <trkpt lat="45.08059" lon="4.58386">
        <ele>529.47</ele>
        <time>2019-08-22T07:44:49.000Z</time>
      </trkpt>
      <trkpt lat="45.08058" lon="4.58406">
        <ele>528.47</ele>
        <time>2019-08-22T07:44:59.000Z</time>
      </trkpt>
      <trkpt lat="45.08053" lon="4.58422">
        <ele>529.46</ele>
        <time>2019-08-22T07:45:09.000Z</time>
      </trkpt>
      <trkpt lat="45.08044" lon="4.58439">
        <ele>531.89</ele>
        <time>2019-08-22T07:45:19.000Z</time>
      </trkpt>
      <trkpt lat="45.08045" lon="4.58453">
        <ele>530.84</ele>
        <time>2019-08-22T07:45:29.000Z</time>
      </trkpt>
      <trkpt lat="45.08043" lon="4.58475">
        <ele>530.49</ele>
        <time>2019-08-22T07:45:39.000Z</time>
      </trkpt>
      <trkpt lat="45.08042" lon="4.58492">
        <ele>530.19</ele>
        <time>2019-08-22T07:45:49.000Z</time>
      </trkpt>
      <trkpt lat="45.0804" lon="4.58507">
        <ele>530.7</ele>
        <time>2019-08-22T07:45:59.000Z</time>
      </trkpt>
      <trkpt lat="45.08042" lon="4.58523">
        <ele>529.84</ele>
        <time>2019-08-22T07:46:09.000Z</time>
      </trkpt>
      <trkpt lat="45.0804" lon="4.58543">
        <ele>530.81</ele>
        <time>2019-08-22T07:46:19.000Z</time>
      </trkpt>
      <trkpt lat="45.08038" lon="4.58556">
        <ele>531.37</ele>
        <time>2019-08-22T07:46:29.000Z</time>
      </trkpt>
      <trkpt lat="45.08036" lon="4.58567">
        <ele>532.04</ele>
        <time>2019-08-22T07:46:39.000Z</time>
      </trkpt>
      <trkpt lat="45.08031" lon="4.58584">
        <ele>533.5</ele>
        <time>2019-08-22T07:46:49.000Z</time>
      </trkpt>
      <trkpt lat="45.08021" lon="4.586">
        <ele>536.25</ele>
        <time>2019-08-22T07:46:59.000Z</time>
      </trkpt>
      <trkpt lat="45.08013" lon="4.5861">
        <ele>537.95</ele>
        <time>2019-08-22T07:47:09.000Z</time>
      </trkpt>
      <trkpt lat="45.08004" lon="4.58624">
        <ele>539.28</ele>
        <time>2019-08-22T07:47:19.000Z</time>
      </trkpt>
      <trkpt lat="45.07993" lon="4.58633">
        <ele>540.93</ele>
        <time>2019-08-22T07:47:29.000Z</time>
      </trkpt>
      <trkpt lat="45.07985" lon="4.58637">
        <ele>542.44</ele>
        <time>2019-08-22T07:47:39.000Z</time>
      </trkpt>
      <trkpt lat="45.07976" lon="4.58641">
        <ele>544.4</ele>
        <time>2019-08-22T07:47:49.000Z</time>
      </trkpt>
      <trkpt lat="45.07973" lon="4.58656">
        <ele>544.13</ele>
        <time>2019-08-22T07:47:59.000Z</time>
      </trkpt>
      <trkpt lat="45.07968" lon="4.58679">
        <ele>544.41</ele>
        <time>2019-08-22T07:48:09.000Z</time>
      </trkpt>
      <trkpt lat="45.07964" lon="4.58702">
        <ele>544.74</ele>
        <time>2019-08-22T07:48:19.000Z</time>
      </trkpt>
      <trkpt lat="45.0796" lon="4.58723">
        <ele>545.13</ele>
        <time>2019-08-22T07:48:29.000Z</time>
      </trkpt>
      <trkpt lat="45.07958" lon="4.58737">
        <ele>545.04</ele>
        <time>2019-08-22T07:48:39.000Z</time>
      </trkpt>
      <trkpt lat="45.07959" lon="4.58752">
        <ele>543.81</ele>
        <time>2019-08-22T07:48:49.000Z</time>
      </trkpt>
      <trkpt lat="45.07964" lon="4.5877">
        <ele>541.26</ele>
        <time>2019-08-22T07:48:59.000Z</time>
      </trkpt>
      <trkpt lat="45.0797" lon="4.58788">
        <ele>538.59</ele>
        <time>2019-08-22T07:49:09.000Z</time>
      </trkpt>
      <trkpt lat="45.07976" lon="4.58804">
        <ele>536.34</ele>
        <time>2019-08-22T07:49:19.000Z</time>
      </trkpt>
      <trkpt lat="45.07983" lon="4.58817">
        <ele>534.33</ele>
        <time>2019-08-22T07:49:29.000Z</time>
      </trkpt>
      <trkpt lat="45.07988" lon="4.58834">
        <ele>532.59</ele>
        <time>2019-08-22T07:49:39.000Z</time>
      </trkpt>
      <trkpt lat="45.07991" lon="4.58839">
        <ele>531.87</ele>
        <time>2019-08-22T07:50:00.000Z</time>
      </trkpt>
      <trkpt lat="45.07996" lon="4.58852">
        <ele>530.28</ele>
        <time>2019-08-22T07:50:10.000Z</time>
      </trkpt>
      <trkpt lat="45.08005" lon="4.58867">
        <ele>528.15</ele>
        <time>2019-08-22T07:50:20.000Z</time>
      </trkpt>
      <trkpt lat="45.08013" lon="4.58881">
        <ele>526.05</ele>
        <time>2019-08-22T07:50:30.000Z</time>
      </trkpt>
      <trkpt lat="45.08021" lon="4.58899">
        <ele>523.81</ele>
        <time>2019-08-22T07:50:40.000Z</time>
      </trkpt>
      <trkpt lat="45.08025" lon="4.58916">
        <ele>522.05</ele>
        <time>2019-08-22T07:50:50.000Z</time>
      </trkpt>
      <trkpt lat="45.08024" lon="4.58933">
        <ele>520.99</ele>
        <time>2019-08-22T07:51:00.000Z</time>
      </trkpt>
      <trkpt lat="45.08024" lon="4.58947">
        <ele>519.89</ele>
        <time>2019-08-22T07:51:10.000Z</time>
      </trkpt>
      <trkpt lat="45.08025" lon="4.58962">
        <ele>518.58</ele>
        <time>2019-08-22T07:51:20.000Z</time>
      </trkpt>
      <trkpt lat="45.08029" lon="4.58985">
        <ele>516.32</ele>
        <time>2019-08-22T07:51:30.000Z</time>
      </trkpt>
      <trkpt lat="45.08033" lon="4.59003">
        <ele>514.7</ele>
        <time>2019-08-22T07:51:40.000Z</time>
      </trkpt>
      <trkpt lat="45.08036" lon="4.59019">
        <ele>513.67</ele>
        <time>2019-08-22T07:51:50.000Z</time>
      </trkpt>
      <trkpt lat="45.08045" lon="4.59027">
        <ele>512.36</ele>
        <time>2019-08-22T07:52:00.000Z</time>
      </trkpt>
      <trkpt lat="45.08051" lon="4.5902">
        <ele>512.09</ele>
        <time>2019-08-22T07:52:10.000Z</time>
      </trkpt>
      <trkpt lat="45.08061" lon="4.59012">
        <ele>511.87</ele>
        <time>2019-08-22T07:52:20.000Z</time>
      </trkpt>
      <trkpt lat="45.08069" lon="4.58995">
        <ele>512.52</ele>
        <time>2019-08-22T07:52:30.000Z</time>
      </trkpt>
      <trkpt lat="45.0808" lon="4.58987">
        <ele>513.28</ele>
        <time>2019-08-22T07:52:40.000Z</time>
      </trkpt>
      <trkpt lat="45.08084" lon="4.58989">
        <ele>513.6</ele>
        <time>2019-08-22T07:52:50.000Z</time>
      </trkpt>
      <trkpt lat="45.08091" lon="4.58989">
        <ele>514.49</ele>
        <time>2019-08-22T07:53:00.000Z</time>
      </trkpt>
      <trkpt lat="45.081" lon="4.59001">
        <ele>515.49</ele>
        <time>2019-08-22T07:53:10.000Z</time>
      </trkpt>
      <trkpt lat="45.08105" lon="4.59018">
        <ele>516.19</ele>
        <time>2019-08-22T07:53:20.000Z</time>
      </trkpt>
      <trkpt lat="45.08112" lon="4.59034">
        <ele>517.53</ele>
        <time>2019-08-22T07:53:30.000Z</time>
      </trkpt>
      <trkpt lat="45.08119" lon="4.59052">
        <ele>519.17</ele>
        <time>2019-08-22T07:53:40.000Z</time>
      </trkpt>
      <trkpt lat="45.08122" lon="4.59069">
        <ele>519.6</ele>
        <time>2019-08-22T07:53:50.000Z</time>
      </trkpt>
      <trkpt lat="45.08125" lon="4.59086">
        <ele>520.35</ele>
        <time>2019-08-22T07:54:00.000Z</time>
      </trkpt>
      <trkpt lat="45.08126" lon="4.59104">
        <ele>520.35</ele>
        <time>2019-08-22T07:54:10.000Z</time>
      </trkpt>
      <trkpt lat="45.08129" lon="4.59124">
        <ele>521.38</ele>
        <time>2019-08-22T07:54:20.000Z</time>
      </trkpt>
      <trkpt lat="45.08133" lon="4.5914">
        <ele>522.31</ele>
        <time>2019-08-22T07:54:30.000Z</time>
      </trkpt>
      <trkpt lat="45.08136" lon="4.59153">
        <ele>523.09</ele>
        <time>2019-08-22T07:54:40.000Z</time>
      </trkpt>
      <trkpt lat="45.08134" lon="4.59172">
        <ele>521.69</ele>
        <time>2019-08-22T07:54:50.000Z</time>
      </trkpt>
      <trkpt lat="45.08136" lon="4.59191">
        <ele>521.67</ele>
        <time>2019-08-22T07:55:00.000Z</time>
      </trkpt>
      <trkpt lat="45.08137" lon="4.5921">
        <ele>520.81</ele>
        <time>2019-08-22T07:55:10.000Z</time>
      </trkpt>
      <trkpt lat="45.08139" lon="4.59227">
        <ele>520.24</ele>
        <time>2019-08-22T07:55:20.000Z</time>
      </trkpt>
      <trkpt lat="45.0814" lon="4.59245">
        <ele>519.04</ele>
        <time>2019-08-22T07:55:30.000Z</time>
      </trkpt>
      <trkpt lat="45.08141" lon="4.59266">
        <ele>517.62</ele>
        <time>2019-08-22T07:55:40.000Z</time>
      </trkpt>
      <trkpt lat="45.0815" lon="4.59277">
        <ele>518.35</ele>
        <time>2019-08-22T07:55:50.000Z</time>
      </trkpt>
      <trkpt lat="45.08158" lon="4.59289">
        <ele>518.69</ele>
        <time>2019-08-22T07:56:00.000Z</time>
      </trkpt>
      <trkpt lat="45.08165" lon="4.59307">
        <ele>517.69</ele>
        <time>2019-08-22T07:56:10.000Z</time>
      </trkpt>
      <trkpt lat="45.08175" lon="4.59322">
        <ele>517.56</ele>
        <time>2019-08-22T07:56:20.000Z</time>
      </trkpt>
      <trkpt lat="45.08186" lon="4.59336">
        <ele>518.25</ele>
        <time>2019-08-22T07:56:30.000Z</time>
      </trkpt>
      <trkpt lat="45.08193" lon="4.59353">
        <ele>518.12</ele>
        <time>2019-08-22T07:56:40.000Z</time>
      </trkpt>
      <trkpt lat="45.08197" lon="4.5937">
        <ele>517.82</ele>
        <time>2019-08-22T07:56:50.000Z</time>
      </trkpt>
      <trkpt lat="45.08203" lon="4.59385">
        <ele>517.86</ele>
        <time>2019-08-22T07:57:00.000Z</time>
      </trkpt>
      <trkpt lat="45.08205" lon="4.59403">
        <ele>517.29</ele>
        <time>2019-08-22T07:57:10.000Z</time>
      </trkpt>
      <trkpt lat="45.08209" lon="4.59413">
        <ele>517.46</ele>
        <time>2019-08-22T07:57:20.000Z</time>
      </trkpt>
      <trkpt lat="45.08201" lon="4.5943">
        <ele>515.91</ele>
        <time>2019-08-22T07:57:30.000Z</time>
      </trkpt>
      <trkpt lat="45.08193" lon="4.59441">
        <ele>514.87</ele>
        <time>2019-08-22T07:57:40.000Z</time>
      </trkpt>
      <trkpt lat="45.08186" lon="4.59457">
        <ele>513.98</ele>
        <time>2019-08-22T07:57:50.000Z</time>
      </trkpt>
      <trkpt lat="45.08181" lon="4.59472">
        <ele>513.51</ele>
        <time>2019-08-22T07:58:00.000Z</time>
      </trkpt>
      <trkpt lat="45.08181" lon="4.59487">
        <ele>513.61</ele>
        <time>2019-08-22T07:58:10.000Z</time>
      </trkpt>
      <trkpt lat="45.08179" lon="4.59505">
        <ele>513.5</ele>
        <time>2019-08-22T07:58:20.000Z</time>
      </trkpt>
      <trkpt lat="45.08176" lon="4.59521">
        <ele>513.46</ele>
        <time>2019-08-22T07:58:30.000Z</time>
      </trkpt>
      <trkpt lat="45.08175" lon="4.59541">
        <ele>513.73</ele>
        <time>2019-08-22T07:58:40.000Z</time>
      </trkpt>
      <trkpt lat="45.08176" lon="4.59557">
        <ele>514.15</ele>
        <time>2019-08-22T07:58:50.000Z</time>
      </trkpt>
      <trkpt lat="45.08175" lon="4.59576">
        <ele>514.23</ele>
        <time>2019-08-22T07:59:00.000Z</time>
      </trkpt>
      <trkpt lat="45.08174" lon="4.59594">
        <ele>513.95</ele>
        <time>2019-08-22T07:59:10.000Z</time>
      </trkpt>
      <trkpt lat="45.08172" lon="4.59612">
        <ele>513.43</ele>
        <time>2019-08-22T07:59:20.000Z</time>
      </trkpt>
      <trkpt lat="45.08172" lon="4.59628">
        <ele>513.07</ele>
        <time>2019-08-22T07:59:30.000Z</time>
      </trkpt>
      <trkpt lat="45.08172" lon="4.59646">
        <ele>512.48</ele>
        <time>2019-08-22T07:59:40.000Z</time>
      </trkpt>
      <trkpt lat="45.08173" lon="4.59665">
        <ele>511.81</ele>
        <time>2019-08-22T07:59:50.000Z</time>
      </trkpt>
      <trkpt lat="45.08175" lon="4.59681">
        <ele>510.89</ele>
        <time>2019-08-22T08:00:00.000Z</time>
      </trkpt>
      <trkpt lat="45.08176" lon="4.59701">
        <ele>509.36</ele>
        <time>2019-08-22T08:00:10.000Z</time>
      </trkpt>
      <trkpt lat="45.0818" lon="4.59719">
        <ele>507.89</ele>
        <time>2019-08-22T08:00:20.000Z</time>
      </trkpt>
      <trkpt lat="45.08184" lon="4.59736">
        <ele>506.63</ele>
        <time>2019-08-22T08:00:30.000Z</time>
      </trkpt>
      <trkpt lat="45.08188" lon="4.59753">
        <ele>505.35</ele>
        <time>2019-08-22T08:00:40.000Z</time>
      </trkpt>
      <trkpt lat="45.08194" lon="4.59767">
        <ele>504.44</ele>
        <time>2019-08-22T08:00:50.000Z</time>
      </trkpt>
      <trkpt lat="45.08199" lon="4.59784">
        <ele>502.37</ele>
        <time>2019-08-22T08:01:00.000Z</time>
      </trkpt>
      <trkpt lat="45.08204" lon="4.59802">
        <ele>500.08</ele>
        <time>2019-08-22T08:01:10.000Z</time>
      </trkpt>
      <trkpt lat="45.08208" lon="4.59819">
        <ele>498.28</ele>
        <time>2019-08-22T08:01:20.000Z</time>
      </trkpt>
      <trkpt lat="45.08212" lon="4.59832">
        <ele>497.6</ele>
        <time>2019-08-22T08:01:30.000Z</time>
      </trkpt>
      <trkpt lat="45.08219" lon="4.59848">
        <ele>498.14</ele>
        <time>2019-08-22T08:01:40.000Z</time>
      </trkpt>
      <trkpt lat="45.08226" lon="4.59861">
        <ele>499.84</ele>
        <time>2019-08-22T08:01:50.000Z</time>
      </trkpt>
      <trkpt lat="45.08233" lon="4.5987">
        <ele>501.83</ele>
        <time>2019-08-22T08:02:00.000Z</time>
      </trkpt>
      <trkpt lat="45.08242" lon="4.59879">
        <ele>504.34</ele>
        <time>2019-08-22T08:02:10.000Z</time>
      </trkpt>
      <trkpt lat="45.0825" lon="4.5989">
        <ele>506.78</ele>
        <time>2019-08-22T08:02:20.000Z</time>
      </trkpt>
      <trkpt lat="45.08254" lon="4.59911">
        <ele>509.96</ele>
        <time>2019-08-22T08:02:30.000Z</time>
      </trkpt>
      <trkpt lat="45.08256" lon="4.59929">
        <ele>511.63</ele>
        <time>2019-08-22T08:02:40.000Z</time>
      </trkpt>
      <trkpt lat="45.08259" lon="4.59949">
        <ele>513.25</ele>
        <time>2019-08-22T08:02:50.000Z</time>
      </trkpt>
      <trkpt lat="45.0826" lon="4.5997">
        <ele>514.29</ele>
        <time>2019-08-22T08:03:00.000Z</time>
      </trkpt>
      <trkpt lat="45.08259" lon="4.59989">
        <ele>514.94</ele>
        <time>2019-08-22T08:03:10.000Z</time>
      </trkpt>
      <trkpt lat="45.08258" lon="4.60004">
        <ele>515.26</ele>
        <time>2019-08-22T08:03:20.000Z</time>
      </trkpt>
      <trkpt lat="45.08253" lon="4.60021">
        <ele>514.71</ele>
        <time>2019-08-22T08:03:30.000Z</time>
      </trkpt>
      <trkpt lat="45.08248" lon="4.60036">
        <ele>514.02</ele>
        <time>2019-08-22T08:03:40.000Z</time>
      </trkpt>
      <trkpt lat="45.08246" lon="4.60055">
        <ele>513.39</ele>
        <time>2019-08-22T08:03:50.000Z</time>
      </trkpt>
      <trkpt lat="45.08246" lon="4.60073">
        <ele>513.25</ele>
        <time>2019-08-22T08:04:00.000Z</time>
      </trkpt>
      <trkpt lat="45.08245" lon="4.60093">
        <ele>513.03</ele>
        <time>2019-08-22T08:04:10.000Z</time>
      </trkpt>
      <trkpt lat="45.08245" lon="4.60111">
        <ele>512.92</ele>
        <time>2019-08-22T08:04:20.000Z</time>
      </trkpt>
      <trkpt lat="45.08243" lon="4.60117">
        <ele>512.49</ele>
        <time>2019-08-22T08:04:43.000Z</time>
      </trkpt>
      <trkpt lat="45.08241" lon="4.60124">
        <ele>512.24</ele>
        <time>2019-08-22T08:05:13.000Z</time>
      </trkpt>
      <trkpt lat="45.08247" lon="4.60136">
        <ele>513.53</ele>
        <time>2019-08-22T08:05:23.000Z</time>
      </trkpt>
      <trkpt lat="45.08253" lon="4.6015">
        <ele>514.59</ele>
        <time>2019-08-22T08:05:33.000Z</time>
      </trkpt>
      <trkpt lat="45.08258" lon="4.60161">
        <ele>515.63</ele>
        <time>2019-08-22T08:05:43.000Z</time>
      </trkpt>
      <trkpt lat="45.08262" lon="4.60173">
        <ele>516.44</ele>
        <time>2019-08-22T08:05:53.000Z</time>
      </trkpt>
      <trkpt lat="45.08268" lon="4.60188">
        <ele>517.59</ele>
        <time>2019-08-22T08:06:03.000Z</time>
      </trkpt>
      <trkpt lat="45.08273" lon="4.602">
        <ele>518.36</ele>
        <time>2019-08-22T08:06:13.000Z</time>
      </trkpt>
      <trkpt lat="45.08281" lon="4.60218">
        <ele>519.81</ele>
        <time>2019-08-22T08:06:23.000Z</time>
      </trkpt>
      <trkpt lat="45.08285" lon="4.60231">
        <ele>520.43</ele>
        <time>2019-08-22T08:06:33.000Z</time>
      </trkpt>
      <trkpt lat="45.08286" lon="4.60247">
        <ele>520.58</ele>
        <time>2019-08-22T08:06:43.000Z</time>
      </trkpt>
      <trkpt lat="45.08286" lon="4.60264">
        <ele>520.66</ele>
        <time>2019-08-22T08:06:53.000Z</time>
      </trkpt>
      <trkpt lat="45.08293" lon="4.60275">
        <ele>522.19</ele>
        <time>2019-08-22T08:07:03.000Z</time>
      </trkpt>
      <trkpt lat="45.08297" lon="4.60269">
        <ele>523.07</ele>
        <time>2019-08-22T08:07:13.000Z</time>
      </trkpt>
      <trkpt lat="45.08297" lon="4.60255">
        <ele>523.08</ele>
        <time>2019-08-22T08:07:23.000Z</time>
      </trkpt>
      <trkpt lat="45.08299" lon="4.60241">
        <ele>523.54</ele>
        <time>2019-08-22T08:07:33.000Z</time>
      </trkpt>
      <trkpt lat="45.08303" lon="4.60226">
        <ele>524.74</ele>
        <time>2019-08-22T08:07:43.000Z</time>
      </trkpt>
      <trkpt lat="45.08306" lon="4.60213">
        <ele>525.55</ele>
        <time>2019-08-22T08:07:53.000Z</time>
      </trkpt>
      <trkpt lat="45.08306" lon="4.60206">
        <ele>525.86</ele>
        <time>2019-08-22T08:08:04.000Z</time>
      </trkpt>
      <trkpt lat="45.08308" lon="4.60188">
        <ele>526.64</ele>
        <time>2019-08-22T08:08:14.000Z</time>
      </trkpt>
      <trkpt lat="45.0831" lon="4.60173">
        <ele>527.16</ele>
        <time>2019-08-22T08:08:24.000Z</time>
      </trkpt>
      <trkpt lat="45.08312" lon="4.60159">
        <ele>527.58</ele>
        <time>2019-08-22T08:08:34.000Z</time>
      </trkpt>
      <trkpt lat="45.08316" lon="4.60151">
        <ele>528.56</ele>
        <time>2019-08-22T08:08:44.000Z</time>
      </trkpt>
      <trkpt lat="45.08322" lon="4.60139">
        <ele>529.96</ele>
        <time>2019-08-22T08:08:54.000Z</time>
      </trkpt>
      <trkpt lat="45.0833" lon="4.60126">
        <ele>531.59</ele>
        <time>2019-08-22T08:09:04.000Z</time>
      </trkpt>
      <trkpt lat="45.08338" lon="4.60117">
        <ele>533.49</ele>
        <time>2019-08-22T08:09:14.000Z</time>
      </trkpt>
      <trkpt lat="45.08341" lon="4.60108">
        <ele>533.86</ele>
        <time>2019-08-22T08:09:24.000Z</time>
      </trkpt>
      <trkpt lat="45.08343" lon="4.60094">
        <ele>533.64</ele>
        <time>2019-08-22T08:09:34.000Z</time>
      </trkpt>
      <trkpt lat="45.08342" lon="4.60085">
        <ele>532.98</ele>
        <time>2019-08-22T08:11:42.000Z</time>
      </trkpt>
      <trkpt lat="45.0834" lon="4.60075">
        <ele>532.11</ele>
        <time>2019-08-22T08:11:52.000Z</time>
      </trkpt>
      <trkpt lat="45.08336" lon="4.60072">
        <ele>530.99</ele>
        <time>2019-08-22T08:12:11.000Z</time>
      </trkpt>
      <trkpt lat="45.08332" lon="4.60072">
        <ele>529.95</ele>
        <time>2019-08-22T08:12:23.000Z</time>
      </trkpt>
      <trkpt lat="45.08333" lon="4.60078">
        <ele>530.71</ele>
        <time>2019-08-22T08:12:33.000Z</time>
      </trkpt>
      <trkpt lat="45.08339" lon="4.60072">
        <ele>531.51</ele>
        <time>2019-08-22T08:12:43.000Z</time>
      </trkpt>
      <trkpt lat="45.08346" lon="4.60062">
        <ele>532.45</ele>
        <time>2019-08-22T08:12:53.000Z</time>
      </trkpt>
      <trkpt lat="45.08355" lon="4.6005">
        <ele>533.36</ele>
        <time>2019-08-22T08:13:03.000Z</time>
      </trkpt>
      <trkpt lat="45.08363" lon="4.60039">
        <ele>534.11</ele>
        <time>2019-08-22T08:13:13.000Z</time>
      </trkpt>
      <trkpt lat="45.08374" lon="4.6003">
        <ele>535.49</ele>
        <time>2019-08-22T08:13:23.000Z</time>
      </trkpt>
      <trkpt lat="45.08384" lon="4.60023">
        <ele>537.09</ele>
        <time>2019-08-22T08:13:33.000Z</time>
      </trkpt>
      <trkpt lat="45.08395" lon="4.60015">
        <ele>538.14</ele>
        <time>2019-08-22T08:13:43.000Z</time>
      </trkpt>
      <trkpt lat="45.08403" lon="4.6001">
        <ele>539</ele>
        <time>2019-08-22T08:13:53.000Z</time>
      </trkpt>
      <trkpt lat="45.08413" lon="4.60011">
        <ele>540.91</ele>
        <time>2019-08-22T08:14:03.000Z</time>
      </trkpt>
      <trkpt lat="45.08423" lon="4.60012">
        <ele>542.64</ele>
        <time>2019-08-22T08:14:13.000Z</time>
      </trkpt>
      <trkpt lat="45.08433" lon="4.60018">
        <ele>545.09</ele>
        <time>2019-08-22T08:14:23.000Z</time>
      </trkpt>
      <trkpt lat="45.08444" lon="4.60023">
        <ele>547.27</ele>
        <time>2019-08-22T08:14:33.000Z</time>
      </trkpt>
      <trkpt lat="45.08454" lon="4.60023">
        <ele>548.64</ele>
        <time>2019-08-22T08:14:43.000Z</time>
      </trkpt>
      <trkpt lat="45.08468" lon="4.60018">
        <ele>549.66</ele>
        <time>2019-08-22T08:14:53.000Z</time>
      </trkpt>
      <trkpt lat="45.08478" lon="4.60019">
        <ele>550.83</ele>
        <time>2019-08-22T08:15:03.000Z</time>
      </trkpt>
      <trkpt lat="45.08495" lon="4.60021">
        <ele>552.59</ele>
        <time>2019-08-22T08:15:13.000Z</time>
      </trkpt>
      <trkpt lat="45.08509" lon="4.60029">
        <ele>554.57</ele>
        <time>2019-08-22T08:15:23.000Z</time>
      </trkpt>
      <trkpt lat="45.08518" lon="4.60034">
        <ele>555.79</ele>
        <time>2019-08-22T08:15:33.000Z</time>
      </trkpt>
      <trkpt lat="45.08528" lon="4.60042">
        <ele>557.38</ele>
        <time>2019-08-22T08:15:43.000Z</time>
      </trkpt>
      <trkpt lat="45.08538" lon="4.6005">
        <ele>558.91</ele>
        <time>2019-08-22T08:15:53.000Z</time>
      </trkpt>
      <trkpt lat="45.08548" lon="4.60056">
        <ele>560.08</ele>
        <time>2019-08-22T08:16:03.000Z</time>
      </trkpt>
      <trkpt lat="45.08559" lon="4.60061">
        <ele>560.73</ele>
        <time>2019-08-22T08:16:13.000Z</time>
      </trkpt>
      <trkpt lat="45.0857" lon="4.60062">
        <ele>560.52</ele>
        <time>2019-08-22T08:16:23.000Z</time>
      </trkpt>
      <trkpt lat="45.08581" lon="4.60069">
        <ele>561.34</ele>
        <time>2019-08-22T08:16:33.000Z</time>
      </trkpt>
      <trkpt lat="45.08591" lon="4.60077">
        <ele>562.34</ele>
        <time>2019-08-22T08:16:43.000Z</time>
      </trkpt>
      <trkpt lat="45.086" lon="4.60085">
        <ele>562.99</ele>
        <time>2019-08-22T08:16:53.000Z</time>
      </trkpt>
      <trkpt lat="45.0861" lon="4.60096">
        <ele>563.96</ele>
        <time>2019-08-22T08:17:03.000Z</time>
      </trkpt>
      <trkpt lat="45.08617" lon="4.60107">
        <ele>565.2</ele>
        <time>2019-08-22T08:17:13.000Z</time>
      </trkpt>
      <trkpt lat="45.08627" lon="4.60123">
        <ele>567.24</ele>
        <time>2019-08-22T08:17:23.000Z</time>
      </trkpt>
      <trkpt lat="45.08638" lon="4.60134">
        <ele>568.46</ele>
        <time>2019-08-22T08:17:33.000Z</time>
      </trkpt>
      <trkpt lat="45.08648" lon="4.60141">
        <ele>569.12</ele>
        <time>2019-08-22T08:17:43.000Z</time>
      </trkpt>
      <trkpt lat="45.08656" lon="4.60152">
        <ele>570.74</ele>
        <time>2019-08-22T08:17:53.000Z</time>
      </trkpt>
      <trkpt lat="45.08667" lon="4.60161">
        <ele>571.61</ele>
        <time>2019-08-22T08:18:03.000Z</time>
      </trkpt>
      <trkpt lat="45.08677" lon="4.6017">
        <ele>572.39</ele>
        <time>2019-08-22T08:18:13.000Z</time>
      </trkpt>
      <trkpt lat="45.08687" lon="4.60183">
        <ele>573.91</ele>
        <time>2019-08-22T08:18:23.000Z</time>
      </trkpt>
      <trkpt lat="45.08696" lon="4.60197">
        <ele>575.73</ele>
        <time>2019-08-22T08:18:33.000Z</time>
      </trkpt>
      <trkpt lat="45.08706" lon="4.60209">
        <ele>577.26</ele>
        <time>2019-08-22T08:18:43.000Z</time>
      </trkpt>
      <trkpt lat="45.08713" lon="4.60225">
        <ele>579.95</ele>
        <time>2019-08-22T08:18:53.000Z</time>
      </trkpt>
      <trkpt lat="45.08722" lon="4.60234">
        <ele>580.67</ele>
        <time>2019-08-22T08:19:03.000Z</time>
      </trkpt>
      <trkpt lat="45.08729" lon="4.60248">
        <ele>582.9</ele>
        <time>2019-08-22T08:19:13.000Z</time>
      </trkpt>
      <trkpt lat="45.08737" lon="4.6026">
        <ele>584.25</ele>
        <time>2019-08-22T08:19:23.000Z</time>
      </trkpt>
      <trkpt lat="45.08746" lon="4.60272">
        <ele>584.93</ele>
        <time>2019-08-22T08:19:33.000Z</time>
      </trkpt>
      <trkpt lat="45.08751" lon="4.60283">
        <ele>586.12</ele>
        <time>2019-08-22T08:19:43.000Z</time>
      </trkpt>
      <trkpt lat="45.08755" lon="4.60277">
        <ele>584.41</ele>
        <time>2019-08-22T08:20:12.000Z</time>
      </trkpt>
      <trkpt lat="45.08751" lon="4.6027">
        <ele>583.75</ele>
        <time>2019-08-22T08:20:22.000Z</time>
      </trkpt>
      <trkpt lat="45.08754" lon="4.60265">
        <ele>582.26</ele>
        <time>2019-08-22T08:20:32.000Z</time>
      </trkpt>
      <trkpt lat="45.08747" lon="4.60263">
        <ele>583.03</ele>
        <time>2019-08-22T08:20:42.000Z</time>
      </trkpt>
      <trkpt lat="45.08743" lon="4.60259">
        <ele>583.03</ele>
        <time>2019-08-22T08:20:54.000Z</time>
      </trkpt>
      <trkpt lat="45.08735" lon="4.60257">
        <ele>583.82</ele>
        <time>2019-08-22T08:21:04.000Z</time>
      </trkpt>
      <trkpt lat="45.08725" lon="4.60252">
        <ele>584.31</ele>
        <time>2019-08-22T08:21:14.000Z</time>
      </trkpt>
      <trkpt lat="45.08714" lon="4.60248">
        <ele>585.01</ele>
        <time>2019-08-22T08:21:24.000Z</time>
      </trkpt>
      <trkpt lat="45.08702" lon="4.60241">
        <ele>585.11</ele>
        <time>2019-08-22T08:21:34.000Z</time>
      </trkpt>
      <trkpt lat="45.0869" lon="4.60236">
        <ele>585.49</ele>
        <time>2019-08-22T08:21:44.000Z</time>
      </trkpt>
      <trkpt lat="45.08678" lon="4.60234">
        <ele>586.1</ele>
        <time>2019-08-22T08:21:54.000Z</time>
      </trkpt>
      <trkpt lat="45.08664" lon="4.60232">
        <ele>586.71</ele>
        <time>2019-08-22T08:22:04.000Z</time>
      </trkpt>
      <trkpt lat="45.08649" lon="4.60231">
        <ele>586.94</ele>
        <time>2019-08-22T08:22:14.000Z</time>
      </trkpt>
      <trkpt lat="45.08636" lon="4.60238">
        <ele>588.19</ele>
        <time>2019-08-22T08:22:24.000Z</time>
      </trkpt>
      <trkpt lat="45.08625" lon="4.60246">
        <ele>589.17</ele>
        <time>2019-08-22T08:22:34.000Z</time>
      </trkpt>
      <trkpt lat="45.08618" lon="4.60257">
        <ele>590.43</ele>
        <time>2019-08-22T08:22:44.000Z</time>
      </trkpt>
      <trkpt lat="45.0861" lon="4.60271">
        <ele>591.9</ele>
        <time>2019-08-22T08:22:54.000Z</time>
      </trkpt>
      <trkpt lat="45.08602" lon="4.60283">
        <ele>592.77</ele>
        <time>2019-08-22T08:23:04.000Z</time>
      </trkpt>
      <trkpt lat="45.08592" lon="4.60293">
        <ele>592.9</ele>
        <time>2019-08-22T08:23:14.000Z</time>
      </trkpt>
      <trkpt lat="45.08581" lon="4.60304">
        <ele>593.07</ele>
        <time>2019-08-22T08:23:24.000Z</time>
      </trkpt>
      <trkpt lat="45.08569" lon="4.60315">
        <ele>592.74</ele>
        <time>2019-08-22T08:23:34.000Z</time>
      </trkpt>
      <trkpt lat="45.08559" lon="4.60329">
        <ele>592.9</ele>
        <time>2019-08-22T08:23:44.000Z</time>
      </trkpt>
      <trkpt lat="45.08547" lon="4.60341">
        <ele>592.39</ele>
        <time>2019-08-22T08:23:54.000Z</time>
      </trkpt>
      <trkpt lat="45.08541" lon="4.60353">
        <ele>592.64</ele>
        <time>2019-08-22T08:24:04.000Z</time>
      </trkpt>
      <trkpt lat="45.08533" lon="4.60367">
        <ele>592.42</ele>
        <time>2019-08-22T08:24:14.000Z</time>
      </trkpt>
      <trkpt lat="45.08527" lon="4.60383">
        <ele>592.85</ele>
        <time>2019-08-22T08:24:24.000Z</time>
      </trkpt>
      <trkpt lat="45.08522" lon="4.60403">
        <ele>593.66</ele>
        <time>2019-08-22T08:24:34.000Z</time>
      </trkpt>
      <trkpt lat="45.08519" lon="4.6042">
        <ele>594.73</ele>
        <time>2019-08-22T08:24:44.000Z</time>
      </trkpt>
      <trkpt lat="45.08517" lon="4.60434">
        <ele>595.38</ele>
        <time>2019-08-22T08:24:54.000Z</time>
      </trkpt>
      <trkpt lat="45.08513" lon="4.60452">
        <ele>596.04</ele>
        <time>2019-08-22T08:25:04.000Z</time>
      </trkpt>
      <trkpt lat="45.08508" lon="4.6047">
        <ele>596.52</ele>
        <time>2019-08-22T08:25:14.000Z</time>
      </trkpt>
      <trkpt lat="45.08506" lon="4.60483">
        <ele>597.18</ele>
        <time>2019-08-22T08:25:24.000Z</time>
      </trkpt>
      <trkpt lat="45.085" lon="4.60501">
        <ele>597.07</ele>
        <time>2019-08-22T08:25:34.000Z</time>
      </trkpt>
      <trkpt lat="45.08494" lon="4.60514">
        <ele>596.47</ele>
        <time>2019-08-22T08:25:44.000Z</time>
      </trkpt>
      <trkpt lat="45.08486" lon="4.6053">
        <ele>595.51</ele>
        <time>2019-08-22T08:25:54.000Z</time>
      </trkpt>
      <trkpt lat="45.08477" lon="4.60544">
        <ele>594.25</ele>
        <time>2019-08-22T08:26:04.000Z</time>
      </trkpt>
      <trkpt lat="45.0847" lon="4.60561">
        <ele>593.76</ele>
        <time>2019-08-22T08:26:14.000Z</time>
      </trkpt>
      <trkpt lat="45.08464" lon="4.60579">
        <ele>593.47</ele>
        <time>2019-08-22T08:26:24.000Z</time>
      </trkpt>
      <trkpt lat="45.08463" lon="4.60598">
        <ele>594.29</ele>
        <time>2019-08-22T08:26:34.000Z</time>
      </trkpt>
      <trkpt lat="45.08456" lon="4.60613">
        <ele>593.14</ele>
        <time>2019-08-22T08:26:44.000Z</time>
      </trkpt>
      <trkpt lat="45.08453" lon="4.60627">
        <ele>605.7</ele>
      </trkpt>
      <trkpt lat="45.0845" lon="4.60638">
        <ele>605.6</ele>
      </trkpt>
      <trkpt lat="45.08446" lon="4.6065">
        <ele>605</ele>
      </trkpt>
      <trkpt lat="45.08438" lon="4.60664">
        <ele>603.4</ele>
      </trkpt>
      <trkpt lat="45.08432" lon="4.60676">
        <ele>603.3</ele>
      </trkpt>
      <trkpt lat="45.08428" lon="4.60686">
        <ele>603.5</ele>
      </trkpt>
      <trkpt lat="45.08418" lon="4.60703">
        <ele>603.6</ele>
      </trkpt>
      <trkpt lat="45.08412" lon="4.60717">
        <ele>584.05</ele>
        <time>2019-08-22T08:31:38.000Z</time>
      </trkpt>
      <trkpt lat="45.08408" lon="4.60721">
        <ele>583.06</ele>
        <time>2019-08-22T08:31:59.000Z</time>
      </trkpt>
      <trkpt lat="45.08403" lon="4.60737">
        <ele>581.56</ele>
        <time>2019-08-22T08:32:09.000Z</time>
      </trkpt>
      <trkpt lat="45.08401" lon="4.6075">
        <ele>580.66</ele>
        <time>2019-08-22T08:32:19.000Z</time>
      </trkpt>
      <trkpt lat="45.08398" lon="4.60762">
        <ele>579.47</ele>
        <time>2019-08-22T08:32:29.000Z</time>
      </trkpt>
      <trkpt lat="45.084" lon="4.6078">
        <ele>578.58</ele>
        <time>2019-08-22T08:32:39.000Z</time>
      </trkpt>
      <trkpt lat="45.08401" lon="4.60797">
        <ele>577.55</ele>
        <time>2019-08-22T08:32:49.000Z</time>
      </trkpt>
      <trkpt lat="45.08402" lon="4.60815">
        <ele>576.29</ele>
        <time>2019-08-22T08:32:59.000Z</time>
      </trkpt>
      <trkpt lat="45.08405" lon="4.60832">
        <ele>575.3</ele>
        <time>2019-08-22T08:33:09.000Z</time>
      </trkpt>
      <trkpt lat="45.08413" lon="4.60846">
        <ele>575.8</ele>
        <time>2019-08-22T08:33:19.000Z</time>
      </trkpt>
      <trkpt lat="45.0842" lon="4.6086">
        <ele>575.66</ele>
        <time>2019-08-22T08:33:29.000Z</time>
      </trkpt>
      <trkpt lat="45.08424" lon="4.60871">
        <ele>575.16</ele>
        <time>2019-08-22T08:33:39.000Z</time>
      </trkpt>
      <trkpt lat="45.08433" lon="4.60891">
        <ele>574.64</ele>
        <time>2019-08-22T08:33:49.000Z</time>
      </trkpt>
      <trkpt lat="45.08434" lon="4.60909">
        <ele>572.54</ele>
        <time>2019-08-22T08:33:59.000Z</time>
      </trkpt>
      <trkpt lat="45.08434" lon="4.60926">
        <ele>570.31</ele>
        <time>2019-08-22T08:34:09.000Z</time>
      </trkpt>
      <trkpt lat="45.08437" lon="4.60943">
        <ele>568.72</ele>
        <time>2019-08-22T08:34:19.000Z</time>
      </trkpt>
      <trkpt lat="45.08439" lon="4.60963">
        <ele>566.66</ele>
        <time>2019-08-22T08:34:29.000Z</time>
      </trkpt>
      <trkpt lat="45.0844" lon="4.6098">
        <ele>564.45</ele>
        <time>2019-08-22T08:34:39.000Z</time>
      </trkpt>
      <trkpt lat="45.08442" lon="4.60999">
        <ele>562.84</ele>
        <time>2019-08-22T08:34:49.000Z</time>
      </trkpt>
      <trkpt lat="45.08447" lon="4.61016">
        <ele>562.77</ele>
        <time>2019-08-22T08:34:59.000Z</time>
      </trkpt>
      <trkpt lat="45.0845" lon="4.61033">
        <ele>562.18</ele>
        <time>2019-08-22T08:35:09.000Z</time>
      </trkpt>
      <trkpt lat="45.08454" lon="4.61052">
        <ele>561.58</ele>
        <time>2019-08-22T08:35:19.000Z</time>
      </trkpt>
      <trkpt lat="45.08457" lon="4.61068">
        <ele>561.25</ele>
        <time>2019-08-22T08:35:29.000Z</time>
      </trkpt>
      <trkpt lat="45.08463" lon="4.61084">
        <ele>561.8</ele>
        <time>2019-08-22T08:35:39.000Z</time>
      </trkpt>
      <trkpt lat="45.08469" lon="4.61102">
        <ele>561.2</ele>
        <time>2019-08-22T08:35:49.000Z</time>
      </trkpt>
      <trkpt lat="45.08475" lon="4.61119">
        <ele>560.54</ele>
        <time>2019-08-22T08:35:59.000Z</time>
      </trkpt>
      <trkpt lat="45.08477" lon="4.61139">
        <ele>558.24</ele>
        <time>2019-08-22T08:36:09.000Z</time>
      </trkpt>
      <trkpt lat="45.08482" lon="4.61157">
        <ele>557.58</ele>
        <time>2019-08-22T08:36:19.000Z</time>
      </trkpt>
      <trkpt lat="45.08488" lon="4.61175">
        <ele>558.36</ele>
        <time>2019-08-22T08:36:29.000Z</time>
      </trkpt>
      <trkpt lat="45.0849" lon="4.61194">
        <ele>558.95</ele>
        <time>2019-08-22T08:36:39.000Z</time>
      </trkpt>
      <trkpt lat="45.08495" lon="4.61212">
        <ele>560.57</ele>
        <time>2019-08-22T08:36:49.000Z</time>
      </trkpt>
      <trkpt lat="45.08495" lon="4.61223">
        <ele>561.29</ele>
        <time>2019-08-22T08:36:59.000Z</time>
      </trkpt>
      <trkpt lat="45.08486" lon="4.61227">
        <ele>560.48</ele>
        <time>2019-08-22T08:37:09.000Z</time>
      </trkpt>
      <trkpt lat="45.08473" lon="4.61228">
        <ele>559.4</ele>
        <time>2019-08-22T08:37:19.000Z</time>
      </trkpt>
      <trkpt lat="45.08462" lon="4.61234">
        <ele>559.59</ele>
        <time>2019-08-22T08:37:29.000Z</time>
      </trkpt>
      <trkpt lat="45.08454" lon="4.6124">
        <ele>560.16</ele>
        <time>2019-08-22T08:37:39.000Z</time>
      </trkpt>
      <trkpt lat="45.08443" lon="4.61246">
        <ele>561.05</ele>
        <time>2019-08-22T08:37:49.000Z</time>
      </trkpt>
      <trkpt lat="45.08434" lon="4.61255">
        <ele>562.24</ele>
        <time>2019-08-22T08:37:59.000Z</time>
      </trkpt>
      <trkpt lat="45.08419" lon="4.61265">
        <ele>563.56</ele>
        <time>2019-08-22T08:38:09.000Z</time>
      </trkpt>
      <trkpt lat="45.08406" lon="4.61274">
        <ele>564.62</ele>
        <time>2019-08-22T08:38:19.000Z</time>
      </trkpt>
      <trkpt lat="45.08393" lon="4.61283">
        <ele>565.5</ele>
        <time>2019-08-22T08:38:29.000Z</time>
      </trkpt>
      <trkpt lat="45.08379" lon="4.61292">
        <ele>566.11</ele>
        <time>2019-08-22T08:38:39.000Z</time>
      </trkpt>
      <trkpt lat="45.08369" lon="4.61302">
        <ele>566.75</ele>
        <time>2019-08-22T08:38:49.000Z</time>
      </trkpt>
      <trkpt lat="45.08356" lon="4.61313">
        <ele>566.97</ele>
        <time>2019-08-22T08:38:59.000Z</time>
      </trkpt>
      <trkpt lat="45.08345" lon="4.61323">
        <ele>566.69</ele>
        <time>2019-08-22T08:39:09.000Z</time>
      </trkpt>
      <trkpt lat="45.08334" lon="4.61334">
        <ele>566.11</ele>
        <time>2019-08-22T08:39:19.000Z</time>
      </trkpt>
      <trkpt lat="45.08324" lon="4.61345">
        <ele>565.14</ele>
        <time>2019-08-22T08:39:29.000Z</time>
      </trkpt>
      <trkpt lat="45.08314" lon="4.61357">
        <ele>563.85</ele>
        <time>2019-08-22T08:39:39.000Z</time>
      </trkpt>
      <trkpt lat="45.08307" lon="4.61373">
        <ele>562.83</ele>
        <time>2019-08-22T08:39:49.000Z</time>
      </trkpt>
      <trkpt lat="45.08305" lon="4.61389">
        <ele>562.29</ele>
        <time>2019-08-22T08:39:59.000Z</time>
      </trkpt>
      <trkpt lat="45.08306" lon="4.61407">
        <ele>562.26</ele>
        <time>2019-08-22T08:40:09.000Z</time>
      </trkpt>
      <trkpt lat="45.08309" lon="4.61424">
        <ele>562.24</ele>
        <time>2019-08-22T08:40:19.000Z</time>
      </trkpt>
      <trkpt lat="45.08309" lon="4.61444">
        <ele>561.31</ele>
        <time>2019-08-22T08:40:29.000Z</time>
      </trkpt>
      <trkpt lat="45.08309" lon="4.61463">
        <ele>559.77</ele>
        <time>2019-08-22T08:40:39.000Z</time>
      </trkpt>
      <trkpt lat="45.08313" lon="4.61482">
        <ele>559.16</ele>
        <time>2019-08-22T08:40:49.000Z</time>
      </trkpt>
      <trkpt lat="45.08315" lon="4.615">
        <ele>558.07</ele>
        <time>2019-08-22T08:40:59.000Z</time>
      </trkpt>
      <trkpt lat="45.08318" lon="4.61521">
        <ele>557.01</ele>
        <time>2019-08-22T08:41:09.000Z</time>
      </trkpt>
      <trkpt lat="45.08318" lon="4.61538">
        <ele>555.32</ele>
        <time>2019-08-22T08:41:19.000Z</time>
      </trkpt>
      <trkpt lat="45.08315" lon="4.61557">
        <ele>552.45</ele>
        <time>2019-08-22T08:41:29.000Z</time>
      </trkpt>
      <trkpt lat="45.08317" lon="4.61576">
        <ele>551.17</ele>
        <time>2019-08-22T08:41:39.000Z</time>
      </trkpt>
      <trkpt lat="45.08322" lon="4.61593">
        <ele>551.22</ele>
        <time>2019-08-22T08:41:49.000Z</time>
      </trkpt>
      <trkpt lat="45.08326" lon="4.61603">
        <ele>551.31</ele>
        <time>2019-08-22T08:41:59.000Z</time>
      </trkpt>
      <trkpt lat="45.08329" lon="4.61617">
        <ele>551.09</ele>
        <time>2019-08-22T08:42:09.000Z</time>
      </trkpt>
      <trkpt lat="45.08336" lon="4.61632">
        <ele>551.71</ele>
        <time>2019-08-22T08:42:19.000Z</time>
      </trkpt>
      <trkpt lat="45.08341" lon="4.61654">
        <ele>551.61</ele>
        <time>2019-08-22T08:42:29.000Z</time>
      </trkpt>
      <trkpt lat="45.08347" lon="4.6167">
        <ele>552.17</ele>
        <time>2019-08-22T08:42:39.000Z</time>
      </trkpt>
      <trkpt lat="45.08353" lon="4.61689">
        <ele>552.8</ele>
        <time>2019-08-22T08:42:49.000Z</time>
      </trkpt>
      <trkpt lat="45.08358" lon="4.61706">
        <ele>553.55</ele>
        <time>2019-08-22T08:42:59.000Z</time>
      </trkpt>
      <trkpt lat="45.08365" lon="4.61721">
        <ele>554.8</ele>
        <time>2019-08-22T08:43:09.000Z</time>
      </trkpt>
      <trkpt lat="45.0837" lon="4.61737">
        <ele>555.39</ele>
        <time>2019-08-22T08:43:19.000Z</time>
      </trkpt>
      <trkpt lat="45.08378" lon="4.6175">
        <ele>556.69</ele>
        <time>2019-08-22T08:43:29.000Z</time>
      </trkpt>
      <trkpt lat="45.08387" lon="4.61765">
        <ele>558.22</ele>
        <time>2019-08-22T08:43:39.000Z</time>
      </trkpt>
      <trkpt lat="45.08393" lon="4.61777">
        <ele>559.08</ele>
        <time>2019-08-22T08:43:49.000Z</time>
      </trkpt>
      <trkpt lat="45.08399" lon="4.61793">
        <ele>560.21</ele>
        <time>2019-08-22T08:43:59.000Z</time>
      </trkpt>
      <trkpt lat="45.08405" lon="4.61812">
        <ele>561.04</ele>
        <time>2019-08-22T08:44:09.000Z</time>
      </trkpt>
      <trkpt lat="45.0841" lon="4.61832">
        <ele>561.67</ele>
        <time>2019-08-22T08:44:19.000Z</time>
      </trkpt>
      <trkpt lat="45.08412" lon="4.61848">
        <ele>561.17</ele>
        <time>2019-08-22T08:44:29.000Z</time>
      </trkpt>
      <trkpt lat="45.08412" lon="4.6187">
        <ele>559.82</ele>
        <time>2019-08-22T08:44:39.000Z</time>
      </trkpt>
      <trkpt lat="45.08413" lon="4.6189">
        <ele>558.9</ele>
        <time>2019-08-22T08:44:49.000Z</time>
      </trkpt>
      <trkpt lat="45.08413" lon="4.6191">
        <ele>558.13</ele>
        <time>2019-08-22T08:44:59.000Z</time>
      </trkpt>
      <trkpt lat="45.08414" lon="4.61929">
        <ele>558.32</ele>
        <time>2019-08-22T08:45:09.000Z</time>
      </trkpt>
      <trkpt lat="45.08412" lon="4.61948">
        <ele>558.43</ele>
        <time>2019-08-22T08:45:19.000Z</time>
      </trkpt>
      <trkpt lat="45.08412" lon="4.61967">
        <ele>559.16</ele>
        <time>2019-08-22T08:45:29.000Z</time>
      </trkpt>
      <trkpt lat="45.08407" lon="4.61985">
        <ele>558.84</ele>
        <time>2019-08-22T08:45:39.000Z</time>
      </trkpt>
      <trkpt lat="45.084" lon="4.62001">
        <ele>558.32</ele>
        <time>2019-08-22T08:45:49.000Z</time>
      </trkpt>
      <trkpt lat="45.08394" lon="4.62017">
        <ele>557.97</ele>
        <time>2019-08-22T08:45:59.000Z</time>
      </trkpt>
      <trkpt lat="45.08389" lon="4.62034">
        <ele>558.17</ele>
        <time>2019-08-22T08:46:09.000Z</time>
      </trkpt>
      <trkpt lat="45.08386" lon="4.62052">
        <ele>558.84</ele>
        <time>2019-08-22T08:46:19.000Z</time>
      </trkpt>
      <trkpt lat="45.08385" lon="4.62066">
        <ele>559.72</ele>
        <time>2019-08-22T08:46:29.000Z</time>
      </trkpt>
      <trkpt lat="45.08383" lon="4.6208">
        <ele>560.31</ele>
        <time>2019-08-22T08:46:39.000Z</time>
      </trkpt>
      <trkpt lat="45.08379" lon="4.62095">
        <ele>560.61</ele>
        <time>2019-08-22T08:46:49.000Z</time>
      </trkpt>
      <trkpt lat="45.08374" lon="4.62112">
        <ele>560.93</ele>
        <time>2019-08-22T08:46:59.000Z</time>
      </trkpt>
      <trkpt lat="45.08375" lon="4.62129">
        <ele>562.27</ele>
        <time>2019-08-22T08:47:09.000Z</time>
      </trkpt>
      <trkpt lat="45.08378" lon="4.62142">
        <ele>563.47</ele>
        <time>2019-08-22T08:47:19.000Z</time>
      </trkpt>
      <trkpt lat="45.08383" lon="4.62155">
        <ele>564.59</ele>
        <time>2019-08-22T08:47:29.000Z</time>
      </trkpt>
      <trkpt lat="45.08391" lon="4.6217">
        <ele>565.77</ele>
        <time>2019-08-22T08:47:39.000Z</time>
      </trkpt>
      <trkpt lat="45.084" lon="4.62182">
        <ele>566.65</ele>
        <time>2019-08-22T08:47:49.000Z</time>
      </trkpt>
      <trkpt lat="45.08394" lon="4.6218">
        <ele>566</ele>
        <time>2019-08-22T08:47:59.000Z</time>
      </trkpt>
      <trkpt lat="45.08383" lon="4.6219">
        <ele>564.68</ele>
        <time>2019-08-22T08:48:09.000Z</time>
      </trkpt>
      <trkpt lat="45.08372" lon="4.62203">
        <ele>563.47</ele>
        <time>2019-08-22T08:48:19.000Z</time>
      </trkpt>
      <trkpt lat="45.08364" lon="4.62219">
        <ele>562.49</ele>
        <time>2019-08-22T08:48:29.000Z</time>
      </trkpt>
      <trkpt lat="45.08356" lon="4.62234">
        <ele>561.63</ele>
        <time>2019-08-22T08:48:39.000Z</time>
      </trkpt>
      <trkpt lat="45.0835" lon="4.62251">
        <ele>560.88</ele>
        <time>2019-08-22T08:48:49.000Z</time>
      </trkpt>
      <trkpt lat="45.08345" lon="4.62268">
        <ele>560.05</ele>
        <time>2019-08-22T08:48:59.000Z</time>
      </trkpt>
      <trkpt lat="45.08338" lon="4.62284">
        <ele>559.07</ele>
        <time>2019-08-22T08:49:09.000Z</time>
      </trkpt>
      <trkpt lat="45.08327" lon="4.62296">
        <ele>558</ele>
        <time>2019-08-22T08:49:19.000Z</time>
      </trkpt>
      <trkpt lat="45.08317" lon="4.62307">
        <ele>556.96</ele>
        <time>2019-08-22T08:49:29.000Z</time>
      </trkpt>
      <trkpt lat="45.08307" lon="4.62321">
        <ele>555.85</ele>
        <time>2019-08-22T08:49:39.000Z</time>
      </trkpt>
      <trkpt lat="45.08298" lon="4.62336">
        <ele>554.74</ele>
        <time>2019-08-22T08:49:49.000Z</time>
      </trkpt>
      <trkpt lat="45.08289" lon="4.62352">
        <ele>553.5</ele>
        <time>2019-08-22T08:49:59.000Z</time>
      </trkpt>
      <trkpt lat="45.08283" lon="4.62369">
        <ele>552.32</ele>
        <time>2019-08-22T08:50:09.000Z</time>
      </trkpt>
      <trkpt lat="45.08278" lon="4.62384">
        <ele>551.28</ele>
        <time>2019-08-22T08:50:19.000Z</time>
      </trkpt>
      <trkpt lat="45.08276" lon="4.62402">
        <ele>550.19</ele>
        <time>2019-08-22T08:50:29.000Z</time>
      </trkpt>
      <trkpt lat="45.08273" lon="4.6242">
        <ele>549.23</ele>
        <time>2019-08-22T08:50:39.000Z</time>
      </trkpt>
      <trkpt lat="45.08271" lon="4.62439">
        <ele>548.24</ele>
        <time>2019-08-22T08:50:49.000Z</time>
      </trkpt>
      <trkpt lat="45.08271" lon="4.62458">
        <ele>547.21</ele>
        <time>2019-08-22T08:50:59.000Z</time>
      </trkpt>
      <trkpt lat="45.08269" lon="4.62477">
        <ele>546.23</ele>
        <time>2019-08-22T08:51:09.000Z</time>
      </trkpt>
      <trkpt lat="45.08269" lon="4.62496">
        <ele>545.15</ele>
        <time>2019-08-22T08:51:19.000Z</time>
      </trkpt>
      <trkpt lat="45.08271" lon="4.62516">
        <ele>544.07</ele>
        <time>2019-08-22T08:51:29.000Z</time>
      </trkpt>
      <trkpt lat="45.08272" lon="4.62535">
        <ele>542.99</ele>
        <time>2019-08-22T08:51:39.000Z</time>
      </trkpt>
      <trkpt lat="45.08277" lon="4.62555">
        <ele>541.79</ele>
        <time>2019-08-22T08:51:49.000Z</time>
      </trkpt>
      <trkpt lat="45.08281" lon="4.6257">
        <ele>540.78</ele>
        <time>2019-08-22T08:51:59.000Z</time>
      </trkpt>
      <trkpt lat="45.08287" lon="4.62585">
        <ele>539.69</ele>
        <time>2019-08-22T08:52:09.000Z</time>
      </trkpt>
      <trkpt lat="45.08296" lon="4.62601">
        <ele>538.39</ele>
        <time>2019-08-22T08:52:19.000Z</time>
      </trkpt>
      <trkpt lat="45.08305" lon="4.62609">
        <ele>537.48</ele>
        <time>2019-08-22T08:52:29.000Z</time>
      </trkpt>
      <trkpt lat="45.08319" lon="4.62613">
        <ele>536.72</ele>
        <time>2019-08-22T08:52:39.000Z</time>
      </trkpt>
      <trkpt lat="45.08331" lon="4.62616">
        <ele>536.09</ele>
        <time>2019-08-22T08:52:49.000Z</time>
      </trkpt>
      <trkpt lat="45.08343" lon="4.62622">
        <ele>535.36</ele>
        <time>2019-08-22T08:52:59.000Z</time>
      </trkpt>
      <trkpt lat="45.08353" lon="4.62626">
        <ele>534.69</ele>
        <time>2019-08-22T08:53:09.000Z</time>
      </trkpt>
      <trkpt lat="45.08369" lon="4.62631">
        <ele>533.56</ele>
        <time>2019-08-22T08:53:19.000Z</time>
      </trkpt>
      <trkpt lat="45.0838" lon="4.62635">
        <ele>532.71</ele>
        <time>2019-08-22T08:53:29.000Z</time>
      </trkpt>
      <trkpt lat="45.08385" lon="4.62643">
        <ele>531.78</ele>
        <time>2019-08-22T08:53:39.000Z</time>
      </trkpt>
      <trkpt lat="45.08392" lon="4.62642">
        <ele>531.59</ele>
        <time>2019-08-22T08:53:49.000Z</time>
      </trkpt>
      <trkpt lat="45.08399" lon="4.6265">
        <ele>530.65</ele>
        <time>2019-08-22T08:53:59.000Z</time>
      </trkpt>
      <trkpt lat="45.08402" lon="4.62667">
        <ele>529.16</ele>
        <time>2019-08-22T08:54:09.000Z</time>
      </trkpt>
      <trkpt lat="45.08402" lon="4.62675">
        <ele>528.56</ele>
        <time>2019-08-22T08:54:19.000Z</time>
      </trkpt>
      <trkpt lat="45.08407" lon="4.62676">
        <ele>528.36</ele>
        <time>2019-08-22T08:55:28.000Z</time>
      </trkpt>
      <trkpt lat="45.08418" lon="4.62679">
        <ele>528.05</ele>
        <time>2019-08-22T08:55:38.000Z</time>
      </trkpt>
      <trkpt lat="45.08431" lon="4.62684">
        <ele>527.92</ele>
        <time>2019-08-22T08:55:48.000Z</time>
      </trkpt>
      <trkpt lat="45.08441" lon="4.62693">
        <ele>527.67</ele>
        <time>2019-08-22T08:55:58.000Z</time>
      </trkpt>
      <trkpt lat="45.08446" lon="4.6271">
        <ele>526.71</ele>
        <time>2019-08-22T08:56:08.000Z</time>
      </trkpt>
      <trkpt lat="45.08446" lon="4.62726">
        <ele>525.51</ele>
        <time>2019-08-22T08:56:18.000Z</time>
      </trkpt>
      <trkpt lat="45.08439" lon="4.62735">
        <ele>524.56</ele>
        <time>2019-08-22T08:56:28.000Z</time>
      </trkpt>
      <trkpt lat="45.08445" lon="4.62749">
        <ele>523.8</ele>
        <time>2019-08-22T08:56:38.000Z</time>
      </trkpt>
      <trkpt lat="45.08449" lon="4.62763">
        <ele>523</ele>
        <time>2019-08-22T08:56:48.000Z</time>
      </trkpt>
      <trkpt lat="45.08453" lon="4.62779">
        <ele>522.06</ele>
        <time>2019-08-22T08:56:58.000Z</time>
      </trkpt>
      <trkpt lat="45.08454" lon="4.62796">
        <ele>520.93</ele>
        <time>2019-08-22T08:57:08.000Z</time>
      </trkpt>
      <trkpt lat="45.08459" lon="4.62815">
        <ele>519.76</ele>
        <time>2019-08-22T08:57:18.000Z</time>
      </trkpt>
      <trkpt lat="45.08458" lon="4.62823">
        <ele>519.22</ele>
        <time>2019-08-22T08:57:29.000Z</time>
      </trkpt>
      <trkpt lat="45.08459" lon="4.6284">
        <ele>517.98</ele>
        <time>2019-08-22T08:57:39.000Z</time>
      </trkpt>
      <trkpt lat="45.08461" lon="4.62855">
        <ele>517.01</ele>
        <time>2019-08-22T08:57:49.000Z</time>
      </trkpt>
      <trkpt lat="45.0847" lon="4.62865">
        <ele>516.62</ele>
        <time>2019-08-22T08:57:59.000Z</time>
      </trkpt>
      <trkpt lat="45.08477" lon="4.62878">
        <ele>515.96</ele>
        <time>2019-08-22T08:58:09.000Z</time>
      </trkpt>
      <trkpt lat="45.08484" lon="4.62892">
        <ele>515.23</ele>
        <time>2019-08-22T08:58:19.000Z</time>
      </trkpt>
      <trkpt lat="45.08492" lon="4.62909">
        <ele>514.19</ele>
        <time>2019-08-22T08:58:29.000Z</time>
      </trkpt>
      <trkpt lat="45.08499" lon="4.62925">
        <ele>513.3</ele>
        <time>2019-08-22T08:58:39.000Z</time>
      </trkpt>
      <trkpt lat="45.08509" lon="4.6294">
        <ele>512.6</ele>
        <time>2019-08-22T08:58:49.000Z</time>
      </trkpt>
      <trkpt lat="45.08518" lon="4.62957">
        <ele>511.86</ele>
        <time>2019-08-22T08:58:59.000Z</time>
      </trkpt>
      <trkpt lat="45.08526" lon="4.62971">
        <ele>511.32</ele>
        <time>2019-08-22T08:59:09.000Z</time>
      </trkpt>
      <trkpt lat="45.08534" lon="4.62984">
        <ele>510.96</ele>
        <time>2019-08-22T08:59:19.000Z</time>
      </trkpt>
      <trkpt lat="45.0854" lon="4.63">
        <ele>510.11</ele>
        <time>2019-08-22T08:59:29.000Z</time>
      </trkpt>
      <trkpt lat="45.08551" lon="4.63012">
        <ele>509.92</ele>
        <time>2019-08-22T08:59:39.000Z</time>
      </trkpt>
      <trkpt lat="45.0856" lon="4.63024">
        <ele>509.62</ele>
        <time>2019-08-22T08:59:49.000Z</time>
      </trkpt>
      <trkpt lat="45.0857" lon="4.63037">
        <ele>509.16</ele>
        <time>2019-08-22T08:59:59.000Z</time>
      </trkpt>
      <trkpt lat="45.0858" lon="4.63049">
        <ele>508.77</ele>
        <time>2019-08-22T09:00:09.000Z</time>
      </trkpt>
      <trkpt lat="45.0859" lon="4.6306">
        <ele>508.27</ele>
        <time>2019-08-22T09:00:19.000Z</time>
      </trkpt>
      <trkpt lat="45.08603" lon="4.63065">
        <ele>508.55</ele>
        <time>2019-08-22T09:00:29.000Z</time>
      </trkpt>
      <trkpt lat="45.08616" lon="4.63068">
        <ele>509.12</ele>
        <time>2019-08-22T09:00:39.000Z</time>
      </trkpt>
      <trkpt lat="45.08629" lon="4.63063">
        <ele>510.56</ele>
        <time>2019-08-22T09:00:49.000Z</time>
      </trkpt>
      <trkpt lat="45.08641" lon="4.6306">
        <ele>511.61</ele>
        <time>2019-08-22T09:00:59.000Z</time>
      </trkpt>
      <trkpt lat="45.08653" lon="4.63052">
        <ele>512.96</ele>
        <time>2019-08-22T09:01:09.000Z</time>
      </trkpt>
      <trkpt lat="45.08666" lon="4.63048">
        <ele>513.59</ele>
        <time>2019-08-22T09:01:19.000Z</time>
      </trkpt>
      <trkpt lat="45.08678" lon="4.63044">
        <ele>513.73</ele>
        <time>2019-08-22T09:01:29.000Z</time>
      </trkpt>
      <trkpt lat="45.08691" lon="4.6304">
        <ele>513.46</ele>
        <time>2019-08-22T09:01:39.000Z</time>
      </trkpt>
      <trkpt lat="45.08705" lon="4.63034">
        <ele>512.67</ele>
        <time>2019-08-22T09:01:49.000Z</time>
      </trkpt>
      <trkpt lat="45.08716" lon="4.63029">
        <ele>511.93</ele>
        <time>2019-08-22T09:01:59.000Z</time>
      </trkpt>
      <trkpt lat="45.08728" lon="4.63022">
        <ele>511.1</ele>
        <time>2019-08-22T09:02:09.000Z</time>
      </trkpt>
      <trkpt lat="45.08734" lon="4.63032">
        <ele>509.64</ele>
        <time>2019-08-22T09:02:19.000Z</time>
      </trkpt>
      <trkpt lat="45.08742" lon="4.63044">
        <ele>508.17</ele>
        <time>2019-08-22T09:02:29.000Z</time>
      </trkpt>
      <trkpt lat="45.08749" lon="4.63057">
        <ele>506.82</ele>
        <time>2019-08-22T09:02:39.000Z</time>
      </trkpt>
      <trkpt lat="45.08759" lon="4.63069">
        <ele>505.32</ele>
        <time>2019-08-22T09:02:49.000Z</time>
      </trkpt>
      <trkpt lat="45.08766" lon="4.63086">
        <ele>503.65</ele>
        <time>2019-08-22T09:02:59.000Z</time>
      </trkpt>
      <trkpt lat="45.08773" lon="4.63101">
        <ele>502.2</ele>
        <time>2019-08-22T09:03:09.000Z</time>
      </trkpt>
      <trkpt lat="45.0878" lon="4.63108">
        <ele>501.15</ele>
        <time>2019-08-22T09:03:19.000Z</time>
      </trkpt>
      <trkpt lat="45.08782" lon="4.63115">
        <ele>500.5</ele>
        <time>2019-08-22T09:03:33.000Z</time>
      </trkpt>
      <trkpt lat="45.0879" lon="4.63127">
        <ele>499.1</ele>
        <time>2019-08-22T09:03:43.000Z</time>
      </trkpt>
      <trkpt lat="45.08798" lon="4.63142">
        <ele>497.44</ele>
        <time>2019-08-22T09:03:53.000Z</time>
      </trkpt>
      <trkpt lat="45.08809" lon="4.63159">
        <ele>495.36</ele>
        <time>2019-08-22T09:04:03.000Z</time>
      </trkpt>
      <trkpt lat="45.08815" lon="4.63173">
        <ele>493.78</ele>
        <time>2019-08-22T09:04:13.000Z</time>
      </trkpt>
      <trkpt lat="45.08824" lon="4.63176">
        <ele>492.75</ele>
        <time>2019-08-22T09:04:23.000Z</time>
      </trkpt>
      <trkpt lat="45.08832" lon="4.63192">
        <ele>490.98</ele>
        <time>2019-08-22T09:04:33.000Z</time>
      </trkpt>
      <trkpt lat="45.0884" lon="4.63211">
        <ele>488.86</ele>
        <time>2019-08-22T09:04:43.000Z</time>
      </trkpt>
      <trkpt lat="45.08847" lon="4.63226">
        <ele>487.21</ele>
        <time>2019-08-22T09:04:53.000Z</time>
      </trkpt>
      <trkpt lat="45.0885" lon="4.63241">
        <ele>485.84</ele>
        <time>2019-08-22T09:05:03.000Z</time>
      </trkpt>
      <trkpt lat="45.08855" lon="4.63259">
        <ele>484.53</ele>
        <time>2019-08-22T09:05:13.000Z</time>
      </trkpt>
      <trkpt lat="45.08856" lon="4.63276">
        <ele>483.58</ele>
        <time>2019-08-22T09:05:23.000Z</time>
      </trkpt>
      <trkpt lat="45.08853" lon="4.63287">
        <ele>483.21</ele>
        <time>2019-08-22T09:05:33.000Z</time>
      </trkpt>
      <trkpt lat="45.0885" lon="4.63301">
        <ele>482.74</ele>
        <time>2019-08-22T09:05:43.000Z</time>
      </trkpt>
      <trkpt lat="45.08856" lon="4.63311">
        <ele>482.28</ele>
        <time>2019-08-22T09:05:53.000Z</time>
      </trkpt>
      <trkpt lat="45.08861" lon="4.63314">
        <ele>482.12</ele>
        <time>2019-08-22T09:06:03.000Z</time>
      </trkpt>
      <trkpt lat="45.08866" lon="4.63314">
        <ele>482.04</ele>
        <time>2019-08-22T09:06:18.000Z</time>
      </trkpt>
      <trkpt lat="45.08875" lon="4.63315">
        <ele>481.89</ele>
        <time>2019-08-22T09:06:28.000Z</time>
      </trkpt>
      <trkpt lat="45.08882" lon="4.63318">
        <ele>481.79</ele>
        <time>2019-08-22T09:06:38.000Z</time>
      </trkpt>
      <trkpt lat="45.08891" lon="4.63328">
        <ele>481.79</ele>
        <time>2019-08-22T09:06:48.000Z</time>
      </trkpt>
      <trkpt lat="45.08903" lon="4.6333">
        <ele>481.86</ele>
        <time>2019-08-22T09:06:58.000Z</time>
      </trkpt>
      <trkpt lat="45.08911" lon="4.63319">
        <ele>481.67</ele>
        <time>2019-08-22T09:07:08.000Z</time>
      </trkpt>
      <trkpt lat="45.08917" lon="4.63306">
        <ele>481.55</ele>
        <time>2019-08-22T09:07:18.000Z</time>
      </trkpt>
      <trkpt lat="45.08926" lon="4.63297">
        <ele>481.48</ele>
        <time>2019-08-22T09:07:28.000Z</time>
      </trkpt>
      <trkpt lat="45.08936" lon="4.63292">
        <ele>481.31</ele>
        <time>2019-08-22T09:07:38.000Z</time>
      </trkpt>
      <trkpt lat="45.08947" lon="4.6329">
        <ele>481.09</ele>
        <time>2019-08-22T09:07:48.000Z</time>
      </trkpt>
      <trkpt lat="45.08953" lon="4.63292">
        <ele>480.93</ele>
        <time>2019-08-22T09:07:58.000Z</time>
      </trkpt>
      <trkpt lat="45.08955" lon="4.63299">
        <ele>480.82</ele>
        <time>2019-08-22T09:08:08.000Z</time>
      </trkpt>
      <trkpt lat="45.08956" lon="4.63312">
        <ele>480.75</ele>
        <time>2019-08-22T09:08:18.000Z</time>
      </trkpt>
      <trkpt lat="45.08958" lon="4.63327">
        <ele>480.9</ele>
        <time>2019-08-22T09:08:28.000Z</time>
      </trkpt>
      <trkpt lat="45.08956" lon="4.63342">
        <ele>481.44</ele>
        <time>2019-08-22T09:08:38.000Z</time>
      </trkpt>
      <trkpt lat="45.08956" lon="4.63359">
        <ele>482.35</ele>
        <time>2019-08-22T09:08:48.000Z</time>
      </trkpt>
      <trkpt lat="45.08955" lon="4.63375">
        <ele>483.6</ele>
        <time>2019-08-22T09:08:58.000Z</time>
      </trkpt>
      <trkpt lat="45.08959" lon="4.63372">
        <ele>483.2</ele>
        <time>2019-08-22T09:09:26.000Z</time>
      </trkpt>
      <trkpt lat="45.08964" lon="4.63392">
        <ele>484.86</ele>
        <time>2019-08-22T09:09:36.000Z</time>
      </trkpt>
      <trkpt lat="45.08969" lon="4.63408">
        <ele>486.38</ele>
        <time>2019-08-22T09:09:46.000Z</time>
      </trkpt>
      <trkpt lat="45.08975" lon="4.63423">
        <ele>487.96</ele>
        <time>2019-08-22T09:09:56.000Z</time>
      </trkpt>
      <trkpt lat="45.08975" lon="4.6344">
        <ele>490.46</ele>
        <time>2019-08-22T09:10:06.000Z</time>
      </trkpt>
      <trkpt lat="45.08976" lon="4.63457">
        <ele>493.05</ele>
        <time>2019-08-22T09:10:16.000Z</time>
      </trkpt>
      <trkpt lat="45.08981" lon="4.6347">
        <ele>495.2</ele>
        <time>2019-08-22T09:10:26.000Z</time>
      </trkpt>
      <trkpt lat="45.08987" lon="4.63487">
        <ele>497.66</ele>
        <time>2019-08-22T09:10:36.000Z</time>
      </trkpt>
      <trkpt lat="45.08991" lon="4.63502">
        <ele>499.7</ele>
        <time>2019-08-22T09:10:46.000Z</time>
      </trkpt>
      <trkpt lat="45.08993" lon="4.63521">
        <ele>501.82</ele>
        <time>2019-08-22T09:10:56.000Z</time>
      </trkpt>
      <trkpt lat="45.08995" lon="4.63532">
        <ele>502.9</ele>
        <time>2019-08-22T09:11:06.000Z</time>
      </trkpt>
      <trkpt lat="45.09001" lon="4.63546">
        <ele>504.24</ele>
        <time>2019-08-22T09:11:16.000Z</time>
      </trkpt>
      <trkpt lat="45.09008" lon="4.6356">
        <ele>505.19</ele>
        <time>2019-08-22T09:11:26.000Z</time>
      </trkpt>
      <trkpt lat="45.09016" lon="4.63571">
        <ele>505.55</ele>
        <time>2019-08-22T09:11:36.000Z</time>
      </trkpt>
      <trkpt lat="45.09025" lon="4.63581">
        <ele>505.47</ele>
        <time>2019-08-22T09:11:46.000Z</time>
      </trkpt>
      <trkpt lat="45.09035" lon="4.63594">
        <ele>505.91</ele>
        <time>2019-08-22T09:11:56.000Z</time>
      </trkpt>
      <trkpt lat="45.09042" lon="4.63605">
        <ele>506.92</ele>
        <time>2019-08-22T09:12:06.000Z</time>
      </trkpt>
      <trkpt lat="45.09051" lon="4.63617">
        <ele>507.95</ele>
        <time>2019-08-22T09:12:16.000Z</time>
      </trkpt>
      <trkpt lat="45.09062" lon="4.63632">
        <ele>509.56</ele>
        <time>2019-08-22T09:12:26.000Z</time>
      </trkpt>
      <trkpt lat="45.09073" lon="4.63644">
        <ele>511.17</ele>
        <time>2019-08-22T09:12:36.000Z</time>
      </trkpt>
      <trkpt lat="45.09082" lon="4.63659">
        <ele>513.53</ele>
        <time>2019-08-22T09:12:46.000Z</time>
      </trkpt>
      <trkpt lat="45.0909" lon="4.63675">
        <ele>515.86</ele>
        <time>2019-08-22T09:12:56.000Z</time>
      </trkpt>
      <trkpt lat="45.09096" lon="4.63691">
        <ele>517.59</ele>
        <time>2019-08-22T09:13:06.000Z</time>
      </trkpt>
      <trkpt lat="45.09104" lon="4.63709">
        <ele>518.99</ele>
        <time>2019-08-22T09:13:16.000Z</time>
      </trkpt>
      <trkpt lat="45.09107" lon="4.63722">
        <ele>520.02</ele>
        <time>2019-08-22T09:13:26.000Z</time>
      </trkpt>
      <trkpt lat="45.09111" lon="4.6374">
        <ele>521.55</ele>
        <time>2019-08-22T09:13:36.000Z</time>
      </trkpt>
      <trkpt lat="45.09113" lon="4.63755">
        <ele>523.25</ele>
        <time>2019-08-22T09:13:46.000Z</time>
      </trkpt>
      <trkpt lat="45.09115" lon="4.6377">
        <ele>525.14</ele>
        <time>2019-08-22T09:13:56.000Z</time>
      </trkpt>
      <trkpt lat="45.09118" lon="4.63785">
        <ele>527.08</ele>
        <time>2019-08-22T09:14:06.000Z</time>
      </trkpt>
      <trkpt lat="45.09119" lon="4.63801">
        <ele>529.21</ele>
        <time>2019-08-22T09:14:16.000Z</time>
      </trkpt>
      <trkpt lat="45.09109" lon="4.63804">
        <ele>529.9</ele>
        <time>2019-08-22T09:14:26.000Z</time>
      </trkpt>
      <trkpt lat="45.09099" lon="4.638">
        <ele>529.72</ele>
        <time>2019-08-22T09:14:36.000Z</time>
      </trkpt>
      <trkpt lat="45.0909" lon="4.638">
        <ele>530.16</ele>
        <time>2019-08-22T09:14:46.000Z</time>
      </trkpt>
      <trkpt lat="45.09081" lon="4.63793">
        <ele>529.8</ele>
        <time>2019-08-22T09:14:56.000Z</time>
      </trkpt>
      <trkpt lat="45.09071" lon="4.63788">
        <ele>529.94</ele>
        <time>2019-08-22T09:15:06.000Z</time>
      </trkpt>
      <trkpt lat="45.0906" lon="4.63783">
        <ele>530.54</ele>
        <time>2019-08-22T09:15:16.000Z</time>
      </trkpt>
      <trkpt lat="45.09049" lon="4.63777">
        <ele>531.39</ele>
        <time>2019-08-22T09:15:26.000Z</time>
      </trkpt>
      <trkpt lat="45.09036" lon="4.63781">
        <ele>533.55</ele>
        <time>2019-08-22T09:15:36.000Z</time>
      </trkpt>
      <trkpt lat="45.09029" lon="4.6379">
        <ele>535.5</ele>
        <time>2019-08-22T09:15:46.000Z</time>
      </trkpt>
      <trkpt lat="45.09028" lon="4.63803">
        <ele>537.23</ele>
        <time>2019-08-22T09:15:56.000Z</time>
      </trkpt>
      <trkpt lat="45.09033" lon="4.63816">
        <ele>538.3</ele>
        <time>2019-08-22T09:16:06.000Z</time>
      </trkpt>
      <trkpt lat="45.09036" lon="4.63828">
        <ele>539.29</ele>
        <time>2019-08-22T09:16:16.000Z</time>
      </trkpt>
      <trkpt lat="45.09042" lon="4.63842">
        <ele>540.22</ele>
        <time>2019-08-22T09:16:26.000Z</time>
      </trkpt>
      <trkpt lat="45.09046" lon="4.63856">
        <ele>541.38</ele>
        <time>2019-08-22T09:16:36.000Z</time>
      </trkpt>
      <trkpt lat="45.0905" lon="4.63875">
        <ele>543.09</ele>
        <time>2019-08-22T09:16:46.000Z</time>
      </trkpt>
      <trkpt lat="45.09054" lon="4.63889">
        <ele>544.2</ele>
        <time>2019-08-22T09:16:56.000Z</time>
      </trkpt>
      <trkpt lat="45.0906" lon="4.63903">
        <ele>545.16</ele>
        <time>2019-08-22T09:17:06.000Z</time>
      </trkpt>
      <trkpt lat="45.09067" lon="4.63916">
        <ele>546.07</ele>
        <time>2019-08-22T09:17:16.000Z</time>
      </trkpt>
      <trkpt lat="45.09073" lon="4.63932">
        <ele>547.36</ele>
        <time>2019-08-22T09:17:26.000Z</time>
      </trkpt>
      <trkpt lat="45.09078" lon="4.63946">
        <ele>548.51</ele>
        <time>2019-08-22T09:17:36.000Z</time>
      </trkpt>
      <trkpt lat="45.09082" lon="4.63961">
        <ele>549.85</ele>
        <time>2019-08-22T09:17:46.000Z</time>
      </trkpt>
      <trkpt lat="45.09085" lon="4.63976">
        <ele>551.13</ele>
        <time>2019-08-22T09:17:56.000Z</time>
      </trkpt>
      <trkpt lat="45.09081" lon="4.63989">
        <ele>552.9</ele>
        <time>2019-08-22T09:18:06.000Z</time>
      </trkpt>
      <trkpt lat="45.09069" lon="4.63994">
        <ele>554.19</ele>
        <time>2019-08-22T09:18:16.000Z</time>
      </trkpt>
      <trkpt lat="45.09057" lon="4.63995">
        <ele>555.25</ele>
        <time>2019-08-22T09:18:26.000Z</time>
      </trkpt>
      <trkpt lat="45.09042" lon="4.64">
        <ele>556.89</ele>
        <time>2019-08-22T09:18:36.000Z</time>
      </trkpt>
      <trkpt lat="45.0903" lon="4.63999">
        <ele>557.74</ele>
        <time>2019-08-22T09:18:46.000Z</time>
      </trkpt>
      <trkpt lat="45.09017" lon="4.63997">
        <ele>558.14</ele>
        <time>2019-08-22T09:18:56.000Z</time>
      </trkpt>
      <trkpt lat="45.09004" lon="4.63997">
        <ele>558.52</ele>
        <time>2019-08-22T09:19:06.000Z</time>
      </trkpt>
      <trkpt lat="45.08994" lon="4.63998">
        <ele>558.76</ele>
        <time>2019-08-22T09:19:16.000Z</time>
      </trkpt>
      <trkpt lat="45.08981" lon="4.64006">
        <ele>559.49</ele>
        <time>2019-08-22T09:19:26.000Z</time>
      </trkpt>
      <trkpt lat="45.08974" lon="4.64017">
        <ele>560.93</ele>
        <time>2019-08-22T09:19:36.000Z</time>
      </trkpt>
      <trkpt lat="45.08968" lon="4.64031">
        <ele>562.76</ele>
        <time>2019-08-22T09:19:46.000Z</time>
      </trkpt>
      <trkpt lat="45.08956" lon="4.64031">
        <ele>562.27</ele>
        <time>2019-08-22T09:19:56.000Z</time>
      </trkpt>
      <trkpt lat="45.08945" lon="4.64028">
        <ele>561.19</ele>
        <time>2019-08-22T09:20:06.000Z</time>
      </trkpt>
      <trkpt lat="45.08935" lon="4.64027">
        <ele>560.5</ele>
        <time>2019-08-22T09:20:16.000Z</time>
      </trkpt>
      <trkpt lat="45.08921" lon="4.64023">
        <ele>559.01</ele>
        <time>2019-08-22T09:20:26.000Z</time>
      </trkpt>
      <trkpt lat="45.08908" lon="4.64018">
        <ele>557.55</ele>
        <time>2019-08-22T09:20:36.000Z</time>
      </trkpt>
      <trkpt lat="45.08897" lon="4.64015">
        <ele>556.34</ele>
        <time>2019-08-22T09:20:46.000Z</time>
      </trkpt>
      <trkpt lat="45.08881" lon="4.64015">
        <ele>555.25</ele>
        <time>2019-08-22T09:20:56.000Z</time>
      </trkpt>
      <trkpt lat="45.08868" lon="4.64012">
        <ele>553.95</ele>
        <time>2019-08-22T09:21:06.000Z</time>
      </trkpt>
      <trkpt lat="45.08855" lon="4.64015">
        <ele>553.34</ele>
        <time>2019-08-22T09:21:16.000Z</time>
      </trkpt>
      <trkpt lat="45.08844" lon="4.64017">
        <ele>552.87</ele>
        <time>2019-08-22T09:21:26.000Z</time>
      </trkpt>
      <trkpt lat="45.0883" lon="4.64023">
        <ele>552.67</ele>
        <time>2019-08-22T09:21:36.000Z</time>
      </trkpt>
      <trkpt lat="45.08818" lon="4.6403">
        <ele>552.42</ele>
        <time>2019-08-22T09:21:46.000Z</time>
      </trkpt>
      <trkpt lat="45.08805" lon="4.64033">
        <ele>551.3</ele>
        <time>2019-08-22T09:21:56.000Z</time>
      </trkpt>
      <trkpt lat="45.08791" lon="4.64039">
        <ele>550.42</ele>
        <time>2019-08-22T09:22:06.000Z</time>
      </trkpt>
      <trkpt lat="45.08779" lon="4.64049">
        <ele>550.58</ele>
        <time>2019-08-22T09:22:16.000Z</time>
      </trkpt>
      <trkpt lat="45.0877" lon="4.64056">
        <ele>550.78</ele>
        <time>2019-08-22T09:22:26.000Z</time>
      </trkpt>
      <trkpt lat="45.08757" lon="4.64062">
        <ele>551.01</ele>
        <time>2019-08-22T09:22:36.000Z</time>
      </trkpt>
      <trkpt lat="45.08748" lon="4.6407">
        <ele>552.13</ele>
        <time>2019-08-22T09:22:46.000Z</time>
      </trkpt>
      <trkpt lat="45.08736" lon="4.64068">
        <ele>551.6</ele>
        <time>2019-08-22T09:22:56.000Z</time>
      </trkpt>
      <trkpt lat="45.08726" lon="4.6406">
        <ele>550.08</ele>
        <time>2019-08-22T09:23:06.000Z</time>
      </trkpt>
      <trkpt lat="45.08716" lon="4.6405">
        <ele>548.62</ele>
        <time>2019-08-22T09:23:16.000Z</time>
      </trkpt>
      <trkpt lat="45.08704" lon="4.64037">
        <ele>546.64</ele>
        <time>2019-08-22T09:23:26.000Z</time>
      </trkpt>
      <trkpt lat="45.08689" lon="4.64032">
        <ele>546.53</ele>
        <time>2019-08-22T09:23:36.000Z</time>
      </trkpt>
      <trkpt lat="45.08676" lon="4.64034">
        <ele>547.49</ele>
        <time>2019-08-22T09:23:46.000Z</time>
      </trkpt>
      <trkpt lat="45.08665" lon="4.64036">
        <ele>547.91</ele>
        <time>2019-08-22T09:23:56.000Z</time>
      </trkpt>
      <trkpt lat="45.08651" lon="4.64032">
        <ele>547.1</ele>
        <time>2019-08-22T09:24:06.000Z</time>
      </trkpt>
      <trkpt lat="45.08636" lon="4.64033">
        <ele>547.25</ele>
        <time>2019-08-22T09:24:16.000Z</time>
      </trkpt>
      <trkpt lat="45.08624" lon="4.64039">
        <ele>547.86</ele>
        <time>2019-08-22T09:24:26.000Z</time>
      </trkpt>
      <trkpt lat="45.08611" lon="4.64049">
        <ele>548.88</ele>
        <time>2019-08-22T09:24:36.000Z</time>
      </trkpt>
      <trkpt lat="45.086" lon="4.64062">
        <ele>549.89</ele>
        <time>2019-08-22T09:24:46.000Z</time>
      </trkpt>
      <trkpt lat="45.08597" lon="4.64077">
        <ele>551.64</ele>
        <time>2019-08-22T09:24:56.000Z</time>
      </trkpt>
      <trkpt lat="45.08591" lon="4.64092">
        <ele>553.12</ele>
        <time>2019-08-22T09:25:06.000Z</time>
      </trkpt>
      <trkpt lat="45.08586" lon="4.64106">
        <ele>554.24</ele>
        <time>2019-08-22T09:25:16.000Z</time>
      </trkpt>
      <trkpt lat="45.08581" lon="4.64123">
        <ele>555.6</ele>
        <time>2019-08-22T09:25:26.000Z</time>
      </trkpt>
      <trkpt lat="45.08578" lon="4.64138">
        <ele>556.9</ele>
        <time>2019-08-22T09:25:36.000Z</time>
      </trkpt>
      <trkpt lat="45.08571" lon="4.64153">
        <ele>557.43</ele>
        <time>2019-08-22T09:25:46.000Z</time>
      </trkpt>
      <trkpt lat="45.08566" lon="4.64171">
        <ele>558.3</ele>
        <time>2019-08-22T09:25:56.000Z</time>
      </trkpt>
      <trkpt lat="45.08564" lon="4.64188">
        <ele>559.51</ele>
        <time>2019-08-22T09:26:06.000Z</time>
      </trkpt>
      <trkpt lat="45.08557" lon="4.64207">
        <ele>559.85</ele>
        <time>2019-08-22T09:26:16.000Z</time>
      </trkpt>
      <trkpt lat="45.08554" lon="4.64223">
        <ele>560.33</ele>
        <time>2019-08-22T09:26:26.000Z</time>
      </trkpt>
      <trkpt lat="45.08559" lon="4.64226">
        <ele>561.78</ele>
        <time>2019-08-22T09:26:38.000Z</time>
      </trkpt>
      <trkpt lat="45.08567" lon="4.64233">
        <ele>564.09</ele>
        <time>2019-08-22T09:26:48.000Z</time>
      </trkpt>
      <trkpt lat="45.08575" lon="4.64231">
        <ele>565.86</ele>
        <time>2019-08-22T09:26:58.000Z</time>
      </trkpt>
      <trkpt lat="45.08582" lon="4.64222">
        <ele>566.7</ele>
        <time>2019-08-22T09:27:08.000Z</time>
      </trkpt>
      <trkpt lat="45.08588" lon="4.64215">
        <ele>567.23</ele>
        <time>2019-08-22T09:27:18.000Z</time>
      </trkpt>
      <trkpt lat="45.08595" lon="4.64203">
        <ele>567.3</ele>
        <time>2019-08-22T09:27:28.000Z</time>
      </trkpt>
      <trkpt lat="45.08602" lon="4.64194">
        <ele>567.6</ele>
        <time>2019-08-22T09:27:38.000Z</time>
      </trkpt>
      <trkpt lat="45.08608" lon="4.64186">
        <ele>567.56</ele>
        <time>2019-08-22T09:27:48.000Z</time>
      </trkpt>
      <trkpt lat="45.08615" lon="4.64184">
        <ele>568.49</ele>
        <time>2019-08-22T09:27:58.000Z</time>
      </trkpt>
      <trkpt lat="45.08622" lon="4.64193">
        <ele>570.97</ele>
        <time>2019-08-22T09:28:08.000Z</time>
      </trkpt>
      <trkpt lat="45.08625" lon="4.64203">
        <ele>572.86</ele>
        <time>2019-08-22T09:28:18.000Z</time>
      </trkpt>
      <trkpt lat="45.08626" lon="4.64219">
        <ele>574.98</ele>
        <time>2019-08-22T09:28:28.000Z</time>
      </trkpt>
      <trkpt lat="45.08629" lon="4.64236">
        <ele>577.32</ele>
        <time>2019-08-22T09:28:38.000Z</time>
      </trkpt>
      <trkpt lat="45.08634" lon="4.64244">
        <ele>578.95</ele>
        <time>2019-08-22T09:28:48.000Z</time>
      </trkpt>
      <trkpt lat="45.08642" lon="4.64246">
        <ele>580.76</ele>
        <time>2019-08-22T09:28:58.000Z</time>
      </trkpt>
      <trkpt lat="45.0865" lon="4.64255">
        <ele>582.91</ele>
        <time>2019-08-22T09:29:08.000Z</time>
      </trkpt>
      <trkpt lat="45.08654" lon="4.64262">
        <ele>584.03</ele>
        <time>2019-08-22T09:29:18.000Z</time>
      </trkpt>
      <trkpt lat="45.08653" lon="4.64276">
        <ele>584.91</ele>
        <time>2019-08-22T09:29:28.000Z</time>
      </trkpt>
      <trkpt lat="45.08656" lon="4.64288">
        <ele>586.06</ele>
        <time>2019-08-22T09:29:38.000Z</time>
      </trkpt>
      <trkpt lat="45.08659" lon="4.643">
        <ele>587.22</ele>
        <time>2019-08-22T09:29:48.000Z</time>
      </trkpt>
      <trkpt lat="45.0866" lon="4.64312">
        <ele>587.7</ele>
        <time>2019-08-22T09:29:58.000Z</time>
      </trkpt>
      <trkpt lat="45.08669" lon="4.64317">
        <ele>589.5</ele>
        <time>2019-08-22T09:30:08.000Z</time>
      </trkpt>
      <trkpt lat="45.08675" lon="4.64319">
        <ele>590.7</ele>
        <time>2019-08-22T09:30:18.000Z</time>
      </trkpt>
      <trkpt lat="45.08679" lon="4.64327">
        <ele>591.39</ele>
        <time>2019-08-22T09:30:28.000Z</time>
      </trkpt>
      <trkpt lat="45.08686" lon="4.64335">
        <ele>592.56</ele>
        <time>2019-08-22T09:30:38.000Z</time>
      </trkpt>
      <trkpt lat="45.08697" lon="4.64336">
        <ele>594.29</ele>
        <time>2019-08-22T09:30:48.000Z</time>
      </trkpt>
      <trkpt lat="45.08706" lon="4.64338">
        <ele>595.73</ele>
        <time>2019-08-22T09:30:58.000Z</time>
      </trkpt>
      <trkpt lat="45.08715" lon="4.64344">
        <ele>596.86</ele>
        <time>2019-08-22T09:31:08.000Z</time>
      </trkpt>
      <trkpt lat="45.08723" lon="4.64349">
        <ele>597.7</ele>
        <time>2019-08-22T09:31:18.000Z</time>
      </trkpt>
      <trkpt lat="45.08736" lon="4.64353">
        <ele>599.08</ele>
        <time>2019-08-22T09:31:28.000Z</time>
      </trkpt>
      <trkpt lat="45.08744" lon="4.64354">
        <ele>599.82</ele>
        <time>2019-08-22T09:31:38.000Z</time>
      </trkpt>
      <trkpt lat="45.08758" lon="4.64358">
        <ele>600.78</ele>
        <time>2019-08-22T09:31:48.000Z</time>
      </trkpt>
      <trkpt lat="45.08771" lon="4.64359">
        <ele>601.27</ele>
        <time>2019-08-22T09:31:58.000Z</time>
      </trkpt>
      <trkpt lat="45.08785" lon="4.64361">
        <ele>601.46</ele>
        <time>2019-08-22T09:32:08.000Z</time>
      </trkpt>
      <trkpt lat="45.08799" lon="4.64361">
        <ele>601.62</ele>
        <time>2019-08-22T09:32:18.000Z</time>
      </trkpt>
      <trkpt lat="45.08809" lon="4.64363">
        <ele>601.55</ele>
        <time>2019-08-22T09:32:28.000Z</time>
      </trkpt>
      <trkpt lat="45.0882" lon="4.64361">
        <ele>601.77</ele>
        <time>2019-08-22T09:32:38.000Z</time>
      </trkpt>
      <trkpt lat="45.08831" lon="4.64361">
        <ele>602.11</ele>
        <time>2019-08-22T09:32:48.000Z</time>
      </trkpt>
      <trkpt lat="45.08843" lon="4.64359">
        <ele>602.64</ele>
        <time>2019-08-22T09:32:58.000Z</time>
      </trkpt>
      <trkpt lat="45.08852" lon="4.6436">
        <ele>603</ele>
        <time>2019-08-22T09:33:08.000Z</time>
      </trkpt>
      <trkpt lat="45.08864" lon="4.64367">
        <ele>603.4</ele>
        <time>2019-08-22T09:33:18.000Z</time>
      </trkpt>
      <trkpt lat="45.08877" lon="4.64376">
        <ele>604.24</ele>
        <time>2019-08-22T09:33:28.000Z</time>
      </trkpt>
      <trkpt lat="45.08886" lon="4.64386">
        <ele>605.23</ele>
        <time>2019-08-22T09:33:38.000Z</time>
      </trkpt>
      <trkpt lat="45.08895" lon="4.64396">
        <ele>606.61</ele>
        <time>2019-08-22T09:33:48.000Z</time>
      </trkpt>
      <trkpt lat="45.08904" lon="4.64405">
        <ele>608.35</ele>
        <time>2019-08-22T09:33:58.000Z</time>
      </trkpt>
      <trkpt lat="45.08917" lon="4.64409">
        <ele>610.36</ele>
        <time>2019-08-22T09:34:08.000Z</time>
      </trkpt>
      <trkpt lat="45.08928" lon="4.6441">
        <ele>612.03</ele>
        <time>2019-08-22T09:34:18.000Z</time>
      </trkpt>
      <trkpt lat="45.08941" lon="4.64409">
        <ele>613.73</ele>
        <time>2019-08-22T09:34:28.000Z</time>
      </trkpt>
      <trkpt lat="45.08954" lon="4.64408">
        <ele>615.38</ele>
        <time>2019-08-22T09:34:38.000Z</time>
      </trkpt>
      <trkpt lat="45.08967" lon="4.64411">
        <ele>617.37</ele>
        <time>2019-08-22T09:34:48.000Z</time>
      </trkpt>
      <trkpt lat="45.08981" lon="4.64415">
        <ele>619.46</ele>
        <time>2019-08-22T09:34:58.000Z</time>
      </trkpt>
      <trkpt lat="45.08996" lon="4.64422">
        <ele>621.75</ele>
        <time>2019-08-22T09:35:08.000Z</time>
      </trkpt>
      <trkpt lat="45.09008" lon="4.64427">
        <ele>623.16</ele>
        <time>2019-08-22T09:35:18.000Z</time>
      </trkpt>
      <trkpt lat="45.09019" lon="4.64431">
        <ele>624.07</ele>
        <time>2019-08-22T09:35:28.000Z</time>
      </trkpt>
      <trkpt lat="45.09028" lon="4.64436">
        <ele>624.9</ele>
        <time>2019-08-22T09:35:38.000Z</time>
      </trkpt>
      <trkpt lat="45.0904" lon="4.64441">
        <ele>625.55</ele>
        <time>2019-08-22T09:35:48.000Z</time>
      </trkpt>
      <trkpt lat="45.09055" lon="4.64449">
        <ele>626.42</ele>
        <time>2019-08-22T09:35:58.000Z</time>
      </trkpt>
      <trkpt lat="45.09071" lon="4.64457">
        <ele>627.06</ele>
        <time>2019-08-22T09:36:08.000Z</time>
      </trkpt>
      <trkpt lat="45.09085" lon="4.64462">
        <ele>627.26</ele>
        <time>2019-08-22T09:36:18.000Z</time>
      </trkpt>
      <trkpt lat="45.09096" lon="4.64468">
        <ele>627.5</ele>
        <time>2019-08-22T09:36:28.000Z</time>
      </trkpt>
      <trkpt lat="45.09108" lon="4.64473">
        <ele>627.58</ele>
        <time>2019-08-22T09:36:38.000Z</time>
      </trkpt>
      <trkpt lat="45.09122" lon="4.64478">
        <ele>627.02</ele>
        <time>2019-08-22T09:36:48.000Z</time>
      </trkpt>
      <trkpt lat="45.09136" lon="4.64485">
        <ele>626.86</ele>
        <time>2019-08-22T09:36:58.000Z</time>
      </trkpt>
      <trkpt lat="45.09147" lon="4.64495">
        <ele>627.95</ele>
        <time>2019-08-22T09:37:08.000Z</time>
      </trkpt>
      <trkpt lat="45.09158" lon="4.64503">
        <ele>628.4</ele>
        <time>2019-08-22T09:37:18.000Z</time>
      </trkpt>
      <trkpt lat="45.09163" lon="4.64508">
        <ele>629.14</ele>
        <time>2019-08-22T09:37:31.000Z</time>
      </trkpt>
      <trkpt lat="45.09167" lon="4.64512">
        <ele>629.84</ele>
        <time>2019-08-22T09:37:41.000Z</time>
      </trkpt>
      <trkpt lat="45.09176" lon="4.64518">
        <ele>630.45</ele>
        <time>2019-08-22T09:37:51.000Z</time>
      </trkpt>
      <trkpt lat="45.09189" lon="4.6452">
        <ele>629.72</ele>
        <time>2019-08-22T09:38:01.000Z</time>
      </trkpt>
      <trkpt lat="45.09202" lon="4.64522">
        <ele>629.15</ele>
        <time>2019-08-22T09:38:11.000Z</time>
      </trkpt>
      <trkpt lat="45.09214" lon="4.64528">
        <ele>629.92</ele>
        <time>2019-08-22T09:38:21.000Z</time>
      </trkpt>
      <trkpt lat="45.09225" lon="4.64535">
        <ele>630.64</ele>
        <time>2019-08-22T09:38:31.000Z</time>
      </trkpt>
      <trkpt lat="45.09238" lon="4.6454">
        <ele>631.19</ele>
        <time>2019-08-22T09:38:41.000Z</time>
      </trkpt>
      <trkpt lat="45.09251" lon="4.6454">
        <ele>630.52</ele>
        <time>2019-08-22T09:38:51.000Z</time>
      </trkpt>
      <trkpt lat="45.09266" lon="4.64539">
        <ele>629.57</ele>
        <time>2019-08-22T09:39:01.000Z</time>
      </trkpt>
      <trkpt lat="45.0928" lon="4.64539">
        <ele>629.32</ele>
        <time>2019-08-22T09:39:11.000Z</time>
      </trkpt>
      <trkpt lat="45.09294" lon="4.64545">
        <ele>630.26</ele>
        <time>2019-08-22T09:39:21.000Z</time>
      </trkpt>
      <trkpt lat="45.09306" lon="4.64544">
        <ele>629.96</ele>
        <time>2019-08-22T09:39:31.000Z</time>
      </trkpt>
      <trkpt lat="45.09318" lon="4.64543">
        <ele>629.41</ele>
        <time>2019-08-22T09:39:41.000Z</time>
      </trkpt>
      <trkpt lat="45.09331" lon="4.64539">
        <ele>628.43</ele>
        <time>2019-08-22T09:39:51.000Z</time>
      </trkpt>
      <trkpt lat="45.09343" lon="4.64539">
        <ele>627.91</ele>
        <time>2019-08-22T09:40:01.000Z</time>
      </trkpt>
      <trkpt lat="45.09357" lon="4.64543">
        <ele>627.72</ele>
        <time>2019-08-22T09:40:11.000Z</time>
      </trkpt>
      <trkpt lat="45.09369" lon="4.64541">
        <ele>626.82</ele>
        <time>2019-08-22T09:40:21.000Z</time>
      </trkpt>
      <trkpt lat="45.09379" lon="4.64535">
        <ele>625.5</ele>
        <time>2019-08-22T09:40:31.000Z</time>
      </trkpt>
      <trkpt lat="45.09387" lon="4.64538">
        <ele>625.31</ele>
        <time>2019-08-22T09:40:41.000Z</time>
      </trkpt>
      <trkpt lat="45.09399" lon="4.64542">
        <ele>624.96</ele>
        <time>2019-08-22T09:40:51.000Z</time>
      </trkpt>
      <trkpt lat="45.09404" lon="4.64545">
        <ele>624.93</ele>
        <time>2019-08-22T09:41:01.000Z</time>
      </trkpt>
      <trkpt lat="45.0941" lon="4.64544">
        <ele>624.38</ele>
        <time>2019-08-22T09:41:11.000Z</time>
      </trkpt>
      <trkpt lat="45.09423" lon="4.64549">
        <ele>623.83</ele>
        <time>2019-08-22T09:41:21.000Z</time>
      </trkpt>
      <trkpt lat="45.09438" lon="4.64553">
        <ele>622.8</ele>
        <time>2019-08-22T09:41:31.000Z</time>
      </trkpt>
      <trkpt lat="45.09451" lon="4.64554">
        <ele>621.57</ele>
        <time>2019-08-22T09:41:41.000Z</time>
      </trkpt>
      <trkpt lat="45.09464" lon="4.64556">
        <ele>620.5</ele>
        <time>2019-08-22T09:41:51.000Z</time>
      </trkpt>
      <trkpt lat="45.09475" lon="4.64559">
        <ele>619.59</ele>
        <time>2019-08-22T09:42:01.000Z</time>
      </trkpt>
      <trkpt lat="45.09485" lon="4.64566">
        <ele>619.42</ele>
        <time>2019-08-22T09:42:11.000Z</time>
      </trkpt>
      <trkpt lat="45.09494" lon="4.6457">
        <ele>619.08</ele>
        <time>2019-08-22T09:42:21.000Z</time>
      </trkpt>
      <trkpt lat="45.09505" lon="4.64578">
        <ele>618.86</ele>
        <time>2019-08-22T09:42:31.000Z</time>
      </trkpt>
      <trkpt lat="45.09517" lon="4.64587">
        <ele>618.38</ele>
        <time>2019-08-22T09:42:41.000Z</time>
      </trkpt>
      <trkpt lat="45.09531" lon="4.64595">
        <ele>617.42</ele>
        <time>2019-08-22T09:42:51.000Z</time>
      </trkpt>
      <trkpt lat="45.09544" lon="4.64601">
        <ele>616.28</ele>
        <time>2019-08-22T09:43:01.000Z</time>
      </trkpt>
      <trkpt lat="45.09557" lon="4.64602">
        <ele>614.78</ele>
        <time>2019-08-22T09:43:11.000Z</time>
      </trkpt>
      <trkpt lat="45.09572" lon="4.64598">
        <ele>613.04</ele>
        <time>2019-08-22T09:43:21.000Z</time>
      </trkpt>
      <trkpt lat="45.09585" lon="4.64596">
        <ele>612.06</ele>
        <time>2019-08-22T09:43:31.000Z</time>
      </trkpt>
      <trkpt lat="45.09597" lon="4.64595">
        <ele>611.5</ele>
        <time>2019-08-22T09:43:41.000Z</time>
      </trkpt>
      <trkpt lat="45.0961" lon="4.64595">
        <ele>611.23</ele>
        <time>2019-08-22T09:43:51.000Z</time>
      </trkpt>
      <trkpt lat="45.09623" lon="4.64598">
        <ele>611.35</ele>
        <time>2019-08-22T09:44:01.000Z</time>
      </trkpt>
      <trkpt lat="45.09633" lon="4.64604">
        <ele>611.87</ele>
        <time>2019-08-22T09:44:11.000Z</time>
      </trkpt>
      <trkpt lat="45.09642" lon="4.64595">
        <ele>611.67</ele>
        <time>2019-08-22T09:44:31.000Z</time>
      </trkpt>
      <trkpt lat="45.09642" lon="4.64587">
        <ele>616</ele>
        <time>2019-08-22T09:44:41.000Z</time>
      </trkpt>
      <trkpt lat="45.09641" lon="4.64583">
        <ele>613</ele>
        <time>2019-08-22T09:44:51.000Z</time>
      </trkpt>
      <trkpt lat="45.09641" lon="4.64579">
        <ele>610.74</ele>
        <time>2019-08-22T09:45:01.000Z</time>
      </trkpt>
      <trkpt lat="45.09641" lon="4.64561">
        <ele>609.56</ele>
        <time>2019-08-22T09:45:42.000Z</time>
      </trkpt>
      <trkpt lat="45.09645" lon="4.64544">
        <ele>608.7</ele>
        <time>2019-08-22T09:45:52.000Z</time>
      </trkpt>
      <trkpt lat="45.09641" lon="4.64562">
        <ele>609.7</ele>
        <time>2019-08-22T09:57:26.000Z</time>
      </trkpt>
      <trkpt lat="45.09641" lon="4.64569">
        <ele>613</ele>
        <time>2019-08-22T09:57:36.000Z</time>
      </trkpt>
      <trkpt lat="45.09642" lon="4.64576">
        <ele>610.61</ele>
        <time>2019-08-22T09:57:46.000Z</time>
      </trkpt>
      <trkpt lat="45.09646" lon="4.6454">
        <ele>608.46</ele>
        <time>2019-08-22T09:57:56.000Z</time>
      </trkpt>
      <trkpt lat="45.0965" lon="4.64525">
        <ele>607.78</ele>
        <time>2019-08-22T09:58:06.000Z</time>
      </trkpt>
      <trkpt lat="45.09653" lon="4.64516">
        <ele>607.43</ele>
        <time>2019-08-22T09:58:16.000Z</time>
      </trkpt>
      <trkpt lat="45.09658" lon="4.64499">
        <ele>606.75</ele>
        <time>2019-08-22T09:58:26.000Z</time>
      </trkpt>
      <trkpt lat="45.0966" lon="4.64482">
        <ele>605.59</ele>
        <time>2019-08-22T09:58:36.000Z</time>
      </trkpt>
      <trkpt lat="45.09662" lon="4.64466">
        <ele>604.55</ele>
        <time>2019-08-22T09:58:46.000Z</time>
      </trkpt>
      <trkpt lat="45.09668" lon="4.64447">
        <ele>603.76</ele>
        <time>2019-08-22T09:58:56.000Z</time>
      </trkpt>
      <trkpt lat="45.09675" lon="4.6443">
        <ele>603.34</ele>
        <time>2019-08-22T09:59:06.000Z</time>
      </trkpt>
      <trkpt lat="45.09683" lon="4.64416">
        <ele>603.43</ele>
        <time>2019-08-22T09:59:24.000Z</time>
      </trkpt>
      <trkpt lat="45.09691" lon="4.644">
        <ele>603.69</ele>
        <time>2019-08-22T09:59:34.000Z</time>
      </trkpt>
      <trkpt lat="45.09695" lon="4.64392">
        <ele>603.85</ele>
        <time>2019-08-22T09:59:44.000Z</time>
      </trkpt>
      <trkpt lat="45.09697" lon="4.64386">
        <ele>603.85</ele>
        <time>2019-08-22T09:59:54.000Z</time>
      </trkpt>
      <trkpt lat="45.09701" lon="4.64372">
        <ele>603.68</ele>
        <time>2019-08-22T10:00:04.000Z</time>
      </trkpt>
      <trkpt lat="45.09701" lon="4.64354">
        <ele>602.69</ele>
        <time>2019-08-22T10:00:14.000Z</time>
      </trkpt>
      <trkpt lat="45.09699" lon="4.64337">
        <ele>601.48</ele>
        <time>2019-08-22T10:00:24.000Z</time>
      </trkpt>
      <trkpt lat="45.09693" lon="4.64319">
        <ele>599.48</ele>
        <time>2019-08-22T10:00:34.000Z</time>
      </trkpt>
      <trkpt lat="45.09686" lon="4.64301">
        <ele>597.72</ele>
        <time>2019-08-22T10:00:44.000Z</time>
      </trkpt>
      <trkpt lat="45.09676" lon="4.64286">
        <ele>595.71</ele>
        <time>2019-08-22T10:00:54.000Z</time>
      </trkpt>
      <trkpt lat="45.09669" lon="4.64268">
        <ele>594.08</ele>
        <time>2019-08-22T10:01:04.000Z</time>
      </trkpt>
      <trkpt lat="45.09662" lon="4.6425">
        <ele>592.07</ele>
        <time>2019-08-22T10:01:14.000Z</time>
      </trkpt>
      <trkpt lat="45.09658" lon="4.64232">
        <ele>590.5</ele>
        <time>2019-08-22T10:01:24.000Z</time>
      </trkpt>
      <trkpt lat="45.09658" lon="4.64213">
        <ele>589.48</ele>
        <time>2019-08-22T10:01:34.000Z</time>
      </trkpt>
      <trkpt lat="45.09662" lon="4.64196">
        <ele>588.88</ele>
        <time>2019-08-22T10:01:44.000Z</time>
      </trkpt>
      <trkpt lat="45.0967" lon="4.64182">
        <ele>589.14</ele>
        <time>2019-08-22T10:01:54.000Z</time>
      </trkpt>
      <trkpt lat="45.09676" lon="4.64172">
        <ele>589.15</ele>
        <time>2019-08-22T10:02:04.000Z</time>
      </trkpt>
      <trkpt lat="45.09683" lon="4.64169">
        <ele>590.11</ele>
        <time>2019-08-22T10:02:14.000Z</time>
      </trkpt>
      <trkpt lat="45.09696" lon="4.64157">
        <ele>590.85</ele>
        <time>2019-08-22T10:02:24.000Z</time>
      </trkpt>
      <trkpt lat="45.09705" lon="4.64144">
        <ele>590.71</ele>
        <time>2019-08-22T10:02:34.000Z</time>
      </trkpt>
      <trkpt lat="45.09714" lon="4.6413">
        <ele>590.18</ele>
        <time>2019-08-22T10:02:44.000Z</time>
      </trkpt>
      <trkpt lat="45.0972" lon="4.64111">
        <ele>588.58</ele>
        <time>2019-08-22T10:02:54.000Z</time>
      </trkpt>
      <trkpt lat="45.0972" lon="4.64091">
        <ele>585.9</ele>
        <time>2019-08-22T10:03:04.000Z</time>
      </trkpt>
      <trkpt lat="45.09721" lon="4.64072">
        <ele>584.77</ele>
        <time>2019-08-22T10:03:14.000Z</time>
      </trkpt>
      <trkpt lat="45.09719" lon="4.64053">
        <ele>583.84</ele>
        <time>2019-08-22T10:03:24.000Z</time>
      </trkpt>
      <trkpt lat="45.09716" lon="4.64034">
        <ele>583.19</ele>
        <time>2019-08-22T10:03:34.000Z</time>
      </trkpt>
      <trkpt lat="45.09712" lon="4.64017">
        <ele>582.32</ele>
        <time>2019-08-22T10:03:44.000Z</time>
      </trkpt>
      <trkpt lat="45.09701" lon="4.64004">
        <ele>579.8</ele>
        <time>2019-08-22T10:03:54.000Z</time>
      </trkpt>
      <trkpt lat="45.09692" lon="4.6399">
        <ele>577.7</ele>
        <time>2019-08-22T10:04:04.000Z</time>
      </trkpt>
      <trkpt lat="45.0969" lon="4.63973">
        <ele>577.43</ele>
        <time>2019-08-22T10:04:14.000Z</time>
      </trkpt>
      <trkpt lat="45.0969" lon="4.63956">
        <ele>577.71</ele>
        <time>2019-08-22T10:04:24.000Z</time>
      </trkpt>
      <trkpt lat="45.09689" lon="4.63937">
        <ele>577.93</ele>
        <time>2019-08-22T10:04:34.000Z</time>
      </trkpt>
      <trkpt lat="45.09687" lon="4.63917">
        <ele>577.9</ele>
        <time>2019-08-22T10:04:44.000Z</time>
      </trkpt>
      <trkpt lat="45.09687" lon="4.63899">
        <ele>578.05</ele>
        <time>2019-08-22T10:04:54.000Z</time>
      </trkpt>
      <trkpt lat="45.09685" lon="4.63882">
        <ele>577.89</ele>
        <time>2019-08-22T10:05:04.000Z</time>
      </trkpt>
      <trkpt lat="45.09686" lon="4.63864">
        <ele>578.18</ele>
        <time>2019-08-22T10:05:14.000Z</time>
      </trkpt>
      <trkpt lat="45.09685" lon="4.63848">
        <ele>578.06</ele>
        <time>2019-08-22T10:05:24.000Z</time>
      </trkpt>
      <trkpt lat="45.09687" lon="4.63834">
        <ele>578.36</ele>
        <time>2019-08-22T10:05:34.000Z</time>
      </trkpt>
      <trkpt lat="45.09687" lon="4.63815">
        <ele>578.11</ele>
        <time>2019-08-22T10:05:44.000Z</time>
      </trkpt>
      <trkpt lat="45.09688" lon="4.63796">
        <ele>577.61</ele>
        <time>2019-08-22T10:05:54.000Z</time>
      </trkpt>
      <trkpt lat="45.09689" lon="4.63776">
        <ele>577.05</ele>
        <time>2019-08-22T10:06:04.000Z</time>
      </trkpt>
      <trkpt lat="45.09691" lon="4.63758">
        <ele>576.45</ele>
        <time>2019-08-22T10:06:14.000Z</time>
      </trkpt>
      <trkpt lat="45.09693" lon="4.63739">
        <ele>575.64</ele>
        <time>2019-08-22T10:06:24.000Z</time>
      </trkpt>
      <trkpt lat="45.09697" lon="4.63721">
        <ele>574.89</ele>
        <time>2019-08-22T10:06:34.000Z</time>
      </trkpt>
      <trkpt lat="45.09703" lon="4.63704">
        <ele>574.04</ele>
        <time>2019-08-22T10:06:44.000Z</time>
      </trkpt>
      <trkpt lat="45.09711" lon="4.63688">
        <ele>573.2</ele>
        <time>2019-08-22T10:06:54.000Z</time>
      </trkpt>
      <trkpt lat="45.09718" lon="4.63678">
        <ele>572.5</ele>
        <time>2019-08-22T10:07:04.000Z</time>
      </trkpt>
      <trkpt lat="45.09726" lon="4.63665">
        <ele>571.35</ele>
        <time>2019-08-22T10:07:14.000Z</time>
      </trkpt>
      <trkpt lat="45.09728" lon="4.6365">
        <ele>569.59</ele>
        <time>2019-08-22T10:07:24.000Z</time>
      </trkpt>
      <trkpt lat="45.09737" lon="4.63635">
        <ele>567.77</ele>
        <time>2019-08-22T10:07:34.000Z</time>
      </trkpt>
      <trkpt lat="45.09748" lon="4.63628">
        <ele>567.19</ele>
        <time>2019-08-22T10:07:44.000Z</time>
      </trkpt>
      <trkpt lat="45.09758" lon="4.63618">
        <ele>566.6</ele>
        <time>2019-08-22T10:07:54.000Z</time>
      </trkpt>
      <trkpt lat="45.09768" lon="4.63604">
        <ele>565.97</ele>
        <time>2019-08-22T10:08:04.000Z</time>
      </trkpt>
      <trkpt lat="45.09779" lon="4.63596">
        <ele>566.57</ele>
        <time>2019-08-22T10:08:14.000Z</time>
      </trkpt>
      <trkpt lat="45.09782" lon="4.63581">
        <ele>566.22</ele>
        <time>2019-08-22T10:08:24.000Z</time>
      </trkpt>
      <trkpt lat="45.09781" lon="4.63568">
        <ele>565.43</ele>
        <time>2019-08-22T10:08:34.000Z</time>
      </trkpt>
      <trkpt lat="45.09777" lon="4.63562">
        <ele>564.65</ele>
        <time>2019-08-22T10:08:44.000Z</time>
      </trkpt>
      <trkpt lat="45.09778" lon="4.63549">
        <ele>564.6</ele>
        <time>2019-08-22T10:08:54.000Z</time>
      </trkpt>
      <trkpt lat="45.09777" lon="4.63533">
        <ele>564.39</ele>
        <time>2019-08-22T10:09:04.000Z</time>
      </trkpt>
      <trkpt lat="45.09777" lon="4.63526">
        <ele>564.51</ele>
        <time>2019-08-22T10:09:14.000Z</time>
      </trkpt>
      <trkpt lat="45.09774" lon="4.6351">
        <ele>564.02</ele>
        <time>2019-08-22T10:09:24.000Z</time>
      </trkpt>
      <trkpt lat="45.09772" lon="4.63494">
        <ele>563.88</ele>
        <time>2019-08-22T10:09:34.000Z</time>
      </trkpt>
      <trkpt lat="45.09772" lon="4.63475">
        <ele>564.57</ele>
        <time>2019-08-22T10:09:44.000Z</time>
      </trkpt>
      <trkpt lat="45.09773" lon="4.63457">
        <ele>565.89</ele>
        <time>2019-08-22T10:09:54.000Z</time>
      </trkpt>
      <trkpt lat="45.09777" lon="4.63437">
        <ele>568.09</ele>
        <time>2019-08-22T10:10:04.000Z</time>
      </trkpt>
      <trkpt lat="45.0978" lon="4.6342">
        <ele>569.57</ele>
        <time>2019-08-22T10:10:14.000Z</time>
      </trkpt>
      <trkpt lat="45.09784" lon="4.63404">
        <ele>570.72</ele>
        <time>2019-08-22T10:10:24.000Z</time>
      </trkpt>
      <trkpt lat="45.09791" lon="4.63387">
        <ele>571.76</ele>
        <time>2019-08-22T10:10:34.000Z</time>
      </trkpt>
      <trkpt lat="45.09796" lon="4.63366">
        <ele>571.58</ele>
        <time>2019-08-22T10:10:44.000Z</time>
      </trkpt>
      <trkpt lat="45.09804" lon="4.63351">
        <ele>572.27</ele>
        <time>2019-08-22T10:10:54.000Z</time>
      </trkpt>
      <trkpt lat="45.09811" lon="4.63334">
        <ele>572.33</ele>
        <time>2019-08-22T10:11:04.000Z</time>
      </trkpt>
      <trkpt lat="45.09819" lon="4.63317">
        <ele>572.76</ele>
        <time>2019-08-22T10:11:14.000Z</time>
      </trkpt>
      <trkpt lat="45.09824" lon="4.63302">
        <ele>572.43</ele>
        <time>2019-08-22T10:11:24.000Z</time>
      </trkpt>
      <trkpt lat="45.09826" lon="4.63293">
        <ele>571.74</ele>
        <time>2019-08-22T10:11:34.000Z</time>
      </trkpt>
      <trkpt lat="45.09831" lon="4.63277">
        <ele>570.68</ele>
        <time>2019-08-22T10:11:44.000Z</time>
      </trkpt>
      <trkpt lat="45.09833" lon="4.63264">
        <ele>569.16</ele>
        <time>2019-08-22T10:11:54.000Z</time>
      </trkpt>
      <trkpt lat="45.09842" lon="4.63249">
        <ele>568.67</ele>
        <time>2019-08-22T10:12:04.000Z</time>
      </trkpt>
      <trkpt lat="45.09849" lon="4.63235">
        <ele>567.73</ele>
        <time>2019-08-22T10:12:14.000Z</time>
      </trkpt>
      <trkpt lat="45.09856" lon="4.6322">
        <ele>566.43</ele>
        <time>2019-08-22T10:12:24.000Z</time>
      </trkpt>
      <trkpt lat="45.09865" lon="4.63207">
        <ele>565.91</ele>
        <time>2019-08-22T10:12:34.000Z</time>
      </trkpt>
      <trkpt lat="45.09875" lon="4.63194">
        <ele>565.07</ele>
        <time>2019-08-22T10:12:44.000Z</time>
      </trkpt>
      <trkpt lat="45.09886" lon="4.63187">
        <ele>565.85</ele>
        <time>2019-08-22T10:12:54.000Z</time>
      </trkpt>
      <trkpt lat="45.09896" lon="4.63179">
        <ele>566.4</ele>
        <time>2019-08-22T10:13:04.000Z</time>
      </trkpt>
      <trkpt lat="45.09908" lon="4.63169">
        <ele>566.78</ele>
        <time>2019-08-22T10:13:14.000Z</time>
      </trkpt>
      <trkpt lat="45.09919" lon="4.63158">
        <ele>566.56</ele>
        <time>2019-08-22T10:13:24.000Z</time>
      </trkpt>
      <trkpt lat="45.0993" lon="4.63144">
        <ele>565.88</ele>
        <time>2019-08-22T10:13:34.000Z</time>
      </trkpt>
      <trkpt lat="45.09939" lon="4.63128">
        <ele>564.41</ele>
        <time>2019-08-22T10:13:44.000Z</time>
      </trkpt>
      <trkpt lat="45.09948" lon="4.63114">
        <ele>562.97</ele>
        <time>2019-08-22T10:13:54.000Z</time>
      </trkpt>
      <trkpt lat="45.09957" lon="4.631">
        <ele>561.88</ele>
        <time>2019-08-22T10:14:04.000Z</time>
      </trkpt>
      <trkpt lat="45.09966" lon="4.63084">
        <ele>560.75</ele>
        <time>2019-08-22T10:14:14.000Z</time>
      </trkpt>
      <trkpt lat="45.09977" lon="4.63069">
        <ele>560.31</ele>
        <time>2019-08-22T10:14:24.000Z</time>
      </trkpt>
      <trkpt lat="45.09987" lon="4.63057">
        <ele>560.43</ele>
        <time>2019-08-22T10:14:34.000Z</time>
      </trkpt>
      <trkpt lat="45.09996" lon="4.63044">
        <ele>560.17</ele>
        <time>2019-08-22T10:14:44.000Z</time>
      </trkpt>
      <trkpt lat="45.10005" lon="4.63029">
        <ele>560.27</ele>
        <time>2019-08-22T10:14:54.000Z</time>
      </trkpt>
      <trkpt lat="45.10015" lon="4.63015">
        <ele>561.26</ele>
        <time>2019-08-22T10:15:04.000Z</time>
      </trkpt>
      <trkpt lat="45.10013" lon="4.62996">
        <ele>559.79</ele>
        <time>2019-08-22T10:15:14.000Z</time>
      </trkpt>
      <trkpt lat="45.1001" lon="4.62978">
        <ele>559.59</ele>
        <time>2019-08-22T10:15:24.000Z</time>
      </trkpt>
      <trkpt lat="45.10003" lon="4.62957">
        <ele>560</ele>
        <time>2019-08-22T10:15:34.000Z</time>
      </trkpt>
      <trkpt lat="45.09995" lon="4.62942">
        <ele>560.13</ele>
        <time>2019-08-22T10:15:44.000Z</time>
      </trkpt>
      <trkpt lat="45.09984" lon="4.62929">
        <ele>560.04</ele>
        <time>2019-08-22T10:15:54.000Z</time>
      </trkpt>
      <trkpt lat="45.09972" lon="4.62917">
        <ele>560.26</ele>
        <time>2019-08-22T10:16:04.000Z</time>
      </trkpt>
      <trkpt lat="45.09962" lon="4.62907">
        <ele>560.74</ele>
        <time>2019-08-22T10:16:14.000Z</time>
      </trkpt>
      <trkpt lat="45.09951" lon="4.62895">
        <ele>561.74</ele>
        <time>2019-08-22T10:16:24.000Z</time>
      </trkpt>
      <trkpt lat="45.09944" lon="4.62884">
        <ele>563.06</ele>
        <time>2019-08-22T10:16:34.000Z</time>
      </trkpt>
      <trkpt lat="45.09936" lon="4.62874">
        <ele>564.06</ele>
        <time>2019-08-22T10:16:44.000Z</time>
      </trkpt>
      <trkpt lat="45.09926" lon="4.6286">
        <ele>565.11</ele>
        <time>2019-08-22T10:16:54.000Z</time>
      </trkpt>
      <trkpt lat="45.09917" lon="4.62844">
        <ele>566.45</ele>
        <time>2019-08-22T10:17:04.000Z</time>
      </trkpt>
      <trkpt lat="45.09906" lon="4.62832">
        <ele>566.57</ele>
        <time>2019-08-22T10:17:14.000Z</time>
      </trkpt>
      <trkpt lat="45.09897" lon="4.62817">
        <ele>566.87</ele>
        <time>2019-08-22T10:17:24.000Z</time>
      </trkpt>
      <trkpt lat="45.0989" lon="4.62804">
        <ele>566.99</ele>
        <time>2019-08-22T10:17:34.000Z</time>
      </trkpt>
      <trkpt lat="45.09882" lon="4.6279">
        <ele>566.56</ele>
        <time>2019-08-22T10:17:44.000Z</time>
      </trkpt>
      <trkpt lat="45.09874" lon="4.62779">
        <ele>565.56</ele>
        <time>2019-08-22T10:17:54.000Z</time>
      </trkpt>
      <trkpt lat="45.09863" lon="4.62768">
        <ele>563.06</ele>
        <time>2019-08-22T10:18:04.000Z</time>
      </trkpt>
      <trkpt lat="45.09858" lon="4.62752">
        <ele>561.85</ele>
        <time>2019-08-22T10:18:17.000Z</time>
      </trkpt>
      <trkpt lat="45.09855" lon="4.6274">
        <ele>560.99</ele>
        <time>2019-08-22T10:18:27.000Z</time>
      </trkpt>
      <trkpt lat="45.09852" lon="4.62723">
        <ele>559.49</ele>
        <time>2019-08-22T10:18:37.000Z</time>
      </trkpt>
      <trkpt lat="45.09853" lon="4.62717">
        <ele>559.54</ele>
        <time>2019-08-22T10:18:47.000Z</time>
      </trkpt>
      <trkpt lat="45.09852" lon="4.6271">
        <ele>558.94</ele>
        <time>2019-08-22T10:18:57.000Z</time>
      </trkpt>
      <trkpt lat="45.09852" lon="4.62691">
        <ele>557.89</ele>
        <time>2019-08-22T10:19:07.000Z</time>
      </trkpt>
      <trkpt lat="45.0985" lon="4.62676">
        <ele>555.87</ele>
        <time>2019-08-22T10:19:17.000Z</time>
      </trkpt>
      <trkpt lat="45.09847" lon="4.62659">
        <ele>553.34</ele>
        <time>2019-08-22T10:19:27.000Z</time>
      </trkpt>
      <trkpt lat="45.09842" lon="4.62638">
        <ele>549.14</ele>
        <time>2019-08-22T10:19:37.000Z</time>
      </trkpt>
      <trkpt lat="45.0984" lon="4.6262">
        <ele>546.17</ele>
        <time>2019-08-22T10:19:47.000Z</time>
      </trkpt>
      <trkpt lat="45.09841" lon="4.62603">
        <ele>544.51</ele>
        <time>2019-08-22T10:19:57.000Z</time>
      </trkpt>
      <trkpt lat="45.09844" lon="4.62587">
        <ele>543.64</ele>
        <time>2019-08-22T10:20:07.000Z</time>
      </trkpt>
      <trkpt lat="45.09843" lon="4.62571">
        <ele>542.44</ele>
        <time>2019-08-22T10:20:17.000Z</time>
      </trkpt>
      <trkpt lat="45.09843" lon="4.62554">
        <ele>541.4</ele>
        <time>2019-08-22T10:20:27.000Z</time>
      </trkpt>
      <trkpt lat="45.09841" lon="4.62538">
        <ele>540.42</ele>
        <time>2019-08-22T10:20:37.000Z</time>
      </trkpt>
      <trkpt lat="45.09845" lon="4.62521">
        <ele>540.82</ele>
        <time>2019-08-22T10:20:47.000Z</time>
      </trkpt>
      <trkpt lat="45.09849" lon="4.62509">
        <ele>541.33</ele>
        <time>2019-08-22T10:20:57.000Z</time>
      </trkpt>
      <trkpt lat="45.09849" lon="4.62499">
        <ele>541.63</ele>
        <time>2019-08-22T10:21:07.000Z</time>
      </trkpt>
      <trkpt lat="45.09841" lon="4.62497">
        <ele>541.26</ele>
        <time>2019-08-22T10:21:17.000Z</time>
      </trkpt>
      <trkpt lat="45.09833" lon="4.62499">
        <ele>541.08</ele>
        <time>2019-08-22T10:21:27.000Z</time>
      </trkpt>
      <trkpt lat="45.09823" lon="4.62506">
        <ele>540.91</ele>
        <time>2019-08-22T10:21:37.000Z</time>
      </trkpt>
      <trkpt lat="45.09817" lon="4.62514">
        <ele>540.64</ele>
        <time>2019-08-22T10:21:47.000Z</time>
      </trkpt>
      <trkpt lat="45.09809" lon="4.6252">
        <ele>540.9</ele>
        <time>2019-08-22T10:21:57.000Z</time>
      </trkpt>
      <trkpt lat="45.09796" lon="4.62521">
        <ele>542.43</ele>
        <time>2019-08-22T10:22:07.000Z</time>
      </trkpt>
      <trkpt lat="45.09789" lon="4.62525">
        <ele>543.26</ele>
        <time>2019-08-22T10:22:17.000Z</time>
      </trkpt>
      <trkpt lat="45.09783" lon="4.62545">
        <ele>541.96</ele>
        <time>2019-08-22T10:22:27.000Z</time>
      </trkpt>
      <trkpt lat="45.09779" lon="4.62561">
        <ele>541.05</ele>
        <time>2019-08-22T10:22:52.000Z</time>
      </trkpt>
      <trkpt lat="45.09773" lon="4.62573">
        <ele>540.79</ele>
        <time>2019-08-22T10:23:02.000Z</time>
      </trkpt>
      <trkpt lat="45.09768" lon="4.62584">
        <ele>540.71</ele>
        <time>2019-08-22T10:23:12.000Z</time>
      </trkpt>
      <trkpt lat="45.09766" lon="4.6259">
        <ele>540.46</ele>
        <time>2019-08-22T10:23:22.000Z</time>
      </trkpt>
      <trkpt lat="45.09762" lon="4.62597">
        <ele>540.52</ele>
        <time>2019-08-22T10:23:32.000Z</time>
      </trkpt>
      <trkpt lat="45.09756" lon="4.62612">
        <ele>540.48</ele>
        <time>2019-08-22T10:23:42.000Z</time>
      </trkpt>
      <trkpt lat="45.09751" lon="4.62625">
        <ele>540.4</ele>
        <time>2019-08-22T10:23:52.000Z</time>
      </trkpt>
      <trkpt lat="45.09748" lon="4.62631">
        <ele>540.6</ele>
        <time>2019-08-22T10:24:02.000Z</time>
      </trkpt>
      <trkpt lat="45.09743" lon="4.62644">
        <ele>540.66</ele>
        <time>2019-08-22T10:24:12.000Z</time>
      </trkpt>
      <trkpt lat="45.09734" lon="4.62654">
        <ele>542.52</ele>
        <time>2019-08-22T10:24:22.000Z</time>
      </trkpt>
      <trkpt lat="45.09727" lon="4.62665">
        <ele>543.71</ele>
        <time>2019-08-22T10:24:32.000Z</time>
      </trkpt>
      <trkpt lat="45.09717" lon="4.62673">
        <ele>546.59</ele>
        <time>2019-08-22T10:24:42.000Z</time>
      </trkpt>
      <trkpt lat="45.09709" lon="4.62681">
        <ele>548.89</ele>
        <time>2019-08-22T10:24:52.000Z</time>
      </trkpt>
      <trkpt lat="45.09702" lon="4.6269">
        <ele>550.26</ele>
        <time>2019-08-22T10:25:02.000Z</time>
      </trkpt>
      <trkpt lat="45.09695" lon="4.62702">
        <ele>551.37</ele>
        <time>2019-08-22T10:25:12.000Z</time>
      </trkpt>
      <trkpt lat="45.09691" lon="4.62715">
        <ele>551.1</ele>
        <time>2019-08-22T10:25:22.000Z</time>
      </trkpt>
      <trkpt lat="45.09684" lon="4.62734">
        <ele>550.56</ele>
        <time>2019-08-22T10:25:32.000Z</time>
      </trkpt>
      <trkpt lat="45.09681" lon="4.62754">
        <ele>548.91</ele>
        <time>2019-08-22T10:25:42.000Z</time>
      </trkpt>
      <trkpt lat="45.09675" lon="4.62771">
        <ele>549.07</ele>
        <time>2019-08-22T10:25:52.000Z</time>
      </trkpt>
      <trkpt lat="45.09674" lon="4.62789">
        <ele>547.59</ele>
        <time>2019-08-22T10:26:02.000Z</time>
      </trkpt>
      <trkpt lat="45.0967" lon="4.62809">
        <ele>546.94</ele>
        <time>2019-08-22T10:26:12.000Z</time>
      </trkpt>
      <trkpt lat="45.09669" lon="4.6283">
        <ele>545.72</ele>
        <time>2019-08-22T10:26:22.000Z</time>
      </trkpt>
      <trkpt lat="45.09662" lon="4.62851">
        <ele>546.61</ele>
        <time>2019-08-22T10:26:32.000Z</time>
      </trkpt>
      <trkpt lat="45.09655" lon="4.62868">
        <ele>548.14</ele>
        <time>2019-08-22T10:26:42.000Z</time>
      </trkpt>
      <trkpt lat="45.09648" lon="4.62882">
        <ele>549.94</ele>
        <time>2019-08-22T10:26:52.000Z</time>
      </trkpt>
      <trkpt lat="45.09642" lon="4.62897">
        <ele>550.95</ele>
        <time>2019-08-22T10:27:02.000Z</time>
      </trkpt>
      <trkpt lat="45.09634" lon="4.62906">
        <ele>552.21</ele>
        <time>2019-08-22T10:27:12.000Z</time>
      </trkpt>
      <trkpt lat="45.09625" lon="4.62916">
        <ele>552.98</ele>
        <time>2019-08-22T10:27:22.000Z</time>
      </trkpt>
      <trkpt lat="45.09615" lon="4.62922">
        <ele>553.92</ele>
        <time>2019-08-22T10:27:32.000Z</time>
      </trkpt>
      <trkpt lat="45.09601" lon="4.62923">
        <ele>555.54</ele>
        <time>2019-08-22T10:27:42.000Z</time>
      </trkpt>
      <trkpt lat="45.09591" lon="4.6292">
        <ele>556.88</ele>
        <time>2019-08-22T10:27:52.000Z</time>
      </trkpt>
      <trkpt lat="45.09591" lon="4.62928">
        <ele>555.83</ele>
        <time>2019-08-22T10:28:02.000Z</time>
      </trkpt>
      <trkpt lat="45.09585" lon="4.62933">
        <ele>555.43</ele>
        <time>2019-08-22T10:28:12.000Z</time>
      </trkpt>
      <trkpt lat="45.09572" lon="4.62932">
        <ele>556.02</ele>
        <time>2019-08-22T10:28:22.000Z</time>
      </trkpt>
      <trkpt lat="45.09561" lon="4.6293">
        <ele>556.65</ele>
        <time>2019-08-22T10:28:32.000Z</time>
      </trkpt>
      <trkpt lat="45.09552" lon="4.62923">
        <ele>557.67</ele>
        <time>2019-08-22T10:28:42.000Z</time>
      </trkpt>
      <trkpt lat="45.09547" lon="4.62914">
        <ele>558.86</ele>
        <time>2019-08-22T10:28:52.000Z</time>
      </trkpt>
      <trkpt lat="45.09549" lon="4.62905">
        <ele>560.27</ele>
        <time>2019-08-22T10:29:02.000Z</time>
      </trkpt>
      <trkpt lat="45.09556" lon="4.62897">
        <ele>561.57</ele>
        <time>2019-08-22T10:29:12.000Z</time>
      </trkpt>
      <trkpt lat="45.09561" lon="4.62889">
        <ele>562.57</ele>
        <time>2019-08-22T10:29:22.000Z</time>
      </trkpt>
      <trkpt lat="45.09556" lon="4.62878">
        <ele>563.99</ele>
        <time>2019-08-22T10:29:32.000Z</time>
      </trkpt>
      <trkpt lat="45.09547" lon="4.62871">
        <ele>564.8</ele>
        <time>2019-08-22T10:29:42.000Z</time>
      </trkpt>
      <trkpt lat="45.09538" lon="4.62862">
        <ele>565.64</ele>
        <time>2019-08-22T10:29:52.000Z</time>
      </trkpt>
      <trkpt lat="45.09531" lon="4.62849">
        <ele>566.85</ele>
        <time>2019-08-22T10:30:02.000Z</time>
      </trkpt>
      <trkpt lat="45.09523" lon="4.62838">
        <ele>567.6</ele>
        <time>2019-08-22T10:30:12.000Z</time>
      </trkpt>
      <trkpt lat="45.09516" lon="4.62825">
        <ele>568.63</ele>
        <time>2019-08-22T10:30:22.000Z</time>
      </trkpt>
      <trkpt lat="45.09515" lon="4.62814">
        <ele>569.77</ele>
        <time>2019-08-22T10:30:32.000Z</time>
      </trkpt>
      <trkpt lat="45.09522" lon="4.62809">
        <ele>571.07</ele>
        <time>2019-08-22T10:30:42.000Z</time>
      </trkpt>
      <trkpt lat="45.09528" lon="4.62806">
        <ele>571.87</ele>
        <time>2019-08-22T10:30:52.000Z</time>
      </trkpt>
      <trkpt lat="45.09537" lon="4.62806">
        <ele>572.49</ele>
        <time>2019-08-22T10:31:02.000Z</time>
      </trkpt>
      <trkpt lat="45.09547" lon="4.62804">
        <ele>573.2</ele>
        <time>2019-08-22T10:31:12.000Z</time>
      </trkpt>
      <trkpt lat="45.09555" lon="4.62794">
        <ele>574.61</ele>
        <time>2019-08-22T10:31:22.000Z</time>
      </trkpt>
      <trkpt lat="45.09562" lon="4.62783">
        <ele>576.07</ele>
        <time>2019-08-22T10:31:32.000Z</time>
      </trkpt>
      <trkpt lat="45.09572" lon="4.62772">
        <ele>577.07</ele>
        <time>2019-08-22T10:31:42.000Z</time>
      </trkpt>
      <trkpt lat="45.09577" lon="4.6276">
        <ele>578.35</ele>
        <time>2019-08-22T10:31:52.000Z</time>
      </trkpt>
      <trkpt lat="45.09572" lon="4.62748">
        <ele>580.33</ele>
        <time>2019-08-22T10:32:02.000Z</time>
      </trkpt>
      <trkpt lat="45.09567" lon="4.62735">
        <ele>582.27</ele>
        <time>2019-08-22T10:32:12.000Z</time>
      </trkpt>
      <trkpt lat="45.0956" lon="4.62723">
        <ele>583.74</ele>
        <time>2019-08-22T10:32:22.000Z</time>
      </trkpt>
      <trkpt lat="45.09554" lon="4.6271">
        <ele>585.1</ele>
        <time>2019-08-22T10:32:32.000Z</time>
      </trkpt>
      <trkpt lat="45.09549" lon="4.62696">
        <ele>586.4</ele>
        <time>2019-08-22T10:32:42.000Z</time>
      </trkpt>
      <trkpt lat="45.09548" lon="4.62681">
        <ele>588.02</ele>
        <time>2019-08-22T10:32:52.000Z</time>
      </trkpt>
      <trkpt lat="45.09546" lon="4.62664">
        <ele>589.92</ele>
        <time>2019-08-22T10:33:02.000Z</time>
      </trkpt>
      <trkpt lat="45.09551" lon="4.62654">
        <ele>591.67</ele>
        <time>2019-08-22T10:33:12.000Z</time>
      </trkpt>
      <trkpt lat="45.09558" lon="4.62648">
        <ele>593.31</ele>
        <time>2019-08-22T10:33:22.000Z</time>
      </trkpt>
      <trkpt lat="45.09566" lon="4.62642">
        <ele>594.59</ele>
        <time>2019-08-22T10:33:37.000Z</time>
      </trkpt>
      <trkpt lat="45.09575" lon="4.62631">
        <ele>596.03</ele>
        <time>2019-08-22T10:33:47.000Z</time>
      </trkpt>
      <trkpt lat="45.09583" lon="4.6262">
        <ele>596.94</ele>
        <time>2019-08-22T10:33:57.000Z</time>
      </trkpt>
      <trkpt lat="45.0958" lon="4.62614">
        <ele>597.81</ele>
        <time>2019-08-22T10:34:07.000Z</time>
      </trkpt>
      <trkpt lat="45.09569" lon="4.62616">
        <ele>597.77</ele>
        <time>2019-08-22T10:34:17.000Z</time>
      </trkpt>
      <trkpt lat="45.0956" lon="4.62613">
        <ele>597.76</ele>
        <time>2019-08-22T10:34:44.000Z</time>
      </trkpt>
      <trkpt lat="45.09554" lon="4.62603">
        <ele>598.5</ele>
        <time>2019-08-22T10:34:54.000Z</time>
      </trkpt>
      <trkpt lat="45.09553" lon="4.62595">
        <ele>599.38</ele>
        <time>2019-08-22T10:35:04.000Z</time>
      </trkpt>
      <trkpt lat="45.09556" lon="4.6259">
        <ele>600.27</ele>
        <time>2019-08-22T10:35:14.000Z</time>
      </trkpt>
      <trkpt lat="45.09558" lon="4.62578">
        <ele>601.92</ele>
        <time>2019-08-22T10:35:24.000Z</time>
      </trkpt>
      <trkpt lat="45.09557" lon="4.62568">
        <ele>603.02</ele>
        <time>2019-08-22T10:35:34.000Z</time>
      </trkpt>
      <trkpt lat="45.09554" lon="4.62551">
        <ele>605.07</ele>
        <time>2019-08-22T10:35:44.000Z</time>
      </trkpt>
      <trkpt lat="45.09552" lon="4.62535">
        <ele>606.98</ele>
        <time>2019-08-22T10:35:54.000Z</time>
      </trkpt>
      <trkpt lat="45.09549" lon="4.62521">
        <ele>608.54</ele>
        <time>2019-08-22T10:36:04.000Z</time>
      </trkpt>
      <trkpt lat="45.09549" lon="4.62507">
        <ele>610.15</ele>
        <time>2019-08-22T10:36:14.000Z</time>
      </trkpt>
      <trkpt lat="45.0955" lon="4.62494">
        <ele>611.5</ele>
        <time>2019-08-22T10:36:24.000Z</time>
      </trkpt>
      <trkpt lat="45.09549" lon="4.62481">
        <ele>612.66</ele>
        <time>2019-08-22T10:36:34.000Z</time>
      </trkpt>
      <trkpt lat="45.09549" lon="4.62466">
        <ele>613.92</ele>
        <time>2019-08-22T10:36:44.000Z</time>
      </trkpt>
      <trkpt lat="45.09548" lon="4.62452">
        <ele>615.06</ele>
        <time>2019-08-22T10:36:54.000Z</time>
      </trkpt>
      <trkpt lat="45.09546" lon="4.62435">
        <ele>616.23</ele>
        <time>2019-08-22T10:37:04.000Z</time>
      </trkpt>
      <trkpt lat="45.09542" lon="4.62418">
        <ele>617.33</ele>
        <time>2019-08-22T10:37:14.000Z</time>
      </trkpt>
      <trkpt lat="45.09539" lon="4.62401">
        <ele>618.32</ele>
        <time>2019-08-22T10:37:24.000Z</time>
      </trkpt>
      <trkpt lat="45.09534" lon="4.62379">
        <ele>619.38</ele>
        <time>2019-08-22T10:37:34.000Z</time>
      </trkpt>
      <trkpt lat="45.09532" lon="4.6236">
        <ele>620.12</ele>
        <time>2019-08-22T10:37:44.000Z</time>
      </trkpt>
      <trkpt lat="45.09529" lon="4.62344">
        <ele>620.74</ele>
        <time>2019-08-22T10:37:54.000Z</time>
      </trkpt>
      <trkpt lat="45.09528" lon="4.62332">
        <ele>621.09</ele>
        <time>2019-08-22T10:38:04.000Z</time>
      </trkpt>
      <trkpt lat="45.09524" lon="4.62315">
        <ele>621.37</ele>
        <time>2019-08-22T10:38:14.000Z</time>
      </trkpt>
      <trkpt lat="45.0952" lon="4.623">
        <ele>621.25</ele>
        <time>2019-08-22T10:38:24.000Z</time>
      </trkpt>
      <trkpt lat="45.09515" lon="4.62282">
        <ele>621.16</ele>
        <time>2019-08-22T10:38:34.000Z</time>
      </trkpt>
      <trkpt lat="45.09512" lon="4.62266">
        <ele>621.27</ele>
        <time>2019-08-22T10:38:44.000Z</time>
      </trkpt>
      <trkpt lat="45.09509" lon="4.62248">
        <ele>622.26</ele>
        <time>2019-08-22T10:38:54.000Z</time>
      </trkpt>
      <trkpt lat="45.09504" lon="4.62231">
        <ele>624.29</ele>
        <time>2019-08-22T10:39:04.000Z</time>
      </trkpt>
      <trkpt lat="45.09499" lon="4.62216">
        <ele>626.58</ele>
        <time>2019-08-22T10:39:14.000Z</time>
      </trkpt>
      <trkpt lat="45.09496" lon="4.62199">
        <ele>629.22</ele>
        <time>2019-08-22T10:39:24.000Z</time>
      </trkpt>
      <trkpt lat="45.09493" lon="4.62186">
        <ele>631.42</ele>
        <time>2019-08-22T10:39:48.000Z</time>
      </trkpt>
      <trkpt lat="45.09495" lon="4.62173">
        <ele>633.5</ele>
        <time>2019-08-22T10:39:58.000Z</time>
      </trkpt>
      <trkpt lat="45.09494" lon="4.62161">
        <ele>635.57</ele>
        <time>2019-08-22T10:40:08.000Z</time>
      </trkpt>
      <trkpt lat="45.09495" lon="4.62153">
        <ele>636.74</ele>
        <time>2019-08-22T10:40:18.000Z</time>
      </trkpt>
      <trkpt lat="45.09498" lon="4.62139">
        <ele>639.14</ele>
        <time>2019-08-22T10:40:28.000Z</time>
      </trkpt>
      <trkpt lat="45.09503" lon="4.62126">
        <ele>641.07</ele>
        <time>2019-08-22T10:40:38.000Z</time>
      </trkpt>
      <trkpt lat="45.09506" lon="4.62117">
        <ele>642.64</ele>
        <time>2019-08-22T10:40:48.000Z</time>
      </trkpt>
      <trkpt lat="45.09508" lon="4.62107">
        <ele>644.59</ele>
        <time>2019-08-22T10:40:58.000Z</time>
      </trkpt>
      <trkpt lat="45.09511" lon="4.62093">
        <ele>647.01</ele>
        <time>2019-08-22T10:41:08.000Z</time>
      </trkpt>
      <trkpt lat="45.09513" lon="4.62082">
        <ele>649.09</ele>
        <time>2019-08-22T10:41:18.000Z</time>
      </trkpt>
      <trkpt lat="45.09508" lon="4.62076">
        <ele>650.7</ele>
        <time>2019-08-22T10:41:29.000Z</time>
      </trkpt>
      <trkpt lat="45.09501" lon="4.62068">
        <ele>652.88</ele>
        <time>2019-08-22T10:41:39.000Z</time>
      </trkpt>
      <trkpt lat="45.095" lon="4.62058">
        <ele>654.96</ele>
        <time>2019-08-22T10:41:49.000Z</time>
      </trkpt>
      <trkpt lat="45.09501" lon="4.62051">
        <ele>656.32</ele>
        <time>2019-08-22T10:41:59.000Z</time>
      </trkpt>
      <trkpt lat="45.0951" lon="4.62049">
        <ele>656.02</ele>
        <time>2019-08-22T10:42:09.000Z</time>
      </trkpt>
      <trkpt lat="45.09519" lon="4.62045">
        <ele>655.75</ele>
        <time>2019-08-22T10:42:19.000Z</time>
      </trkpt>
      <trkpt lat="45.09529" lon="4.62035">
        <ele>656.63</ele>
        <time>2019-08-22T10:42:29.000Z</time>
      </trkpt>
      <trkpt lat="45.0954" lon="4.62021">
        <ele>657.78</ele>
        <time>2019-08-22T10:42:39.000Z</time>
      </trkpt>
      <trkpt lat="45.0955" lon="4.62009">
        <ele>658.72</ele>
        <time>2019-08-22T10:42:49.000Z</time>
      </trkpt>
      <trkpt lat="45.09559" lon="4.61997">
        <ele>659.66</ele>
        <time>2019-08-22T10:42:59.000Z</time>
      </trkpt>
      <trkpt lat="45.09569" lon="4.61988">
        <ele>659.97</ele>
        <time>2019-08-22T10:43:09.000Z</time>
      </trkpt>
      <trkpt lat="45.09579" lon="4.61981">
        <ele>659.93</ele>
        <time>2019-08-22T10:43:19.000Z</time>
      </trkpt>
      <trkpt lat="45.09591" lon="4.6197">
        <ele>660.78</ele>
        <time>2019-08-22T10:43:29.000Z</time>
      </trkpt>
      <trkpt lat="45.09599" lon="4.61962">
        <ele>661.43</ele>
        <time>2019-08-22T10:43:39.000Z</time>
      </trkpt>
      <trkpt lat="45.09606" lon="4.61952">
        <ele>662.66</ele>
        <time>2019-08-22T10:43:49.000Z</time>
      </trkpt>
      <trkpt lat="45.09612" lon="4.61936">
        <ele>665.07</ele>
        <time>2019-08-22T10:43:59.000Z</time>
      </trkpt>
      <trkpt lat="45.09621" lon="4.61922">
        <ele>667.46</ele>
        <time>2019-08-22T10:44:09.000Z</time>
      </trkpt>
      <trkpt lat="45.09634" lon="4.6191">
        <ele>669.59</ele>
        <time>2019-08-22T10:44:19.000Z</time>
      </trkpt>
      <trkpt lat="45.09646" lon="4.61903">
        <ele>670.8</ele>
        <time>2019-08-22T10:44:48.000Z</time>
      </trkpt>
      <trkpt lat="45.09659" lon="4.61906">
        <ele>670.22</ele>
        <time>2019-08-22T10:44:58.000Z</time>
      </trkpt>
      <trkpt lat="45.09668" lon="4.6191">
        <ele>669.26</ele>
        <time>2019-08-22T10:45:08.000Z</time>
      </trkpt>
      <trkpt lat="45.09672" lon="4.61907">
        <ele>669.95</ele>
        <time>2019-08-22T10:45:18.000Z</time>
      </trkpt>
      <trkpt lat="45.09683" lon="4.61906">
        <ele>670.41</ele>
        <time>2019-08-22T10:45:28.000Z</time>
      </trkpt>
      <trkpt lat="45.09696" lon="4.61908">
        <ele>670.46</ele>
        <time>2019-08-22T10:45:38.000Z</time>
      </trkpt>
      <trkpt lat="45.09705" lon="4.61915">
        <ele>669.73</ele>
        <time>2019-08-22T10:45:48.000Z</time>
      </trkpt>
      <trkpt lat="45.09717" lon="4.6191">
        <ele>671.2</ele>
        <time>2019-08-22T10:45:58.000Z</time>
      </trkpt>
      <trkpt lat="45.09727" lon="4.61901">
        <ele>673.23</ele>
        <time>2019-08-22T10:46:08.000Z</time>
      </trkpt>
      <trkpt lat="45.09737" lon="4.61892">
        <ele>675.02</ele>
        <time>2019-08-22T10:46:18.000Z</time>
      </trkpt>
      <trkpt lat="45.09747" lon="4.61883">
        <ele>676.36</ele>
        <time>2019-08-22T10:46:28.000Z</time>
      </trkpt>
      <trkpt lat="45.09759" lon="4.61875">
        <ele>677.32</ele>
        <time>2019-08-22T10:46:38.000Z</time>
      </trkpt>
      <trkpt lat="45.09769" lon="4.61864">
        <ele>678.33</ele>
        <time>2019-08-22T10:46:48.000Z</time>
      </trkpt>
      <trkpt lat="45.0978" lon="4.61857">
        <ele>678.57</ele>
        <time>2019-08-22T10:46:58.000Z</time>
      </trkpt>
      <trkpt lat="45.09791" lon="4.6185">
        <ele>678.49</ele>
        <time>2019-08-22T10:47:08.000Z</time>
      </trkpt>
      <trkpt lat="45.09801" lon="4.61841">
        <ele>678.72</ele>
        <time>2019-08-22T10:47:18.000Z</time>
      </trkpt>
      <trkpt lat="45.09811" lon="4.61827">
        <ele>679.46</ele>
        <time>2019-08-22T10:47:28.000Z</time>
      </trkpt>
      <trkpt lat="45.0982" lon="4.61816">
        <ele>680.03</ele>
        <time>2019-08-22T10:47:38.000Z</time>
      </trkpt>
      <trkpt lat="45.09831" lon="4.61806">
        <ele>680.17</ele>
        <time>2019-08-22T10:47:48.000Z</time>
      </trkpt>
      <trkpt lat="45.09842" lon="4.61794">
        <ele>680.74</ele>
        <time>2019-08-22T10:47:58.000Z</time>
      </trkpt>
      <trkpt lat="45.09852" lon="4.61783">
        <ele>681.04</ele>
        <time>2019-08-22T10:48:08.000Z</time>
      </trkpt>
      <trkpt lat="45.09864" lon="4.61772">
        <ele>680.99</ele>
        <time>2019-08-22T10:48:18.000Z</time>
      </trkpt>
      <trkpt lat="45.09873" lon="4.6176">
        <ele>681.68</ele>
        <time>2019-08-22T10:48:28.000Z</time>
      </trkpt>
      <trkpt lat="45.09883" lon="4.6175">
        <ele>681.96</ele>
        <time>2019-08-22T10:48:38.000Z</time>
      </trkpt>
      <trkpt lat="45.09892" lon="4.61737">
        <ele>682.89</ele>
        <time>2019-08-22T10:48:48.000Z</time>
      </trkpt>
      <trkpt lat="45.09901" lon="4.61727">
        <ele>683.45</ele>
        <time>2019-08-22T10:48:58.000Z</time>
      </trkpt>
      <trkpt lat="45.09908" lon="4.61711">
        <ele>685.1</ele>
        <time>2019-08-22T10:49:08.000Z</time>
      </trkpt>
      <trkpt lat="45.0991" lon="4.61694">
        <ele>686.98</ele>
        <time>2019-08-22T10:49:18.000Z</time>
      </trkpt>
      <trkpt lat="45.0991" lon="4.61676">
        <ele>688.76</ele>
        <time>2019-08-22T10:49:28.000Z</time>
      </trkpt>
      <trkpt lat="45.09911" lon="4.61658">
        <ele>689.89</ele>
        <time>2019-08-22T10:49:38.000Z</time>
      </trkpt>
      <trkpt lat="45.0991" lon="4.6164">
        <ele>690.78</ele>
        <time>2019-08-22T10:49:48.000Z</time>
      </trkpt>
      <trkpt lat="45.09908" lon="4.61622">
        <ele>691.36</ele>
        <time>2019-08-22T10:49:58.000Z</time>
      </trkpt>
      <trkpt lat="45.09905" lon="4.61606">
        <ele>691.78</ele>
        <time>2019-08-22T10:50:08.000Z</time>
      </trkpt>
      <trkpt lat="45.09902" lon="4.6159">
        <ele>692</ele>
        <time>2019-08-22T10:50:18.000Z</time>
      </trkpt>
      <trkpt lat="45.099" lon="4.61571">
        <ele>691.81</ele>
        <time>2019-08-22T10:50:28.000Z</time>
      </trkpt>
      <trkpt lat="45.09897" lon="4.61551">
        <ele>691.32</ele>
        <time>2019-08-22T10:50:38.000Z</time>
      </trkpt>
      <trkpt lat="45.09893" lon="4.61531">
        <ele>690.56</ele>
        <time>2019-08-22T10:50:48.000Z</time>
      </trkpt>
      <trkpt lat="45.09888" lon="4.61514">
        <ele>689.87</ele>
        <time>2019-08-22T10:50:58.000Z</time>
      </trkpt>
      <trkpt lat="45.0988" lon="4.61498">
        <ele>689.47</ele>
        <time>2019-08-22T10:51:08.000Z</time>
      </trkpt>
      <trkpt lat="45.09872" lon="4.61488">
        <ele>689.57</ele>
        <time>2019-08-22T10:51:18.000Z</time>
      </trkpt>
      <trkpt lat="45.09862" lon="4.61477">
        <ele>689.61</ele>
        <time>2019-08-22T10:51:28.000Z</time>
      </trkpt>
      <trkpt lat="45.0985" lon="4.61466">
        <ele>689.96</ele>
        <time>2019-08-22T10:51:38.000Z</time>
      </trkpt>
      <trkpt lat="45.09837" lon="4.61455">
        <ele>690.5</ele>
        <time>2019-08-22T10:51:48.000Z</time>
      </trkpt>
      <trkpt lat="45.09825" lon="4.61445">
        <ele>691.2</ele>
        <time>2019-08-22T10:51:58.000Z</time>
      </trkpt>
      <trkpt lat="45.09816" lon="4.61432">
        <ele>691.51</ele>
        <time>2019-08-22T10:52:08.000Z</time>
      </trkpt>
      <trkpt lat="45.09808" lon="4.61417">
        <ele>691.96</ele>
        <time>2019-08-22T10:52:18.000Z</time>
      </trkpt>
      <trkpt lat="45.098" lon="4.61403">
        <ele>692.77</ele>
        <time>2019-08-22T10:52:28.000Z</time>
      </trkpt>
      <trkpt lat="45.09797" lon="4.61392">
        <ele>693.08</ele>
        <time>2019-08-22T10:52:38.000Z</time>
      </trkpt>
      <trkpt lat="45.09794" lon="4.61376">
        <ele>693.26</ele>
        <time>2019-08-22T10:52:48.000Z</time>
      </trkpt>
      <trkpt lat="45.09789" lon="4.61359">
        <ele>694.05</ele>
        <time>2019-08-22T10:52:58.000Z</time>
      </trkpt>
      <trkpt lat="45.09786" lon="4.61341">
        <ele>694.52</ele>
        <time>2019-08-22T10:53:08.000Z</time>
      </trkpt>
      <trkpt lat="45.09785" lon="4.61325">
        <ele>694.73</ele>
        <time>2019-08-22T10:53:18.000Z</time>
      </trkpt>
      <trkpt lat="45.09783" lon="4.61308">
        <ele>695.23</ele>
        <time>2019-08-22T10:53:28.000Z</time>
      </trkpt>
      <trkpt lat="45.09781" lon="4.61291">
        <ele>695.88</ele>
        <time>2019-08-22T10:53:38.000Z</time>
      </trkpt>
      <trkpt lat="45.09779" lon="4.61274">
        <ele>696.35</ele>
        <time>2019-08-22T10:53:48.000Z</time>
      </trkpt>
      <trkpt lat="45.09776" lon="4.61255">
        <ele>696.87</ele>
        <time>2019-08-22T10:53:58.000Z</time>
      </trkpt>
      <trkpt lat="45.09777" lon="4.61237">
        <ele>696.01</ele>
        <time>2019-08-22T10:54:08.000Z</time>
      </trkpt>
      <trkpt lat="45.0977" lon="4.61222">
        <ele>696.82</ele>
        <time>2019-08-22T10:54:18.000Z</time>
      </trkpt>
      <trkpt lat="45.09768" lon="4.61202">
        <ele>696.12</ele>
        <time>2019-08-22T10:54:30.000Z</time>
      </trkpt>
      <trkpt lat="45.09762" lon="4.61182">
        <ele>696.27</ele>
        <time>2019-08-22T10:54:40.000Z</time>
      </trkpt>
      <trkpt lat="45.09757" lon="4.61165">
        <ele>696.86</ele>
        <time>2019-08-22T10:54:50.000Z</time>
      </trkpt>
      <trkpt lat="45.09757" lon="4.61157">
        <ele>696.19</ele>
        <time>2019-08-22T10:55:00.000Z</time>
      </trkpt>
      <trkpt lat="45.09754" lon="4.61146">
        <ele>696.08</ele>
        <time>2019-08-22T10:55:10.000Z</time>
      </trkpt>
      <trkpt lat="45.09753" lon="4.61134">
        <ele>695.42</ele>
        <time>2019-08-22T10:55:20.000Z</time>
      </trkpt>
      <trkpt lat="45.09748" lon="4.61122">
        <ele>695.83</ele>
        <time>2019-08-22T10:55:30.000Z</time>
      </trkpt>
      <trkpt lat="45.09744" lon="4.61108">
        <ele>696.22</ele>
        <time>2019-08-22T10:55:40.000Z</time>
      </trkpt>
      <trkpt lat="45.09736" lon="4.61096">
        <ele>697.75</ele>
        <time>2019-08-22T10:55:50.000Z</time>
      </trkpt>
      <trkpt lat="45.09729" lon="4.61076">
        <ele>699.16</ele>
        <time>2019-08-22T10:56:00.000Z</time>
      </trkpt>
      <trkpt lat="45.09727" lon="4.61054">
        <ele>699.06</ele>
        <time>2019-08-22T10:56:10.000Z</time>
      </trkpt>
      <trkpt lat="45.09725" lon="4.61036">
        <ele>699.37</ele>
        <time>2019-08-22T10:56:20.000Z</time>
      </trkpt>
      <trkpt lat="45.0972" lon="4.61019">
        <ele>700.27</ele>
        <time>2019-08-22T10:56:30.000Z</time>
      </trkpt>
      <trkpt lat="45.09711" lon="4.61003">
        <ele>701.93</ele>
        <time>2019-08-22T10:56:40.000Z</time>
      </trkpt>
      <trkpt lat="45.09699" lon="4.6099">
        <ele>703.74</ele>
        <time>2019-08-22T10:56:50.000Z</time>
      </trkpt>
      <trkpt lat="45.09689" lon="4.60978">
        <ele>705.08</ele>
        <time>2019-08-22T10:57:00.000Z</time>
      </trkpt>
      <trkpt lat="45.09682" lon="4.60965">
        <ele>706.06</ele>
        <time>2019-08-22T10:57:10.000Z</time>
      </trkpt>
      <trkpt lat="45.09684" lon="4.60952">
        <ele>706.5</ele>
        <time>2019-08-22T10:57:20.000Z</time>
      </trkpt>
      <trkpt lat="45.09685" lon="4.60943">
        <ele>706.97</ele>
        <time>2019-08-22T10:57:30.000Z</time>
      </trkpt>
      <trkpt lat="45.09688" lon="4.60928">
        <ele>707.66</ele>
        <time>2019-08-22T10:57:40.000Z</time>
      </trkpt>
      <trkpt lat="45.0969" lon="4.60913">
        <ele>708.22</ele>
        <time>2019-08-22T10:57:50.000Z</time>
      </trkpt>
      <trkpt lat="45.0969" lon="4.60895">
        <ele>709.01</ele>
        <time>2019-08-22T10:58:00.000Z</time>
      </trkpt>
      <trkpt lat="45.0969" lon="4.60876">
        <ele>709.85</ele>
        <time>2019-08-22T10:58:10.000Z</time>
      </trkpt>
      <trkpt lat="45.09688" lon="4.60858">
        <ele>710.68</ele>
        <time>2019-08-22T10:58:20.000Z</time>
      </trkpt>
      <trkpt lat="45.09686" lon="4.60839">
        <ele>711.56</ele>
        <time>2019-08-22T10:58:30.000Z</time>
      </trkpt>
      <trkpt lat="45.09683" lon="4.60822">
        <ele>712.44</ele>
        <time>2019-08-22T10:58:40.000Z</time>
      </trkpt>
      <trkpt lat="45.09683" lon="4.60803">
        <ele>713.57</ele>
        <time>2019-08-22T10:58:50.000Z</time>
      </trkpt>
      <trkpt lat="45.09682" lon="4.60787">
        <ele>714.65</ele>
        <time>2019-08-22T10:59:00.000Z</time>
      </trkpt>
      <trkpt lat="45.09679" lon="4.60768">
        <ele>715.9</ele>
        <time>2019-08-22T10:59:10.000Z</time>
      </trkpt>
      <trkpt lat="45.09676" lon="4.60751">
        <ele>717.18</ele>
        <time>2019-08-22T10:59:20.000Z</time>
      </trkpt>
      <trkpt lat="45.09672" lon="4.60734">
        <ele>718.53</ele>
        <time>2019-08-22T10:59:30.000Z</time>
      </trkpt>
      <trkpt lat="45.09668" lon="4.60717">
        <ele>719.95</ele>
        <time>2019-08-22T10:59:40.000Z</time>
      </trkpt>
      <trkpt lat="45.09663" lon="4.60699">
        <ele>721.5</ele>
        <time>2019-08-22T10:59:50.000Z</time>
      </trkpt>
      <trkpt lat="45.09658" lon="4.60683">
        <ele>722.86</ele>
        <time>2019-08-22T11:00:00.000Z</time>
      </trkpt>
      <trkpt lat="45.09651" lon="4.60669">
        <ele>723.8</ele>
        <time>2019-08-22T11:00:10.000Z</time>
      </trkpt>
      <trkpt lat="45.09647" lon="4.60653">
        <ele>724.99</ele>
        <time>2019-08-22T11:00:20.000Z</time>
      </trkpt>
      <trkpt lat="45.09641" lon="4.60639">
        <ele>725.71</ele>
        <time>2019-08-22T11:00:30.000Z</time>
      </trkpt>
      <trkpt lat="45.09635" lon="4.60622">
        <ele>726.54</ele>
        <time>2019-08-22T11:00:40.000Z</time>
      </trkpt>
      <trkpt lat="45.09633" lon="4.60604">
        <ele>728.01</ele>
        <time>2019-08-22T11:00:50.000Z</time>
      </trkpt>
      <trkpt lat="45.09629" lon="4.60588">
        <ele>728.96</ele>
        <time>2019-08-22T11:01:00.000Z</time>
      </trkpt>
      <trkpt lat="45.09623" lon="4.60571">
        <ele>729.01</ele>
        <time>2019-08-22T11:01:10.000Z</time>
      </trkpt>
      <trkpt lat="45.0962" lon="4.60556">
        <ele>729.82</ele>
        <time>2019-08-22T11:01:20.000Z</time>
      </trkpt>
      <trkpt lat="45.09619" lon="4.6054">
        <ele>731.03</ele>
        <time>2019-08-22T11:01:30.000Z</time>
      </trkpt>
      <trkpt lat="45.09616" lon="4.60521">
        <ele>732</ele>
        <time>2019-08-22T11:01:40.000Z</time>
      </trkpt>
      <trkpt lat="45.09616" lon="4.60504">
        <ele>733.71</ele>
        <time>2019-08-22T11:01:50.000Z</time>
      </trkpt>
      <trkpt lat="45.09615" lon="4.60486">
        <ele>734.96</ele>
        <time>2019-08-22T11:02:00.000Z</time>
      </trkpt>
      <trkpt lat="45.09614" lon="4.60467">
        <ele>735.96</ele>
        <time>2019-08-22T11:02:10.000Z</time>
      </trkpt>
      <trkpt lat="45.09609" lon="4.60451">
        <ele>735.56</ele>
        <time>2019-08-22T11:02:20.000Z</time>
      </trkpt>
      <trkpt lat="45.09605" lon="4.60433">
        <ele>735.22</ele>
        <time>2019-08-22T11:02:30.000Z</time>
      </trkpt>
      <trkpt lat="45.09602" lon="4.60415">
        <ele>735.41</ele>
        <time>2019-08-22T11:02:40.000Z</time>
      </trkpt>
      <trkpt lat="45.096" lon="4.60397">
        <ele>735.38</ele>
        <time>2019-08-22T11:02:50.000Z</time>
      </trkpt>
      <trkpt lat="45.09601" lon="4.60381">
        <ele>736.64</ele>
        <time>2019-08-22T11:03:00.000Z</time>
      </trkpt>
      <trkpt lat="45.09607" lon="4.60367">
        <ele>739.47</ele>
        <time>2019-08-22T11:03:10.000Z</time>
      </trkpt>
      <trkpt lat="45.09613" lon="4.6035">
        <ele>741.91</ele>
        <time>2019-08-22T11:03:20.000Z</time>
      </trkpt>
      <trkpt lat="45.0962" lon="4.60335">
        <ele>744</ele>
        <time>2019-08-22T11:03:30.000Z</time>
      </trkpt>
      <trkpt lat="45.09627" lon="4.60319">
        <ele>745.46</ele>
        <time>2019-08-22T11:03:40.000Z</time>
      </trkpt>
      <trkpt lat="45.09635" lon="4.60304">
        <ele>746.76</ele>
        <time>2019-08-22T11:03:50.000Z</time>
      </trkpt>
      <trkpt lat="45.0964" lon="4.60288">
        <ele>746.17</ele>
        <time>2019-08-22T11:05:28.000Z</time>
      </trkpt>
      <trkpt lat="45.09647" lon="4.60273">
        <ele>746.26</ele>
        <time>2019-08-22T11:23:22.000Z</time>
      </trkpt>
      <trkpt lat="45.09655" lon="4.60268">
        <ele>748.35</ele>
        <time>2019-08-22T11:23:32.000Z</time>
      </trkpt>
      <trkpt lat="45.09653" lon="4.6027">
        <ele>747.88</ele>
        <time>2019-08-22T11:23:48.000Z</time>
      </trkpt>
      <trkpt lat="45.09657" lon="4.60265">
        <ele>748.47</ele>
        <time>2019-08-22T11:23:58.000Z</time>
      </trkpt>
      <trkpt lat="45.09661" lon="4.60259">
        <ele>749</ele>
        <time>2019-08-22T11:24:11.000Z</time>
      </trkpt>
      <trkpt lat="45.09665" lon="4.60255">
        <ele>749.81</ele>
        <time>2019-08-22T11:24:21.000Z</time>
      </trkpt>
      <trkpt lat="45.09672" lon="4.60245">
        <ele>751.28</ele>
        <time>2019-08-22T11:24:31.000Z</time>
      </trkpt>
      <trkpt lat="45.09675" lon="4.60239">
        <ele>751.88</ele>
        <time>2019-08-22T11:24:41.000Z</time>
      </trkpt>
      <trkpt lat="45.09681" lon="4.60231">
        <ele>753.4</ele>
        <time>2019-08-22T11:24:51.000Z</time>
      </trkpt>
      <trkpt lat="45.09682" lon="4.60219">
        <ele>753.32</ele>
        <time>2019-08-22T11:25:01.000Z</time>
      </trkpt>
      <trkpt lat="45.09684" lon="4.60203">
        <ele>752.91</ele>
        <time>2019-08-22T11:25:11.000Z</time>
      </trkpt>
      <trkpt lat="45.09686" lon="4.60187">
        <ele>753.23</ele>
        <time>2019-08-22T11:25:21.000Z</time>
      </trkpt>
      <trkpt lat="45.09689" lon="4.60171">
        <ele>753.67</ele>
        <time>2019-08-22T11:25:31.000Z</time>
      </trkpt>
      <trkpt lat="45.09693" lon="4.60156">
        <ele>754.51</ele>
        <time>2019-08-22T11:25:41.000Z</time>
      </trkpt>
      <trkpt lat="45.09697" lon="4.6014">
        <ele>755.39</ele>
        <time>2019-08-22T11:25:51.000Z</time>
      </trkpt>
      <trkpt lat="45.09701" lon="4.60126">
        <ele>756.64</ele>
        <time>2019-08-22T11:26:01.000Z</time>
      </trkpt>
      <trkpt lat="45.09703" lon="4.60108">
        <ele>756.54</ele>
        <time>2019-08-22T11:26:11.000Z</time>
      </trkpt>
      <trkpt lat="45.09703" lon="4.60091">
        <ele>755.84</ele>
        <time>2019-08-22T11:26:21.000Z</time>
      </trkpt>
      <trkpt lat="45.09706" lon="4.60075">
        <ele>756.29</ele>
        <time>2019-08-22T11:26:31.000Z</time>
      </trkpt>
      <trkpt lat="45.0971" lon="4.60061">
        <ele>757.05</ele>
        <time>2019-08-22T11:26:41.000Z</time>
      </trkpt>
      <trkpt lat="45.09713" lon="4.60048">
        <ele>757.64</ele>
        <time>2019-08-22T11:26:51.000Z</time>
      </trkpt>
      <trkpt lat="45.0972" lon="4.60029">
        <ele>759.5</ele>
        <time>2019-08-22T11:27:01.000Z</time>
      </trkpt>
      <trkpt lat="45.09725" lon="4.60011">
        <ele>760.42</ele>
        <time>2019-08-22T11:27:11.000Z</time>
      </trkpt>
      <trkpt lat="45.09729" lon="4.59998">
        <ele>761.56</ele>
        <time>2019-08-22T11:27:21.000Z</time>
      </trkpt>
      <trkpt lat="45.09735" lon="4.59979">
        <ele>762.85</ele>
        <time>2019-08-22T11:27:31.000Z</time>
      </trkpt>
      <trkpt lat="45.09739" lon="4.59961">
        <ele>763.92</ele>
        <time>2019-08-22T11:27:41.000Z</time>
      </trkpt>
      <trkpt lat="45.09742" lon="4.59943">
        <ele>764.93</ele>
        <time>2019-08-22T11:27:51.000Z</time>
      </trkpt>
      <trkpt lat="45.09743" lon="4.59926">
        <ele>765.59</ele>
        <time>2019-08-22T11:28:01.000Z</time>
      </trkpt>
      <trkpt lat="45.09743" lon="4.59912">
        <ele>766.1</ele>
        <time>2019-08-22T11:28:11.000Z</time>
      </trkpt>
      <trkpt lat="45.09742" lon="4.59895">
        <ele>766.85</ele>
        <time>2019-08-22T11:28:21.000Z</time>
      </trkpt>
      <trkpt lat="45.0974" lon="4.59879">
        <ele>767.28</ele>
        <time>2019-08-22T11:28:31.000Z</time>
      </trkpt>
      <trkpt lat="45.09739" lon="4.59864">
        <ele>768.2</ele>
        <time>2019-08-22T11:28:41.000Z</time>
      </trkpt>
      <trkpt lat="45.09737" lon="4.59848">
        <ele>768.83</ele>
        <time>2019-08-22T11:28:51.000Z</time>
      </trkpt>
      <trkpt lat="45.09734" lon="4.59834">
        <ele>769.02</ele>
        <time>2019-08-22T11:29:01.000Z</time>
      </trkpt>
      <trkpt lat="45.09732" lon="4.59818">
        <ele>769.56</ele>
        <time>2019-08-22T11:29:11.000Z</time>
      </trkpt>
      <trkpt lat="45.09728" lon="4.59803">
        <ele>769.76</ele>
        <time>2019-08-22T11:29:21.000Z</time>
      </trkpt>
      <trkpt lat="45.09728" lon="4.59788">
        <ele>770.84</ele>
        <time>2019-08-22T11:29:31.000Z</time>
      </trkpt>
      <trkpt lat="45.09727" lon="4.59769">
        <ele>772.03</ele>
        <time>2019-08-22T11:29:41.000Z</time>
      </trkpt>
      <trkpt lat="45.09723" lon="4.5975">
        <ele>772.39</ele>
        <time>2019-08-22T11:29:51.000Z</time>
      </trkpt>
      <trkpt lat="45.0972" lon="4.5973">
        <ele>772.78</ele>
        <time>2019-08-22T11:30:01.000Z</time>
      </trkpt>
      <trkpt lat="45.09716" lon="4.59715">
        <ele>772.48</ele>
        <time>2019-08-22T11:30:11.000Z</time>
      </trkpt>
      <trkpt lat="45.09715" lon="4.59698">
        <ele>773.27</ele>
        <time>2019-08-22T11:30:21.000Z</time>
      </trkpt>
      <trkpt lat="45.09714" lon="4.59683">
        <ele>773.8</ele>
        <time>2019-08-22T11:30:31.000Z</time>
      </trkpt>
      <trkpt lat="45.09714" lon="4.59665">
        <ele>774.61</ele>
        <time>2019-08-22T11:30:41.000Z</time>
      </trkpt>
      <trkpt lat="45.09714" lon="4.59647">
        <ele>775.09</ele>
        <time>2019-08-22T11:30:51.000Z</time>
      </trkpt>
      <trkpt lat="45.09714" lon="4.5963">
        <ele>775.37</ele>
        <time>2019-08-22T11:31:01.000Z</time>
      </trkpt>
      <trkpt lat="45.09713" lon="4.59613">
        <ele>775.36</ele>
        <time>2019-08-22T11:31:11.000Z</time>
      </trkpt>
      <trkpt lat="45.09711" lon="4.59594">
        <ele>775.25</ele>
        <time>2019-08-22T11:31:21.000Z</time>
      </trkpt>
      <trkpt lat="45.09707" lon="4.59577">
        <ele>775.05</ele>
        <time>2019-08-22T11:31:31.000Z</time>
      </trkpt>
      <trkpt lat="45.09704" lon="4.59559">
        <ele>775.31</ele>
        <time>2019-08-22T11:31:41.000Z</time>
      </trkpt>
      <trkpt lat="45.09704" lon="4.5954">
        <ele>776.04</ele>
        <time>2019-08-22T11:31:51.000Z</time>
      </trkpt>
      <trkpt lat="45.09706" lon="4.59522">
        <ele>776.74</ele>
        <time>2019-08-22T11:32:01.000Z</time>
      </trkpt>
      <trkpt lat="45.09705" lon="4.59504">
        <ele>777.69</ele>
        <time>2019-08-22T11:32:11.000Z</time>
      </trkpt>
      <trkpt lat="45.097" lon="4.59485">
        <ele>779.43</ele>
        <time>2019-08-22T11:32:21.000Z</time>
      </trkpt>
      <trkpt lat="45.0969" lon="4.59472">
        <ele>781.61</ele>
        <time>2019-08-22T11:32:31.000Z</time>
      </trkpt>
      <trkpt lat="45.09682" lon="4.59459">
        <ele>783.73</ele>
        <time>2019-08-22T11:32:41.000Z</time>
      </trkpt>
      <trkpt lat="45.09676" lon="4.5945">
        <ele>785.13</ele>
        <time>2019-08-22T11:32:51.000Z</time>
      </trkpt>
      <trkpt lat="45.09671" lon="4.59441">
        <ele>786.55</ele>
        <time>2019-08-22T11:33:01.000Z</time>
      </trkpt>
      <trkpt lat="45.09669" lon="4.59434">
        <ele>787.45</ele>
        <time>2019-08-22T11:33:11.000Z</time>
      </trkpt>
      <trkpt lat="45.09662" lon="4.59429">
        <ele>788.06</ele>
        <time>2019-08-22T11:33:21.000Z</time>
      </trkpt>
      <trkpt lat="45.09654" lon="4.59419">
        <ele>788.81</ele>
        <time>2019-08-22T11:33:31.000Z</time>
      </trkpt>
      <trkpt lat="45.09645" lon="4.59408">
        <ele>789.13</ele>
        <time>2019-08-22T11:33:41.000Z</time>
      </trkpt>
      <trkpt lat="45.09635" lon="4.59399">
        <ele>788.59</ele>
        <time>2019-08-22T11:33:51.000Z</time>
      </trkpt>
      <trkpt lat="45.09628" lon="4.59391">
        <ele>788.39</ele>
        <time>2019-08-22T11:34:01.000Z</time>
      </trkpt>
      <trkpt lat="45.09621" lon="4.59381">
        <ele>788.63</ele>
        <time>2019-08-22T11:34:11.000Z</time>
      </trkpt>
      <trkpt lat="45.09611" lon="4.59366">
        <ele>789.81</ele>
        <time>2019-08-22T11:34:21.000Z</time>
      </trkpt>
      <trkpt lat="45.09603" lon="4.59354">
        <ele>790.56</ele>
        <time>2019-08-22T11:34:31.000Z</time>
      </trkpt>
      <trkpt lat="45.09597" lon="4.59343">
        <ele>791.62</ele>
        <time>2019-08-22T11:34:41.000Z</time>
      </trkpt>
      <trkpt lat="45.09589" lon="4.5933">
        <ele>792.9</ele>
        <time>2019-08-22T11:34:51.000Z</time>
      </trkpt>
      <trkpt lat="45.09583" lon="4.59323">
        <ele>793.35</ele>
        <time>2019-08-22T11:35:01.000Z</time>
      </trkpt>
      <trkpt lat="45.09576" lon="4.59311">
        <ele>794.41</ele>
        <time>2019-08-22T11:35:11.000Z</time>
      </trkpt>
      <trkpt lat="45.09567" lon="4.593">
        <ele>795.16</ele>
        <time>2019-08-22T11:35:21.000Z</time>
      </trkpt>
      <trkpt lat="45.09557" lon="4.59286">
        <ele>795.55</ele>
        <time>2019-08-22T11:35:31.000Z</time>
      </trkpt>
      <trkpt lat="45.0955" lon="4.59273">
        <ele>796.45</ele>
        <time>2019-08-22T11:35:41.000Z</time>
      </trkpt>
      <trkpt lat="45.09543" lon="4.59262">
        <ele>796.76</ele>
        <time>2019-08-22T11:35:51.000Z</time>
      </trkpt>
      <trkpt lat="45.0954" lon="4.59241">
        <ele>799.69</ele>
        <time>2019-08-22T11:36:01.000Z</time>
      </trkpt>
      <trkpt lat="45.09537" lon="4.59222">
        <ele>801.82</ele>
        <time>2019-08-22T11:36:11.000Z</time>
      </trkpt>
      <trkpt lat="45.09533" lon="4.59205">
        <ele>802.59</ele>
        <time>2019-08-22T11:36:21.000Z</time>
      </trkpt>
      <trkpt lat="45.09535" lon="4.59193">
        <ele>804.72</ele>
        <time>2019-08-22T11:36:31.000Z</time>
      </trkpt>
      <trkpt lat="45.09531" lon="4.59173">
        <ele>806.03</ele>
        <time>2019-08-22T11:36:41.000Z</time>
      </trkpt>
      <trkpt lat="45.09529" lon="4.59153">
        <ele>807.4</ele>
        <time>2019-08-22T11:36:51.000Z</time>
      </trkpt>
      <trkpt lat="45.09527" lon="4.59134">
        <ele>808.21</ele>
        <time>2019-08-22T11:37:01.000Z</time>
      </trkpt>
      <trkpt lat="45.09524" lon="4.59115">
        <ele>808.61</ele>
        <time>2019-08-22T11:37:11.000Z</time>
      </trkpt>
      <trkpt lat="45.09525" lon="4.59096">
        <ele>810.49</ele>
        <time>2019-08-22T11:37:21.000Z</time>
      </trkpt>
      <trkpt lat="45.09523" lon="4.59079">
        <ele>811.12</ele>
        <time>2019-08-22T11:37:31.000Z</time>
      </trkpt>
      <trkpt lat="45.09525" lon="4.59062">
        <ele>812.91</ele>
        <time>2019-08-22T11:37:41.000Z</time>
      </trkpt>
      <trkpt lat="45.09527" lon="4.59046">
        <ele>814.98</ele>
        <time>2019-08-22T11:37:51.000Z</time>
      </trkpt>
      <trkpt lat="45.09527" lon="4.59028">
        <ele>816.2</ele>
        <time>2019-08-22T11:38:01.000Z</time>
      </trkpt>
      <trkpt lat="45.09527" lon="4.5901">
        <ele>817.45</ele>
        <time>2019-08-22T11:38:11.000Z</time>
      </trkpt>
      <trkpt lat="45.09528" lon="4.58993">
        <ele>818.92</ele>
        <time>2019-08-22T11:38:21.000Z</time>
      </trkpt>
      <trkpt lat="45.09531" lon="4.58973">
        <ele>821.46</ele>
        <time>2019-08-22T11:38:31.000Z</time>
      </trkpt>
      <trkpt lat="45.0953" lon="4.58956">
        <ele>822.65</ele>
        <time>2019-08-22T11:38:41.000Z</time>
      </trkpt>
      <trkpt lat="45.09529" lon="4.58942">
        <ele>823.13</ele>
        <time>2019-08-22T11:38:51.000Z</time>
      </trkpt>
      <trkpt lat="45.09529" lon="4.58929">
        <ele>824.41</ele>
        <time>2019-08-22T11:39:01.000Z</time>
      </trkpt>
      <trkpt lat="45.09528" lon="4.58913">
        <ele>825.55</ele>
        <time>2019-08-22T11:39:11.000Z</time>
      </trkpt>
      <trkpt lat="45.09524" lon="4.58895">
        <ele>826.41</ele>
        <time>2019-08-22T11:39:21.000Z</time>
      </trkpt>
      <trkpt lat="45.09525" lon="4.58882">
        <ele>828.54</ele>
        <time>2019-08-22T11:39:31.000Z</time>
      </trkpt>
      <trkpt lat="45.0952" lon="4.58866">
        <ele>829.05</ele>
        <time>2019-08-22T11:39:41.000Z</time>
      </trkpt>
      <trkpt lat="45.09516" lon="4.58846">
        <ele>829.88</ele>
        <time>2019-08-22T11:39:51.000Z</time>
      </trkpt>
      <trkpt lat="45.09512" lon="4.58824">
        <ele>830.14</ele>
        <time>2019-08-22T11:40:01.000Z</time>
      </trkpt>
      <trkpt lat="45.09511" lon="4.58807">
        <ele>830.12</ele>
        <time>2019-08-22T11:40:11.000Z</time>
      </trkpt>
      <trkpt lat="45.09509" lon="4.5879">
        <ele>829.56</ele>
        <time>2019-08-22T11:40:21.000Z</time>
      </trkpt>
      <trkpt lat="45.09509" lon="4.58772">
        <ele>829.32</ele>
        <time>2019-08-22T11:40:31.000Z</time>
      </trkpt>
      <trkpt lat="45.09511" lon="4.58756">
        <ele>829.15</ele>
        <time>2019-08-22T11:40:41.000Z</time>
      </trkpt>
      <trkpt lat="45.09516" lon="4.5874">
        <ele>829.19</ele>
        <time>2019-08-22T11:40:51.000Z</time>
      </trkpt>
      <trkpt lat="45.09523" lon="4.58723">
        <ele>828.68</ele>
        <time>2019-08-22T11:41:01.000Z</time>
      </trkpt>
      <trkpt lat="45.09528" lon="4.58711">
        <ele>827.9</ele>
        <time>2019-08-22T11:41:11.000Z</time>
      </trkpt>
      <trkpt lat="45.09537" lon="4.58702">
        <ele>827.36</ele>
        <time>2019-08-22T11:41:21.000Z</time>
      </trkpt>
      <trkpt lat="45.09546" lon="4.58694">
        <ele>826.52</ele>
        <time>2019-08-22T11:41:31.000Z</time>
      </trkpt>
      <trkpt lat="45.09551" lon="4.5869">
        <ele>825.99</ele>
        <time>2019-08-22T11:41:41.000Z</time>
      </trkpt>
      <trkpt lat="45.09558" lon="4.58691">
        <ele>826.56</ele>
        <time>2019-08-22T11:41:51.000Z</time>
      </trkpt>
      <trkpt lat="45.09566" lon="4.58694">
        <ele>827.45</ele>
        <time>2019-08-22T11:42:01.000Z</time>
      </trkpt>
      <trkpt lat="45.09573" lon="4.58696">
        <ele>828.2</ele>
        <time>2019-08-22T11:42:11.000Z</time>
      </trkpt>
      <trkpt lat="45.09586" lon="4.58703">
        <ele>830.34</ele>
        <time>2019-08-22T11:42:21.000Z</time>
      </trkpt>
      <trkpt lat="45.09597" lon="4.5871">
        <ele>832.66</ele>
        <time>2019-08-22T11:42:31.000Z</time>
      </trkpt>
      <trkpt lat="45.09608" lon="4.58718">
        <ele>834.9</ele>
        <time>2019-08-22T11:42:41.000Z</time>
      </trkpt>
      <trkpt lat="45.0962" lon="4.58726">
        <ele>837.13</ele>
        <time>2019-08-22T11:42:51.000Z</time>
      </trkpt>
      <trkpt lat="45.09632" lon="4.58732">
        <ele>838.75</ele>
        <time>2019-08-22T11:43:01.000Z</time>
      </trkpt>
      <trkpt lat="45.09644" lon="4.58733">
        <ele>839.25</ele>
        <time>2019-08-22T11:43:11.000Z</time>
      </trkpt>
      <trkpt lat="45.09657" lon="4.58735">
        <ele>840.18</ele>
        <time>2019-08-22T11:43:21.000Z</time>
      </trkpt>
      <trkpt lat="45.09669" lon="4.58737">
        <ele>841.33</ele>
        <time>2019-08-22T11:43:31.000Z</time>
      </trkpt>
      <trkpt lat="45.09684" lon="4.58736">
        <ele>842.11</ele>
        <time>2019-08-22T11:43:41.000Z</time>
      </trkpt>
      <trkpt lat="45.09698" lon="4.58732">
        <ele>842.06</ele>
        <time>2019-08-22T11:43:51.000Z</time>
      </trkpt>
      <trkpt lat="45.09712" lon="4.58726">
        <ele>841.71</ele>
        <time>2019-08-22T11:44:01.000Z</time>
      </trkpt>
      <trkpt lat="45.09727" lon="4.58722">
        <ele>841.89</ele>
        <time>2019-08-22T11:44:11.000Z</time>
      </trkpt>
      <trkpt lat="45.09741" lon="4.5872">
        <ele>842.83</ele>
        <time>2019-08-22T11:44:21.000Z</time>
      </trkpt>
      <trkpt lat="45.09754" lon="4.58722">
        <ele>844.86</ele>
        <time>2019-08-22T11:44:31.000Z</time>
      </trkpt>
      <trkpt lat="45.09764" lon="4.58721">
        <ele>845.82</ele>
        <time>2019-08-22T11:44:41.000Z</time>
      </trkpt>
      <trkpt lat="45.09777" lon="4.58713">
        <ele>845.72</ele>
        <time>2019-08-22T11:44:51.000Z</time>
      </trkpt>
      <trkpt lat="45.0979" lon="4.58707">
        <ele>846.12</ele>
        <time>2019-08-22T11:45:01.000Z</time>
      </trkpt>
      <trkpt lat="45.098" lon="4.58698">
        <ele>845.75</ele>
        <time>2019-08-22T11:45:11.000Z</time>
      </trkpt>
      <trkpt lat="45.09813" lon="4.58692">
        <ele>846.16</ele>
        <time>2019-08-22T11:45:21.000Z</time>
      </trkpt>
      <trkpt lat="45.09824" lon="4.58688">
        <ele>846.74</ele>
        <time>2019-08-22T11:45:31.000Z</time>
      </trkpt>
      <trkpt lat="45.09837" lon="4.58684">
        <ele>847.06</ele>
        <time>2019-08-22T11:45:41.000Z</time>
      </trkpt>
      <trkpt lat="45.09851" lon="4.58679">
        <ele>847.45</ele>
        <time>2019-08-22T11:45:51.000Z</time>
      </trkpt>
      <trkpt lat="45.09863" lon="4.5867">
        <ele>847.46</ele>
        <time>2019-08-22T11:46:01.000Z</time>
      </trkpt>
      <trkpt lat="45.09874" lon="4.58659">
        <ele>847.83</ele>
        <time>2019-08-22T11:46:11.000Z</time>
      </trkpt>
      <trkpt lat="45.09881" lon="4.58645">
        <ele>848.23</ele>
        <time>2019-08-22T11:46:21.000Z</time>
      </trkpt>
      <trkpt lat="45.09886" lon="4.58629">
        <ele>848.75</ele>
        <time>2019-08-22T11:46:31.000Z</time>
      </trkpt>
      <trkpt lat="45.09889" lon="4.58612">
        <ele>849.16</ele>
        <time>2019-08-22T11:46:41.000Z</time>
      </trkpt>
      <trkpt lat="45.09892" lon="4.58596">
        <ele>849.89</ele>
        <time>2019-08-22T11:46:51.000Z</time>
      </trkpt>
      <trkpt lat="45.09896" lon="4.58581">
        <ele>850.78</ele>
        <time>2019-08-22T11:47:01.000Z</time>
      </trkpt>
      <trkpt lat="45.09898" lon="4.58563">
        <ele>851.52</ele>
        <time>2019-08-22T11:47:11.000Z</time>
      </trkpt>
      <trkpt lat="45.09899" lon="4.58545">
        <ele>851.97</ele>
        <time>2019-08-22T11:47:21.000Z</time>
      </trkpt>
      <trkpt lat="45.09902" lon="4.58527">
        <ele>852.99</ele>
        <time>2019-08-22T11:47:31.000Z</time>
      </trkpt>
      <trkpt lat="45.09905" lon="4.58511">
        <ele>853.65</ele>
        <time>2019-08-22T11:47:41.000Z</time>
      </trkpt>
      <trkpt lat="45.09905" lon="4.58493">
        <ele>853.59</ele>
        <time>2019-08-22T11:47:51.000Z</time>
      </trkpt>
      <trkpt lat="45.0991" lon="4.58476">
        <ele>855.01</ele>
        <time>2019-08-22T11:48:01.000Z</time>
      </trkpt>
      <trkpt lat="45.09912" lon="4.5846">
        <ele>855.26</ele>
        <time>2019-08-22T11:48:11.000Z</time>
      </trkpt>
      <trkpt lat="45.09915" lon="4.58447">
        <ele>855.87</ele>
        <time>2019-08-22T11:48:21.000Z</time>
      </trkpt>
      <trkpt lat="45.09919" lon="4.58433">
        <ele>856.5</ele>
        <time>2019-08-22T11:48:31.000Z</time>
      </trkpt>
      <trkpt lat="45.09923" lon="4.5842">
        <ele>857.32</ele>
        <time>2019-08-22T11:48:41.000Z</time>
      </trkpt>
      <trkpt lat="45.09928" lon="4.58408">
        <ele>858.14</ele>
        <time>2019-08-22T11:48:51.000Z</time>
      </trkpt>
      <trkpt lat="45.09933" lon="4.58393">
        <ele>858.97</ele>
        <time>2019-08-22T11:49:01.000Z</time>
      </trkpt>
      <trkpt lat="45.09939" lon="4.58379">
        <ele>860.09</ele>
        <time>2019-08-22T11:49:11.000Z</time>
      </trkpt>
      <trkpt lat="45.09947" lon="4.58366">
        <ele>862.04</ele>
        <time>2019-08-22T11:49:21.000Z</time>
      </trkpt>
      <trkpt lat="45.09956" lon="4.5835">
        <ele>864.43</ele>
        <time>2019-08-22T11:49:31.000Z</time>
      </trkpt>
      <trkpt lat="45.09963" lon="4.58338">
        <ele>866.08</ele>
        <time>2019-08-22T11:49:41.000Z</time>
      </trkpt>
      <trkpt lat="45.09969" lon="4.58324">
        <ele>867.36</ele>
        <time>2019-08-22T11:49:51.000Z</time>
      </trkpt>
      <trkpt lat="45.09974" lon="4.58312">
        <ele>868.6</ele>
        <time>2019-08-22T11:50:01.000Z</time>
      </trkpt>
      <trkpt lat="45.09978" lon="4.58299">
        <ele>868.63</ele>
        <time>2019-08-22T11:50:11.000Z</time>
      </trkpt>
      <trkpt lat="45.09982" lon="4.58281">
        <ele>868.2</ele>
        <time>2019-08-22T11:50:21.000Z</time>
      </trkpt>
      <trkpt lat="45.09986" lon="4.58262">
        <ele>868.04</ele>
        <time>2019-08-22T11:50:31.000Z</time>
      </trkpt>
      <trkpt lat="45.09992" lon="4.58243">
        <ele>868.12</ele>
        <time>2019-08-22T11:50:41.000Z</time>
      </trkpt>
      <trkpt lat="45.09996" lon="4.58221">
        <ele>866.89</ele>
        <time>2019-08-22T11:50:51.000Z</time>
      </trkpt>
      <trkpt lat="45.1" lon="4.582">
        <ele>865.54</ele>
        <time>2019-08-22T11:51:01.000Z</time>
      </trkpt>
      <trkpt lat="45.10004" lon="4.58178">
        <ele>863.68</ele>
        <time>2019-08-22T11:51:11.000Z</time>
      </trkpt>
      <trkpt lat="45.10006" lon="4.5816">
        <ele>862.04</ele>
        <time>2019-08-22T11:51:21.000Z</time>
      </trkpt>
      <trkpt lat="45.10009" lon="4.58141">
        <ele>860.59</ele>
        <time>2019-08-22T11:51:31.000Z</time>
      </trkpt>
      <trkpt lat="45.1001" lon="4.58121">
        <ele>858.56</ele>
        <time>2019-08-22T11:51:41.000Z</time>
      </trkpt>
      <trkpt lat="45.10014" lon="4.58103">
        <ele>857.8</ele>
        <time>2019-08-22T11:51:51.000Z</time>
      </trkpt>
      <trkpt lat="45.10015" lon="4.58082">
        <ele>856.16</ele>
        <time>2019-08-22T11:52:01.000Z</time>
      </trkpt>
      <trkpt lat="45.10017" lon="4.58064">
        <ele>854.84</ele>
        <time>2019-08-22T11:52:11.000Z</time>
      </trkpt>
      <trkpt lat="45.10017" lon="4.58045">
        <ele>853.27</ele>
        <time>2019-08-22T11:52:21.000Z</time>
      </trkpt>
      <trkpt lat="45.10019" lon="4.58026">
        <ele>852.75</ele>
        <time>2019-08-22T11:52:31.000Z</time>
      </trkpt>
      <trkpt lat="45.10021" lon="4.58005">
        <ele>852.8</ele>
        <time>2019-08-22T11:52:41.000Z</time>
      </trkpt>
      <trkpt lat="45.10022" lon="4.57985">
        <ele>853.91</ele>
        <time>2019-08-22T11:52:51.000Z</time>
      </trkpt>
      <trkpt lat="45.10021" lon="4.57965">
        <ele>853.82</ele>
        <time>2019-08-22T11:53:01.000Z</time>
      </trkpt>
      <trkpt lat="45.10012" lon="4.5795">
        <ele>849.7</ele>
        <time>2019-08-22T11:53:11.000Z</time>
      </trkpt>
      <trkpt lat="45.10004" lon="4.57934">
        <ele>846.56</ele>
        <time>2019-08-22T11:53:21.000Z</time>
      </trkpt>
      <trkpt lat="45.09999" lon="4.57918">
        <ele>845.05</ele>
        <time>2019-08-22T11:53:31.000Z</time>
      </trkpt>
      <trkpt lat="45.09993" lon="4.579">
        <ele>844.26</ele>
        <time>2019-08-22T11:53:41.000Z</time>
      </trkpt>
      <trkpt lat="45.09989" lon="4.57881">
        <ele>844.84</ele>
        <time>2019-08-22T11:53:51.000Z</time>
      </trkpt>
      <trkpt lat="45.09985" lon="4.57866">
        <ele>845.01</ele>
        <time>2019-08-22T11:54:01.000Z</time>
      </trkpt>
      <trkpt lat="45.09983" lon="4.57846">
        <ele>846.5</ele>
        <time>2019-08-22T11:54:11.000Z</time>
      </trkpt>
      <trkpt lat="45.09977" lon="4.57829">
        <ele>845.38</ele>
        <time>2019-08-22T11:54:21.000Z</time>
      </trkpt>
      <trkpt lat="45.09973" lon="4.57812">
        <ele>845.09</ele>
        <time>2019-08-22T11:54:31.000Z</time>
      </trkpt>
      <trkpt lat="45.09969" lon="4.57795">
        <ele>844.52</ele>
        <time>2019-08-22T11:54:41.000Z</time>
      </trkpt>
      <trkpt lat="45.09968" lon="4.57776">
        <ele>845.29</ele>
        <time>2019-08-22T11:54:51.000Z</time>
      </trkpt>
      <trkpt lat="45.09967" lon="4.57757">
        <ele>845.49</ele>
        <time>2019-08-22T11:55:01.000Z</time>
      </trkpt>
      <trkpt lat="45.09967" lon="4.5774">
        <ele>844.66</ele>
        <time>2019-08-22T11:55:11.000Z</time>
      </trkpt>
      <trkpt lat="45.09964" lon="4.57722">
        <ele>842.66</ele>
        <time>2019-08-22T11:55:21.000Z</time>
      </trkpt>
      <trkpt lat="45.09967" lon="4.57706">
        <ele>842.61</ele>
        <time>2019-08-22T11:55:31.000Z</time>
      </trkpt>
      <trkpt lat="45.0997" lon="4.57693">
        <ele>842.21</ele>
        <time>2019-08-22T11:55:41.000Z</time>
      </trkpt>
      <trkpt lat="45.09973" lon="4.57678">
        <ele>841.32</ele>
        <time>2019-08-22T11:55:52.000Z</time>
      </trkpt>
      <trkpt lat="45.09974" lon="4.57664">
        <ele>839.74</ele>
        <time>2019-08-22T11:56:02.000Z</time>
      </trkpt>
      <trkpt lat="45.09976" lon="4.57646">
        <ele>837.07</ele>
        <time>2019-08-22T11:56:15.000Z</time>
      </trkpt>
      <trkpt lat="45.09972" lon="4.5765">
        <ele>835.66</ele>
        <time>2019-08-22T11:56:25.000Z</time>
      </trkpt>
      <trkpt lat="45.09967" lon="4.57661">
        <ele>835.64</ele>
        <time>2019-08-22T11:56:35.000Z</time>
      </trkpt>
      <trkpt lat="45.09963" lon="4.57666">
        <ele>835</ele>
        <time>2019-08-22T11:56:45.000Z</time>
      </trkpt>
      <trkpt lat="45.09956" lon="4.57675">
        <ele>833.13</ele>
        <time>2019-08-22T11:56:55.000Z</time>
      </trkpt>
      <trkpt lat="45.09951" lon="4.57686">
        <ele>832.47</ele>
        <time>2019-08-22T11:57:05.000Z</time>
      </trkpt>
      <trkpt lat="45.09943" lon="4.57697">
        <ele>830.42</ele>
        <time>2019-08-22T11:57:15.000Z</time>
      </trkpt>
      <trkpt lat="45.09937" lon="4.5771">
        <ele>828.81</ele>
        <time>2019-08-22T11:57:25.000Z</time>
      </trkpt>
      <trkpt lat="45.0993" lon="4.57718">
        <ele>826.5</ele>
        <time>2019-08-22T11:57:35.000Z</time>
      </trkpt>
      <trkpt lat="45.09927" lon="4.57729">
        <ele>825.7</ele>
        <time>2019-08-22T11:57:45.000Z</time>
      </trkpt>
      <trkpt lat="45.09924" lon="4.57741">
        <ele>824.87</ele>
        <time>2019-08-22T11:57:55.000Z</time>
      </trkpt>
      <trkpt lat="45.09921" lon="4.57752">
        <ele>823.88</ele>
        <time>2019-08-22T11:58:05.000Z</time>
      </trkpt>
      <trkpt lat="45.09922" lon="4.57764">
        <ele>824.17</ele>
        <time>2019-08-22T11:58:15.000Z</time>
      </trkpt>
      <trkpt lat="45.09923" lon="4.57778">
        <ele>823.7</ele>
        <time>2019-08-22T11:58:27.000Z</time>
      </trkpt>
      <trkpt lat="45.09925" lon="4.57784">
        <ele>824.19</ele>
        <time>2019-08-22T11:58:37.000Z</time>
      </trkpt>
      <trkpt lat="45.09916" lon="4.57784">
        <ele>820.42</ele>
        <time>2019-08-22T11:58:47.000Z</time>
      </trkpt>
      <trkpt lat="45.09912" lon="4.5778">
        <ele>818.83</ele>
        <time>2019-08-22T11:58:57.000Z</time>
      </trkpt>
      <trkpt lat="45.09903" lon="4.57778">
        <ele>815.13</ele>
        <time>2019-08-22T11:59:07.000Z</time>
      </trkpt>
      <trkpt lat="45.09895" lon="4.57773">
        <ele>811.82</ele>
        <time>2019-08-22T11:59:17.000Z</time>
      </trkpt>
      <trkpt lat="45.09887" lon="4.57767">
        <ele>809.04</ele>
        <time>2019-08-22T11:59:27.000Z</time>
      </trkpt>
      <trkpt lat="45.09879" lon="4.5776">
        <ele>805.87</ele>
        <time>2019-08-22T11:59:37.000Z</time>
      </trkpt>
      <trkpt lat="45.09873" lon="4.57749">
        <ele>803.45</ele>
        <time>2019-08-22T11:59:47.000Z</time>
      </trkpt>
      <trkpt lat="45.09866" lon="4.57736">
        <ele>800.24</ele>
        <time>2019-08-22T11:59:57.000Z</time>
      </trkpt>
      <trkpt lat="45.0986" lon="4.57723">
        <ele>796.92</ele>
        <time>2019-08-22T12:00:07.000Z</time>
      </trkpt>
      <trkpt lat="45.09859" lon="4.57711">
        <ele>795.41</ele>
        <time>2019-08-22T12:00:17.000Z</time>
      </trkpt>
      <trkpt lat="45.09859" lon="4.57696">
        <ele>793.99</ele>
        <time>2019-08-22T12:00:27.000Z</time>
      </trkpt>
      <trkpt lat="45.09863" lon="4.57685">
        <ele>793.92</ele>
        <time>2019-08-22T12:00:37.000Z</time>
      </trkpt>
      <trkpt lat="45.09864" lon="4.57668">
        <ele>791.6</ele>
        <time>2019-08-22T12:00:47.000Z</time>
      </trkpt>
      <trkpt lat="45.09866" lon="4.57653">
        <ele>790</ele>
        <time>2019-08-22T12:00:57.000Z</time>
      </trkpt>
      <trkpt lat="45.09869" lon="4.57639">
        <ele>787.91</ele>
        <time>2019-08-22T12:01:07.000Z</time>
      </trkpt>
      <trkpt lat="45.09867" lon="4.57627">
        <ele>784.01</ele>
        <time>2019-08-22T12:01:17.000Z</time>
      </trkpt>
      <trkpt lat="45.09858" lon="4.57626">
        <ele>779.91</ele>
        <time>2019-08-22T12:01:27.000Z</time>
      </trkpt>
      <trkpt lat="45.09851" lon="4.57629">
        <ele>777.87</ele>
        <time>2019-08-22T12:01:37.000Z</time>
      </trkpt>
      <trkpt lat="45.09842" lon="4.57638">
        <ele>775.79</ele>
        <time>2019-08-22T12:01:47.000Z</time>
      </trkpt>
      <trkpt lat="45.09832" lon="4.57645">
        <ele>773.17</ele>
        <time>2019-08-22T12:01:57.000Z</time>
      </trkpt>
      <trkpt lat="45.09824" lon="4.57653">
        <ele>771.23</ele>
        <time>2019-08-22T12:02:07.000Z</time>
      </trkpt>
      <trkpt lat="45.09816" lon="4.5766">
        <ele>768.68</ele>
        <time>2019-08-22T12:02:17.000Z</time>
      </trkpt>
      <trkpt lat="45.09811" lon="4.57666">
        <ele>767.37</ele>
        <time>2019-08-22T12:02:27.000Z</time>
      </trkpt>
      <trkpt lat="45.09803" lon="4.57677">
        <ele>765.35</ele>
        <time>2019-08-22T12:02:37.000Z</time>
      </trkpt>
      <trkpt lat="45.09806" lon="4.57665">
        <ele>764.67</ele>
        <time>2019-08-22T12:02:47.000Z</time>
      </trkpt>
      <trkpt lat="45.0981" lon="4.57649">
        <ele>763.65</ele>
        <time>2019-08-22T12:02:57.000Z</time>
      </trkpt>
      <trkpt lat="45.09817" lon="4.57634">
        <ele>763.35</ele>
        <time>2019-08-22T12:03:07.000Z</time>
      </trkpt>
      <trkpt lat="45.09822" lon="4.57619">
        <ele>762.51</ele>
        <time>2019-08-22T12:03:17.000Z</time>
      </trkpt>
      <trkpt lat="45.09827" lon="4.57604">
        <ele>761.19</ele>
        <time>2019-08-22T12:03:27.000Z</time>
      </trkpt>
      <trkpt lat="45.09835" lon="4.57587">
        <ele>760.46</ele>
        <time>2019-08-22T12:03:37.000Z</time>
      </trkpt>
      <trkpt lat="45.09842" lon="4.57572">
        <ele>759.96</ele>
        <time>2019-08-22T12:03:47.000Z</time>
      </trkpt>
      <trkpt lat="45.09848" lon="4.57556">
        <ele>759.21</ele>
        <time>2019-08-22T12:03:57.000Z</time>
      </trkpt>
      <trkpt lat="45.09855" lon="4.57539">
        <ele>758.03</ele>
        <time>2019-08-22T12:04:07.000Z</time>
      </trkpt>
      <trkpt lat="45.09861" lon="4.57522">
        <ele>757.1</ele>
        <time>2019-08-22T12:04:17.000Z</time>
      </trkpt>
      <trkpt lat="45.09867" lon="4.57508">
        <ele>756.79</ele>
        <time>2019-08-22T12:04:27.000Z</time>
      </trkpt>
      <trkpt lat="45.09874" lon="4.57484">
        <ele>754.91</ele>
        <time>2019-08-22T12:04:37.000Z</time>
      </trkpt>
      <trkpt lat="45.09879" lon="4.57469">
        <ele>754.34</ele>
        <time>2019-08-22T12:04:47.000Z</time>
      </trkpt>
      <trkpt lat="45.0988" lon="4.57454">
        <ele>752.65</ele>
        <time>2019-08-22T12:04:57.000Z</time>
      </trkpt>
      <trkpt lat="45.09881" lon="4.57438">
        <ele>750.39</ele>
        <time>2019-08-22T12:05:07.000Z</time>
      </trkpt>
      <trkpt lat="45.0988" lon="4.57418">
        <ele>746.84</ele>
        <time>2019-08-22T12:05:17.000Z</time>
      </trkpt>
      <trkpt lat="45.09882" lon="4.57399">
        <ele>745.34</ele>
        <time>2019-08-22T12:05:27.000Z</time>
      </trkpt>
      <trkpt lat="45.09883" lon="4.57377">
        <ele>743.02</ele>
        <time>2019-08-22T12:05:37.000Z</time>
      </trkpt>
      <trkpt lat="45.09882" lon="4.5736">
        <ele>740.74</ele>
        <time>2019-08-22T12:05:47.000Z</time>
      </trkpt>
      <trkpt lat="45.09881" lon="4.5734">
        <ele>737.92</ele>
        <time>2019-08-22T12:05:57.000Z</time>
      </trkpt>
      <trkpt lat="45.09881" lon="4.57323">
        <ele>736.05</ele>
        <time>2019-08-22T12:06:07.000Z</time>
      </trkpt>
      <trkpt lat="45.09879" lon="4.57306">
        <ele>732.72</ele>
        <time>2019-08-22T12:06:17.000Z</time>
      </trkpt>
      <trkpt lat="45.09877" lon="4.57291">
        <ele>730.15</ele>
        <time>2019-08-22T12:06:27.000Z</time>
      </trkpt>
      <trkpt lat="45.09874" lon="4.57274">
        <ele>726.25</ele>
        <time>2019-08-22T12:06:37.000Z</time>
      </trkpt>
      <trkpt lat="45.09872" lon="4.57255">
        <ele>723.77</ele>
        <time>2019-08-22T12:06:47.000Z</time>
      </trkpt>
      <trkpt lat="45.09872" lon="4.57239">
        <ele>722.45</ele>
        <time>2019-08-22T12:06:57.000Z</time>
      </trkpt>
      <trkpt lat="45.09876" lon="4.57218">
        <ele>722.89</ele>
        <time>2019-08-22T12:07:07.000Z</time>
      </trkpt>
      <trkpt lat="45.09878" lon="4.57201">
        <ele>723.39</ele>
        <time>2019-08-22T12:07:17.000Z</time>
      </trkpt>
      <trkpt lat="45.09881" lon="4.5718">
        <ele>723.76</ele>
        <time>2019-08-22T12:07:27.000Z</time>
      </trkpt>
      <trkpt lat="45.09883" lon="4.57162">
        <ele>724.01</ele>
        <time>2019-08-22T12:07:37.000Z</time>
      </trkpt>
      <trkpt lat="45.09885" lon="4.57153">
        <ele>724.63</ele>
        <time>2019-08-22T12:07:47.000Z</time>
      </trkpt>
      <trkpt lat="45.09889" lon="4.57138">
        <ele>725.95</ele>
        <time>2019-08-22T12:07:57.000Z</time>
      </trkpt>
      <trkpt lat="45.09895" lon="4.5713">
        <ele>727.83</ele>
        <time>2019-08-22T12:08:07.000Z</time>
      </trkpt>
      <trkpt lat="45.09901" lon="4.57118">
        <ele>729.02</ele>
        <time>2019-08-22T12:08:17.000Z</time>
      </trkpt>
      <trkpt lat="45.09908" lon="4.57106">
        <ele>730.12</ele>
        <time>2019-08-22T12:08:27.000Z</time>
      </trkpt>
      <trkpt lat="45.09916" lon="4.57091">
        <ele>730.56</ele>
        <time>2019-08-22T12:08:37.000Z</time>
      </trkpt>
      <trkpt lat="45.09922" lon="4.57078">
        <ele>730.46</ele>
        <time>2019-08-22T12:08:47.000Z</time>
      </trkpt>
      <trkpt lat="45.0993" lon="4.57064">
        <ele>730.38</ele>
        <time>2019-08-22T12:08:57.000Z</time>
      </trkpt>
      <trkpt lat="45.09932" lon="4.57052">
        <ele>729.53</ele>
        <time>2019-08-22T12:09:07.000Z</time>
      </trkpt>
      <trkpt lat="45.09931" lon="4.57043">
        <ele>728.38</ele>
        <time>2019-08-22T12:09:17.000Z</time>
      </trkpt>
      <trkpt lat="45.09925" lon="4.57041">
        <ele>727.37</ele>
        <time>2019-08-22T12:09:27.000Z</time>
      </trkpt>
      <trkpt lat="45.09919" lon="4.57038">
        <ele>726.41</ele>
        <time>2019-08-22T12:09:37.000Z</time>
      </trkpt>
      <trkpt lat="45.09913" lon="4.57034">
        <ele>725.64</ele>
        <time>2019-08-22T12:09:47.000Z</time>
      </trkpt>
      <trkpt lat="45.09901" lon="4.57036">
        <ele>725.11</ele>
        <time>2019-08-22T12:09:57.000Z</time>
      </trkpt>
      <trkpt lat="45.09884" lon="4.57036">
        <ele>724.94</ele>
        <time>2019-08-22T12:10:07.000Z</time>
      </trkpt>
      <trkpt lat="45.09871" lon="4.57039">
        <ele>725.2</ele>
        <time>2019-08-22T12:10:17.000Z</time>
      </trkpt>
      <trkpt lat="45.0986" lon="4.57047">
        <ele>725.04</ele>
        <time>2019-08-22T12:10:27.000Z</time>
      </trkpt>
      <trkpt lat="45.09847" lon="4.57058">
        <ele>724.62</ele>
        <time>2019-08-22T12:10:37.000Z</time>
      </trkpt>
      <trkpt lat="45.0984" lon="4.57065">
        <ele>724.2</ele>
        <time>2019-08-22T12:10:47.000Z</time>
      </trkpt>
      <trkpt lat="45.09832" lon="4.57075">
        <ele>723.84</ele>
        <time>2019-08-22T12:10:57.000Z</time>
      </trkpt>
      <trkpt lat="45.09824" lon="4.57089">
        <ele>722.77</ele>
        <time>2019-08-22T12:11:07.000Z</time>
      </trkpt>
      <trkpt lat="45.09814" lon="4.57101">
        <ele>723.28</ele>
        <time>2019-08-22T12:11:17.000Z</time>
      </trkpt>
      <trkpt lat="45.09808" lon="4.57116">
        <ele>722.67</ele>
        <time>2019-08-22T12:11:27.000Z</time>
      </trkpt>
      <trkpt lat="45.09806" lon="4.57128">
        <ele>721.13</ele>
        <time>2019-08-22T12:11:37.000Z</time>
      </trkpt>
      <trkpt lat="45.098" lon="4.57142">
        <ele>720.92</ele>
        <time>2019-08-22T12:11:47.000Z</time>
      </trkpt>
      <trkpt lat="45.09791" lon="4.5715">
        <ele>722.82</ele>
        <time>2019-08-22T12:11:57.000Z</time>
      </trkpt>
      <trkpt lat="45.09781" lon="4.5716">
        <ele>725.98</ele>
        <time>2019-08-22T12:12:07.000Z</time>
      </trkpt>
      <trkpt lat="45.09772" lon="4.57169">
        <ele>728.11</ele>
        <time>2019-08-22T12:12:17.000Z</time>
      </trkpt>
      <trkpt lat="45.09761" lon="4.5718">
        <ele>729.76</ele>
        <time>2019-08-22T12:12:27.000Z</time>
      </trkpt>
      <trkpt lat="45.0975" lon="4.57187">
        <ele>731.03</ele>
        <time>2019-08-22T12:12:37.000Z</time>
      </trkpt>
      <trkpt lat="45.0974" lon="4.57194">
        <ele>731.92</ele>
        <time>2019-08-22T12:12:47.000Z</time>
      </trkpt>
      <trkpt lat="45.0973" lon="4.572">
        <ele>733.12</ele>
        <time>2019-08-22T12:12:57.000Z</time>
      </trkpt>
      <trkpt lat="45.09717" lon="4.57204">
        <ele>735.95</ele>
        <time>2019-08-22T12:13:07.000Z</time>
      </trkpt>
      <trkpt lat="45.09706" lon="4.57207">
        <ele>738.49</ele>
        <time>2019-08-22T12:13:17.000Z</time>
      </trkpt>
      <trkpt lat="45.09692" lon="4.57212">
        <ele>741.73</ele>
        <time>2019-08-22T12:13:27.000Z</time>
      </trkpt>
      <trkpt lat="45.09678" lon="4.57216">
        <ele>744.91</ele>
        <time>2019-08-22T12:13:37.000Z</time>
      </trkpt>
      <trkpt lat="45.09667" lon="4.57221">
        <ele>746.29</ele>
        <time>2019-08-22T12:13:47.000Z</time>
      </trkpt>
      <trkpt lat="45.09654" lon="4.57225">
        <ele>747.56</ele>
        <time>2019-08-22T12:13:57.000Z</time>
      </trkpt>
      <trkpt lat="45.09642" lon="4.57228">
        <ele>749.29</ele>
        <time>2019-08-22T12:14:07.000Z</time>
      </trkpt>
      <trkpt lat="45.09629" lon="4.57229">
        <ele>751.07</ele>
        <time>2019-08-22T12:14:17.000Z</time>
      </trkpt>
      <trkpt lat="45.09619" lon="4.57228">
        <ele>752.88</ele>
        <time>2019-08-22T12:14:27.000Z</time>
      </trkpt>
      <trkpt lat="45.09606" lon="4.57232">
        <ele>753.41</ele>
        <time>2019-08-22T12:14:37.000Z</time>
      </trkpt>
      <trkpt lat="45.09593" lon="4.57238">
        <ele>753.05</ele>
        <time>2019-08-22T12:14:47.000Z</time>
      </trkpt>
      <trkpt lat="45.09581" lon="4.57242">
        <ele>752.89</ele>
        <time>2019-08-22T12:14:57.000Z</time>
      </trkpt>
      <trkpt lat="45.09567" lon="4.57244">
        <ele>752.73</ele>
        <time>2019-08-22T12:15:07.000Z</time>
      </trkpt>
      <trkpt lat="45.09556" lon="4.57249">
        <ele>751.56</ele>
        <time>2019-08-22T12:15:17.000Z</time>
      </trkpt>
      <trkpt lat="45.09547" lon="4.57248">
        <ele>751.66</ele>
        <time>2019-08-22T12:15:27.000Z</time>
      </trkpt>
      <trkpt lat="45.09533" lon="4.57246">
        <ele>752.3</ele>
        <time>2019-08-22T12:15:37.000Z</time>
      </trkpt>
      <trkpt lat="45.09523" lon="4.57236">
        <ele>755.35</ele>
        <time>2019-08-22T12:15:47.000Z</time>
      </trkpt>
      <trkpt lat="45.09508" lon="4.57239">
        <ele>754.43</ele>
        <time>2019-08-22T12:15:57.000Z</time>
      </trkpt>
      <trkpt lat="45.09504" lon="4.57232">
        <ele>756.77</ele>
        <time>2019-08-22T12:16:07.000Z</time>
      </trkpt>
      <trkpt lat="45.09496" lon="4.57234">
        <ele>756.4</ele>
        <time>2019-08-22T12:16:17.000Z</time>
      </trkpt>
      <trkpt lat="45.09485" lon="4.57239">
        <ele>755.06</ele>
        <time>2019-08-22T12:16:27.000Z</time>
      </trkpt>
      <trkpt lat="45.09472" lon="4.57239">
        <ele>755.23</ele>
        <time>2019-08-22T12:16:37.000Z</time>
      </trkpt>
      <trkpt lat="45.09458" lon="4.57239">
        <ele>755.66</ele>
        <time>2019-08-22T12:16:47.000Z</time>
      </trkpt>
      <trkpt lat="45.0945" lon="4.57246">
        <ele>754.04</ele>
        <time>2019-08-22T12:16:57.000Z</time>
      </trkpt>
      <trkpt lat="45.0944" lon="4.57258">
        <ele>751.05</ele>
        <time>2019-08-22T12:17:07.000Z</time>
      </trkpt>
      <trkpt lat="45.09432" lon="4.57269">
        <ele>748.82</ele>
        <time>2019-08-22T12:17:17.000Z</time>
      </trkpt>
      <trkpt lat="45.09425" lon="4.57283">
        <ele>745.95</ele>
        <time>2019-08-22T12:17:27.000Z</time>
      </trkpt>
      <trkpt lat="45.09414" lon="4.57297">
        <ele>744.12</ele>
        <time>2019-08-22T12:17:37.000Z</time>
      </trkpt>
      <trkpt lat="45.09401" lon="4.57308">
        <ele>743.67</ele>
        <time>2019-08-22T12:17:47.000Z</time>
      </trkpt>
      <trkpt lat="45.0939" lon="4.57318">
        <ele>743.53</ele>
        <time>2019-08-22T12:17:57.000Z</time>
      </trkpt>
      <trkpt lat="45.09379" lon="4.57327">
        <ele>743.8</ele>
        <time>2019-08-22T12:18:07.000Z</time>
      </trkpt>
      <trkpt lat="45.09367" lon="4.57337">
        <ele>744.07</ele>
        <time>2019-08-22T12:18:17.000Z</time>
      </trkpt>
      <trkpt lat="45.09355" lon="4.57347">
        <ele>744.9</ele>
        <time>2019-08-22T12:18:27.000Z</time>
      </trkpt>
      <trkpt lat="45.09344" lon="4.57358">
        <ele>745.13</ele>
        <time>2019-08-22T12:18:37.000Z</time>
      </trkpt>
      <trkpt lat="45.09336" lon="4.57374">
        <ele>743.85</ele>
        <time>2019-08-22T12:18:52.000Z</time>
      </trkpt>
      <trkpt lat="45.09331" lon="4.5739">
        <ele>742.39</ele>
        <time>2019-08-22T12:19:02.000Z</time>
      </trkpt>
      <trkpt lat="45.0933" lon="4.57398">
        <ele>741.11</ele>
        <time>2019-08-22T12:19:12.000Z</time>
      </trkpt>
      <trkpt lat="45.09327" lon="4.57404">
        <ele>740.86</ele>
        <time>2019-08-22T12:19:22.000Z</time>
      </trkpt>
      <trkpt lat="45.09321" lon="4.5742">
        <ele>739.42</ele>
        <time>2019-08-22T12:19:32.000Z</time>
      </trkpt>
      <trkpt lat="45.09313" lon="4.57433">
        <ele>739.36</ele>
        <time>2019-08-22T12:19:42.000Z</time>
      </trkpt>
      <trkpt lat="45.09304" lon="4.57448">
        <ele>739.15</ele>
        <time>2019-08-22T12:19:52.000Z</time>
      </trkpt>
      <trkpt lat="45.09294" lon="4.57461">
        <ele>739.33</ele>
        <time>2019-08-22T12:20:02.000Z</time>
      </trkpt>
      <trkpt lat="45.09282" lon="4.5747">
        <ele>740.35</ele>
        <time>2019-08-22T12:20:12.000Z</time>
      </trkpt>
      <trkpt lat="45.09272" lon="4.57478">
        <ele>741.13</ele>
        <time>2019-08-22T12:20:22.000Z</time>
      </trkpt>
      <trkpt lat="45.09262" lon="4.57488">
        <ele>741.21</ele>
        <time>2019-08-22T12:20:32.000Z</time>
      </trkpt>
      <trkpt lat="45.09248" lon="4.57497">
        <ele>742.03</ele>
        <time>2019-08-22T12:20:42.000Z</time>
      </trkpt>
      <trkpt lat="45.09237" lon="4.57509">
        <ele>741.85</ele>
        <time>2019-08-22T12:20:52.000Z</time>
      </trkpt>
      <trkpt lat="45.09227" lon="4.57514">
        <ele>743.24</ele>
        <time>2019-08-22T12:21:02.000Z</time>
      </trkpt>
      <trkpt lat="45.09216" lon="4.57522">
        <ele>743.73</ele>
        <time>2019-08-22T12:21:12.000Z</time>
      </trkpt>
      <trkpt lat="45.09206" lon="4.57536">
        <ele>743.16</ele>
        <time>2019-08-22T12:21:22.000Z</time>
      </trkpt>
      <trkpt lat="45.09194" lon="4.57545">
        <ele>743.5</ele>
        <time>2019-08-22T12:21:32.000Z</time>
      </trkpt>
      <trkpt lat="45.09185" lon="4.57561">
        <ele>741.87</ele>
        <time>2019-08-22T12:21:42.000Z</time>
      </trkpt>
      <trkpt lat="45.09177" lon="4.57576">
        <ele>740.24</ele>
        <time>2019-08-22T12:21:52.000Z</time>
      </trkpt>
      <trkpt lat="45.09168" lon="4.57592">
        <ele>738.28</ele>
        <time>2019-08-22T12:22:02.000Z</time>
      </trkpt>
      <trkpt lat="45.0916" lon="4.57606">
        <ele>736.77</ele>
        <time>2019-08-22T12:22:12.000Z</time>
      </trkpt>
      <trkpt lat="45.09156" lon="4.57614">
        <ele>735.73</ele>
        <time>2019-08-22T12:22:22.000Z</time>
      </trkpt>
      <trkpt lat="45.0915" lon="4.57625">
        <ele>734.39</ele>
        <time>2019-08-22T12:22:32.000Z</time>
      </trkpt>
      <trkpt lat="45.09139" lon="4.57637">
        <ele>732.98</ele>
        <time>2019-08-22T12:22:42.000Z</time>
      </trkpt>
      <trkpt lat="45.09127" lon="4.57638">
        <ele>733.14</ele>
        <time>2019-08-22T12:22:52.000Z</time>
      </trkpt>
      <trkpt lat="45.09113" lon="4.57639">
        <ele>732.91</ele>
        <time>2019-08-22T12:23:02.000Z</time>
      </trkpt>
      <trkpt lat="45.091" lon="4.57637">
        <ele>733.09</ele>
        <time>2019-08-22T12:23:12.000Z</time>
      </trkpt>
      <trkpt lat="45.09088" lon="4.57634">
        <ele>733.38</ele>
        <time>2019-08-22T12:23:22.000Z</time>
      </trkpt>
      <trkpt lat="45.09075" lon="4.57632">
        <ele>733.33</ele>
        <time>2019-08-22T12:23:32.000Z</time>
      </trkpt>
      <trkpt lat="45.09062" lon="4.57626">
        <ele>733.96</ele>
        <time>2019-08-22T12:23:42.000Z</time>
      </trkpt>
      <trkpt lat="45.0905" lon="4.57617">
        <ele>734.73</ele>
        <time>2019-08-22T12:23:52.000Z</time>
      </trkpt>
      <trkpt lat="45.09043" lon="4.57601">
        <ele>736.74</ele>
        <time>2019-08-22T12:24:02.000Z</time>
      </trkpt>
      <trkpt lat="45.09036" lon="4.57586">
        <ele>738.56</ele>
        <time>2019-08-22T12:24:12.000Z</time>
      </trkpt>
      <trkpt lat="45.09026" lon="4.57573">
        <ele>739.46</ele>
        <time>2019-08-22T12:24:22.000Z</time>
      </trkpt>
      <trkpt lat="45.09017" lon="4.5756">
        <ele>739.93</ele>
        <time>2019-08-22T12:24:32.000Z</time>
      </trkpt>
      <trkpt lat="45.09008" lon="4.57547">
        <ele>740.11</ele>
        <time>2019-08-22T12:24:42.000Z</time>
      </trkpt>
      <trkpt lat="45.08998" lon="4.57532">
        <ele>740.22</ele>
        <time>2019-08-22T12:24:52.000Z</time>
      </trkpt>
      <trkpt lat="45.0899" lon="4.57514">
        <ele>740.94</ele>
        <time>2019-08-22T12:25:02.000Z</time>
      </trkpt>
      <trkpt lat="45.08984" lon="4.57496">
        <ele>742</ele>
        <time>2019-08-22T12:25:12.000Z</time>
      </trkpt>
      <trkpt lat="45.0898" lon="4.57481">
        <ele>742.99</ele>
        <time>2019-08-22T12:25:22.000Z</time>
      </trkpt>
      <trkpt lat="45.08975" lon="4.57465">
        <ele>743.96</ele>
        <time>2019-08-22T12:25:32.000Z</time>
      </trkpt>
      <trkpt lat="45.08969" lon="4.57446">
        <ele>745.09</ele>
        <time>2019-08-22T12:25:42.000Z</time>
      </trkpt>
      <trkpt lat="45.08962" lon="4.57429">
        <ele>745.64</ele>
        <time>2019-08-22T12:25:52.000Z</time>
      </trkpt>
      <trkpt lat="45.08954" lon="4.57414">
        <ele>745.68</ele>
        <time>2019-08-22T12:26:02.000Z</time>
      </trkpt>
      <trkpt lat="45.08944" lon="4.57401">
        <ele>744.92</ele>
        <time>2019-08-22T12:26:12.000Z</time>
      </trkpt>
      <trkpt lat="45.08937" lon="4.57384">
        <ele>745.91</ele>
        <time>2019-08-22T12:26:22.000Z</time>
      </trkpt>
      <trkpt lat="45.0893" lon="4.57367">
        <ele>747.14</ele>
        <time>2019-08-22T12:26:32.000Z</time>
      </trkpt>
      <trkpt lat="45.08922" lon="4.57354">
        <ele>747.05</ele>
        <time>2019-08-22T12:26:42.000Z</time>
      </trkpt>
      <trkpt lat="45.08914" lon="4.5734">
        <ele>747.58</ele>
        <time>2019-08-22T12:26:52.000Z</time>
      </trkpt>
      <trkpt lat="45.08906" lon="4.57327">
        <ele>748.13</ele>
        <time>2019-08-22T12:27:02.000Z</time>
      </trkpt>
      <trkpt lat="45.08895" lon="4.57315">
        <ele>748.13</ele>
        <time>2019-08-22T12:27:12.000Z</time>
      </trkpt>
      <trkpt lat="45.08886" lon="4.573">
        <ele>749.04</ele>
        <time>2019-08-22T12:27:22.000Z</time>
      </trkpt>
      <trkpt lat="45.08876" lon="4.57294">
        <ele>748.01</ele>
        <time>2019-08-22T12:27:32.000Z</time>
      </trkpt>
      <trkpt lat="45.08868" lon="4.57286">
        <ele>747.77</ele>
        <time>2019-08-22T12:27:42.000Z</time>
      </trkpt>
      <trkpt lat="45.08858" lon="4.57277">
        <ele>747.65</ele>
        <time>2019-08-22T12:27:52.000Z</time>
      </trkpt>
      <trkpt lat="45.08845" lon="4.57269">
        <ele>746.83</ele>
        <time>2019-08-22T12:28:02.000Z</time>
      </trkpt>
      <trkpt lat="45.08833" lon="4.57264">
        <ele>745.59</ele>
        <time>2019-08-22T12:28:12.000Z</time>
      </trkpt>
      <trkpt lat="45.08821" lon="4.5726">
        <ele>744.8</ele>
        <time>2019-08-22T12:28:22.000Z</time>
      </trkpt>
      <trkpt lat="45.0881" lon="4.57256">
        <ele>744.6</ele>
        <time>2019-08-22T12:28:32.000Z</time>
      </trkpt>
      <trkpt lat="45.088" lon="4.57247">
        <ele>745.65</ele>
        <time>2019-08-22T12:28:42.000Z</time>
      </trkpt>
      <trkpt lat="45.08792" lon="4.57248">
        <ele>744.89</ele>
        <time>2019-08-22T12:28:52.000Z</time>
      </trkpt>
      <trkpt lat="45.08782" lon="4.57246">
        <ele>744.61</ele>
        <time>2019-08-22T12:29:02.000Z</time>
      </trkpt>
      <trkpt lat="45.08771" lon="4.57241">
        <ele>744.65</ele>
        <time>2019-08-22T12:29:12.000Z</time>
      </trkpt>
      <trkpt lat="45.08758" lon="4.57243">
        <ele>743.14</ele>
        <time>2019-08-22T12:29:22.000Z</time>
      </trkpt>
      <trkpt lat="45.08747" lon="4.57248">
        <ele>740.96</ele>
        <time>2019-08-22T12:29:32.000Z</time>
      </trkpt>
      <trkpt lat="45.08736" lon="4.57253">
        <ele>738.77</ele>
        <time>2019-08-22T12:29:42.000Z</time>
      </trkpt>
      <trkpt lat="45.08725" lon="4.57266">
        <ele>735.81</ele>
        <time>2019-08-22T12:29:52.000Z</time>
      </trkpt>
      <trkpt lat="45.08715" lon="4.57275">
        <ele>733.59</ele>
        <time>2019-08-22T12:30:02.000Z</time>
      </trkpt>
      <trkpt lat="45.08706" lon="4.57284">
        <ele>731.74</ele>
        <time>2019-08-22T12:30:12.000Z</time>
      </trkpt>
      <trkpt lat="45.08696" lon="4.57297">
        <ele>729.75</ele>
        <time>2019-08-22T12:30:22.000Z</time>
      </trkpt>
      <trkpt lat="45.08686" lon="4.57309">
        <ele>728.34</ele>
        <time>2019-08-22T12:30:32.000Z</time>
      </trkpt>
      <trkpt lat="45.08673" lon="4.57318">
        <ele>727.25</ele>
        <time>2019-08-22T12:30:42.000Z</time>
      </trkpt>
      <trkpt lat="45.08658" lon="4.57321">
        <ele>726.23</ele>
        <time>2019-08-22T12:30:52.000Z</time>
      </trkpt>
      <trkpt lat="45.08644" lon="4.57316">
        <ele>724.78</ele>
        <time>2019-08-22T12:31:02.000Z</time>
      </trkpt>
      <trkpt lat="45.08632" lon="4.57312">
        <ele>722.68</ele>
        <time>2019-08-22T12:31:12.000Z</time>
      </trkpt>
      <trkpt lat="45.0862" lon="4.5731">
        <ele>720.33</ele>
        <time>2019-08-22T12:31:22.000Z</time>
      </trkpt>
      <trkpt lat="45.0861" lon="4.57305">
        <ele>717.44</ele>
        <time>2019-08-22T12:31:32.000Z</time>
      </trkpt>
      <trkpt lat="45.08606" lon="4.57297">
        <ele>714.68</ele>
        <time>2019-08-22T12:31:42.000Z</time>
      </trkpt>
      <trkpt lat="45.08604" lon="4.57281">
        <ele>710.83</ele>
        <time>2019-08-22T12:31:52.000Z</time>
      </trkpt>
      <trkpt lat="45.08602" lon="4.57265">
        <ele>706.72</ele>
        <time>2019-08-22T12:32:02.000Z</time>
      </trkpt>
      <trkpt lat="45.08604" lon="4.57248">
        <ele>704.84</ele>
        <time>2019-08-22T12:32:12.000Z</time>
      </trkpt>
      <trkpt lat="45.08605" lon="4.57232">
        <ele>703.37</ele>
        <time>2019-08-22T12:32:22.000Z</time>
      </trkpt>
      <trkpt lat="45.08603" lon="4.57214">
        <ele>701.31</ele>
        <time>2019-08-22T12:32:32.000Z</time>
      </trkpt>
      <trkpt lat="45.086" lon="4.57195">
        <ele>699.06</ele>
        <time>2019-08-22T12:32:42.000Z</time>
      </trkpt>
      <trkpt lat="45.08599" lon="4.57179">
        <ele>697.36</ele>
        <time>2019-08-22T12:32:52.000Z</time>
      </trkpt>
      <trkpt lat="45.08601" lon="4.57159">
        <ele>695.45</ele>
        <time>2019-08-22T12:33:02.000Z</time>
      </trkpt>
      <trkpt lat="45.08603" lon="4.57138">
        <ele>693.27</ele>
        <time>2019-08-22T12:33:12.000Z</time>
      </trkpt>
      <trkpt lat="45.08605" lon="4.57122">
        <ele>691.7</ele>
        <time>2019-08-22T12:33:22.000Z</time>
      </trkpt>
      <trkpt lat="45.08609" lon="4.57107">
        <ele>690.91</ele>
        <time>2019-08-22T12:33:32.000Z</time>
      </trkpt>
      <trkpt lat="45.0861" lon="4.5709">
        <ele>688.76</ele>
        <time>2019-08-22T12:33:42.000Z</time>
      </trkpt>
      <trkpt lat="45.0861" lon="4.57073">
        <ele>686.22</ele>
        <time>2019-08-22T12:33:52.000Z</time>
      </trkpt>
      <trkpt lat="45.08615" lon="4.57058">
        <ele>686.65</ele>
        <time>2019-08-22T12:34:02.000Z</time>
      </trkpt>
      <trkpt lat="45.08618" lon="4.57042">
        <ele>685.83</ele>
        <time>2019-08-22T12:34:12.000Z</time>
      </trkpt>
      <trkpt lat="45.08618" lon="4.57028">
        <ele>683.79</ele>
        <time>2019-08-22T12:34:22.000Z</time>
      </trkpt>
      <trkpt lat="45.0862" lon="4.57005">
        <ele>682.05</ele>
        <time>2019-08-22T12:34:32.000Z</time>
      </trkpt>
      <trkpt lat="45.08621" lon="4.5699">
        <ele>681.67</ele>
        <time>2019-08-22T12:34:42.000Z</time>
      </trkpt>
      <trkpt lat="45.08621" lon="4.56973">
        <ele>680.84</ele>
        <time>2019-08-22T12:34:52.000Z</time>
      </trkpt>
      <trkpt lat="45.08622" lon="4.56959">
        <ele>681.61</ele>
        <time>2019-08-22T12:35:02.000Z</time>
      </trkpt>
      <trkpt lat="45.08625" lon="4.5694">
        <ele>682.89</ele>
        <time>2019-08-22T12:35:12.000Z</time>
      </trkpt>
      <trkpt lat="45.08627" lon="4.56925">
        <ele>684.18</ele>
        <time>2019-08-22T12:35:22.000Z</time>
      </trkpt>
      <trkpt lat="45.08625" lon="4.56905">
        <ele>683.64</ele>
        <time>2019-08-22T12:35:32.000Z</time>
      </trkpt>
      <trkpt lat="45.08626" lon="4.56892">
        <ele>684.39</ele>
        <time>2019-08-22T12:35:42.000Z</time>
      </trkpt>
      <trkpt lat="45.0862" lon="4.56875">
        <ele>683.6</ele>
        <time>2019-08-22T12:35:52.000Z</time>
      </trkpt>
      <trkpt lat="45.08607" lon="4.56871">
        <ele>680.85</ele>
        <time>2019-08-22T12:36:02.000Z</time>
      </trkpt>
      <trkpt lat="45.08595" lon="4.56877">
        <ele>678.32</ele>
        <time>2019-08-22T12:36:12.000Z</time>
      </trkpt>
      <trkpt lat="45.08586" lon="4.5689">
        <ele>675.74</ele>
        <time>2019-08-22T12:36:22.000Z</time>
      </trkpt>
      <trkpt lat="45.08578" lon="4.56903">
        <ele>673.41</ele>
        <time>2019-08-22T12:36:32.000Z</time>
      </trkpt>
      <trkpt lat="45.08573" lon="4.56914">
        <ele>671.85</ele>
        <time>2019-08-22T12:36:42.000Z</time>
      </trkpt>
      <trkpt lat="45.08567" lon="4.56925">
        <ele>670.39</ele>
        <time>2019-08-22T12:36:52.000Z</time>
      </trkpt>
      <trkpt lat="45.08559" lon="4.5694">
        <ele>668.05</ele>
        <time>2019-08-22T12:37:02.000Z</time>
      </trkpt>
      <trkpt lat="45.08547" lon="4.5695">
        <ele>666.9</ele>
        <time>2019-08-22T12:37:12.000Z</time>
      </trkpt>
      <trkpt lat="45.08536" lon="4.56954">
        <ele>666.92</ele>
        <time>2019-08-22T12:37:22.000Z</time>
      </trkpt>
      <trkpt lat="45.08524" lon="4.56957">
        <ele>667.39</ele>
        <time>2019-08-22T12:37:32.000Z</time>
      </trkpt>
      <trkpt lat="45.08513" lon="4.56955">
        <ele>668.76</ele>
        <time>2019-08-22T12:37:42.000Z</time>
      </trkpt>
      <trkpt lat="45.08499" lon="4.56956">
        <ele>669.41</ele>
        <time>2019-08-22T12:37:52.000Z</time>
      </trkpt>
      <trkpt lat="45.08488" lon="4.56951">
        <ele>671.17</ele>
        <time>2019-08-22T12:38:02.000Z</time>
      </trkpt>
      <trkpt lat="45.08475" lon="4.56949">
        <ele>671.93</ele>
        <time>2019-08-22T12:38:12.000Z</time>
      </trkpt>
      <trkpt lat="45.08458" lon="4.56949">
        <ele>672.22</ele>
        <time>2019-08-22T12:38:22.000Z</time>
      </trkpt>
      <trkpt lat="45.08445" lon="4.56944">
        <ele>674.3</ele>
        <time>2019-08-22T12:38:32.000Z</time>
      </trkpt>
      <trkpt lat="45.08432" lon="4.56938">
        <ele>676.44</ele>
        <time>2019-08-22T12:38:42.000Z</time>
      </trkpt>
      <trkpt lat="45.08421" lon="4.56929">
        <ele>679.79</ele>
        <time>2019-08-22T12:38:52.000Z</time>
      </trkpt>
      <trkpt lat="45.08408" lon="4.56923">
        <ele>682.56</ele>
        <time>2019-08-22T12:39:02.000Z</time>
      </trkpt>
      <trkpt lat="45.08395" lon="4.5692">
        <ele>684.21</ele>
        <time>2019-08-22T12:39:12.000Z</time>
      </trkpt>
      <trkpt lat="45.08386" lon="4.56916">
        <ele>685.98</ele>
        <time>2019-08-22T12:39:22.000Z</time>
      </trkpt>
      <trkpt lat="45.08373" lon="4.56917">
        <ele>686.44</ele>
        <time>2019-08-22T12:39:32.000Z</time>
      </trkpt>
      <trkpt lat="45.08359" lon="4.56922">
        <ele>686.17</ele>
        <time>2019-08-22T12:39:42.000Z</time>
      </trkpt>
      <trkpt lat="45.08348" lon="4.56931">
        <ele>684.88</ele>
        <time>2019-08-22T12:39:52.000Z</time>
      </trkpt>
      <trkpt lat="45.08338" lon="4.56942">
        <ele>683.2</ele>
        <time>2019-08-22T12:40:02.000Z</time>
      </trkpt>
      <trkpt lat="45.08325" lon="4.5695">
        <ele>682.43</ele>
        <time>2019-08-22T12:40:12.000Z</time>
      </trkpt>
      <trkpt lat="45.08312" lon="4.56958">
        <ele>682.03</ele>
        <time>2019-08-22T12:40:22.000Z</time>
      </trkpt>
      <trkpt lat="45.083" lon="4.56963">
        <ele>682.4</ele>
        <time>2019-08-22T12:40:32.000Z</time>
      </trkpt>
      <trkpt lat="45.08287" lon="4.5696">
        <ele>684.07</ele>
        <time>2019-08-22T12:40:42.000Z</time>
      </trkpt>
      <trkpt lat="45.08273" lon="4.56953">
        <ele>686.29</ele>
        <time>2019-08-22T12:40:52.000Z</time>
      </trkpt>
      <trkpt lat="45.08264" lon="4.56941">
        <ele>688.38</ele>
        <time>2019-08-22T12:41:02.000Z</time>
      </trkpt>
      <trkpt lat="45.08254" lon="4.5693">
        <ele>689.77</ele>
        <time>2019-08-22T12:41:12.000Z</time>
      </trkpt>
      <trkpt lat="45.08246" lon="4.56917">
        <ele>690.75</ele>
        <time>2019-08-22T12:41:22.000Z</time>
      </trkpt>
      <trkpt lat="45.0824" lon="4.56902">
        <ele>691.44</ele>
        <time>2019-08-22T12:41:32.000Z</time>
      </trkpt>
      <trkpt lat="45.08234" lon="4.56885">
        <ele>691.59</ele>
        <time>2019-08-22T12:41:42.000Z</time>
      </trkpt>
      <trkpt lat="45.08229" lon="4.56869">
        <ele>691.23</ele>
        <time>2019-08-22T12:41:52.000Z</time>
      </trkpt>
      <trkpt lat="45.08221" lon="4.56853">
        <ele>689.93</ele>
        <time>2019-08-22T12:42:02.000Z</time>
      </trkpt>
      <trkpt lat="45.08216" lon="4.56841">
        <ele>689.2</ele>
        <time>2019-08-22T12:42:12.000Z</time>
      </trkpt>
      <trkpt lat="45.08211" lon="4.56824">
        <ele>688.65</ele>
        <time>2019-08-22T12:42:22.000Z</time>
      </trkpt>
      <trkpt lat="45.08206" lon="4.56805">
        <ele>687.97</ele>
        <time>2019-08-22T12:42:32.000Z</time>
      </trkpt>
      <trkpt lat="45.08201" lon="4.56789">
        <ele>687.63</ele>
        <time>2019-08-22T12:42:42.000Z</time>
      </trkpt>
      <trkpt lat="45.08195" lon="4.56774">
        <ele>687.12</ele>
        <time>2019-08-22T12:42:52.000Z</time>
      </trkpt>
      <trkpt lat="45.08185" lon="4.56759">
        <ele>686.45</ele>
        <time>2019-08-22T12:43:02.000Z</time>
      </trkpt>
      <trkpt lat="45.08179" lon="4.56745">
        <ele>686.45</ele>
        <time>2019-08-22T12:43:12.000Z</time>
      </trkpt>
      <trkpt lat="45.08175" lon="4.56728">
        <ele>687.33</ele>
        <time>2019-08-22T12:43:22.000Z</time>
      </trkpt>
      <trkpt lat="45.08168" lon="4.56711">
        <ele>688.12</ele>
        <time>2019-08-22T12:43:32.000Z</time>
      </trkpt>
      <trkpt lat="45.08161" lon="4.56697">
        <ele>688.9</ele>
        <time>2019-08-22T12:43:42.000Z</time>
      </trkpt>
      <trkpt lat="45.08154" lon="4.56683">
        <ele>690.04</ele>
        <time>2019-08-22T12:43:52.000Z</time>
      </trkpt>
      <trkpt lat="45.08144" lon="4.56673">
        <ele>690.87</ele>
        <time>2019-08-22T12:44:02.000Z</time>
      </trkpt>
      <trkpt lat="45.08132" lon="4.56665">
        <ele>691.63</ele>
        <time>2019-08-22T12:44:12.000Z</time>
      </trkpt>
      <trkpt lat="45.08121" lon="4.56658">
        <ele>692.42</ele>
        <time>2019-08-22T12:44:22.000Z</time>
      </trkpt>
      <trkpt lat="45.08109" lon="4.56651">
        <ele>693.55</ele>
        <time>2019-08-22T12:44:32.000Z</time>
      </trkpt>
      <trkpt lat="45.08097" lon="4.56643">
        <ele>694.82</ele>
        <time>2019-08-22T12:44:42.000Z</time>
      </trkpt>
      <trkpt lat="45.08085" lon="4.56637">
        <ele>695.68</ele>
        <time>2019-08-22T12:44:52.000Z</time>
      </trkpt>
      <trkpt lat="45.08073" lon="4.5663">
        <ele>696.58</ele>
        <time>2019-08-22T12:45:02.000Z</time>
      </trkpt>
      <trkpt lat="45.08061" lon="4.56622">
        <ele>697.62</ele>
        <time>2019-08-22T12:45:12.000Z</time>
      </trkpt>
      <trkpt lat="45.08053" lon="4.5661">
        <ele>699.85</ele>
        <time>2019-08-22T12:45:22.000Z</time>
      </trkpt>
      <trkpt lat="45.08042" lon="4.56601">
        <ele>701.08</ele>
        <time>2019-08-22T12:45:32.000Z</time>
      </trkpt>
      <trkpt lat="45.08032" lon="4.56596">
        <ele>701.17</ele>
        <time>2019-08-22T12:45:42.000Z</time>
      </trkpt>
      <trkpt lat="45.0802" lon="4.56593">
        <ele>700.63</ele>
        <time>2019-08-22T12:45:52.000Z</time>
      </trkpt>
      <trkpt lat="45.0801" lon="4.56588">
        <ele>700.75</ele>
        <time>2019-08-22T12:46:02.000Z</time>
      </trkpt>
      <trkpt lat="45.07999" lon="4.56583">
        <ele>701.07</ele>
        <time>2019-08-22T12:46:12.000Z</time>
      </trkpt>
      <trkpt lat="45.07984" lon="4.5658">
        <ele>700.51</ele>
        <time>2019-08-22T12:46:22.000Z</time>
      </trkpt>
      <trkpt lat="45.07968" lon="4.56578">
        <ele>699.74</ele>
        <time>2019-08-22T12:46:32.000Z</time>
      </trkpt>
      <trkpt lat="45.07954" lon="4.56575">
        <ele>699.21</ele>
        <time>2019-08-22T12:46:42.000Z</time>
      </trkpt>
      <trkpt lat="45.0794" lon="4.56577">
        <ele>698.14</ele>
        <time>2019-08-22T12:46:52.000Z</time>
      </trkpt>
      <trkpt lat="45.07928" lon="4.56579">
        <ele>697.14</ele>
        <time>2019-08-22T12:47:02.000Z</time>
      </trkpt>
      <trkpt lat="45.07915" lon="4.56578">
        <ele>696.45</ele>
        <time>2019-08-22T12:47:12.000Z</time>
      </trkpt>
      <trkpt lat="45.07904" lon="4.56573">
        <ele>696.29</ele>
        <time>2019-08-22T12:47:22.000Z</time>
      </trkpt>
      <trkpt lat="45.07892" lon="4.56568">
        <ele>696.06</ele>
        <time>2019-08-22T12:47:32.000Z</time>
      </trkpt>
      <trkpt lat="45.07881" lon="4.56566">
        <ele>695.48</ele>
        <time>2019-08-22T12:47:42.000Z</time>
      </trkpt>
      <trkpt lat="45.0787" lon="4.56566">
        <ele>694.87</ele>
        <time>2019-08-22T12:47:52.000Z</time>
      </trkpt>
      <trkpt lat="45.07859" lon="4.56564">
        <ele>694.2</ele>
        <time>2019-08-22T12:48:02.000Z</time>
      </trkpt>
      <trkpt lat="45.07849" lon="4.56572">
        <ele>693.62</ele>
        <time>2019-08-22T12:48:12.000Z</time>
      </trkpt>
      <trkpt lat="45.07841" lon="4.56578">
        <ele>693.27</ele>
        <time>2019-08-22T12:48:22.000Z</time>
      </trkpt>
      <trkpt lat="45.07833" lon="4.56583">
        <ele>692.94</ele>
        <time>2019-08-22T12:48:32.000Z</time>
      </trkpt>
      <trkpt lat="45.07828" lon="4.56594">
        <ele>693.05</ele>
        <time>2019-08-22T12:48:34.000Z</time>
      </trkpt>
      <trkpt lat="45.07822" lon="4.56612">
        <ele>693.47</ele>
      </trkpt>
      <trkpt lat="45.07817" lon="4.56623">
        <ele>693.72</ele>
      </trkpt>
      <trkpt lat="45.07817" lon="4.56623">
        <ele>693.72</ele>
      </trkpt>
    </trkseg>
  </trk>
</gpx>